[[{"header":{"parameterUnit":"m.s-1","parameterCategory":1,"la1":30.6,"la2":29.2853,"lo1":-89.7004,"lo2":-87.6739,"dy":0.0162,"dx":0.0183,"nx":112,"ny":82,"refTime":"2024-04-08T06:00:00:Z","depth":0,"parameterNumber":2,"parameterNumberName":"U-component_of_WINDS"},"data":[0.0,0.0,0.0,0.0,0.0,0.0,0.0,0.0,0.0,0.0,0.0,0.0,0.0,0.0,0.0,0.0,0.0,0.0,0.0,0.0,0.0,0.0,0.0,0.0,0.0,0.0,0.0,0.0,0.0,0.0,0.0,0.0,0.0,0.0,0.0,0.0,0.0,0.0,0.0,0.0,0.0,0.0,0.0,0.0,0.0,0.0,0.0,0.0,0.0,0.0,0.0,0.0,0.0,0.0,0.0,0.0,0.0,0.0,0.0,0.0,0.0,0.0,0.0,0.0,0.0,0.0,0.0,0.0,0.0,0.0,0.0,0.0,0.0,0.0,0.0,0.0,0.0,0.0,0.0,0.0,0.0,0.0,0.0,0.0,0.0,0.0,0.0,0.0,0.0,0.0,-7.0081,-7.3313,-7.7951,-8.0794,-8.0794,-7.8789,-7.5707,-7.1487,0.0,0.0,0.0,0.0,0.0,0.0,0.0,0.0,0.0,0.0,0.0,0.0,0.0,0.0,0.0,0.0,0.0,0.0,0.0,0.0,0.0,0.0,0.0,0.0,0.0,0.0,0.0,0.0,0.0,0.0,0.0,0.0,0.0,0.0,0.0,0.0,0.0,0.0,0.0,0.0,0.0,0.0,0.0,0.0,0.0,0.0,0.0,0.0,0.0,0.0,0.0,0.0,0.0,0.0,0.0,0.0,0.0,0.0,0.0,0.0,0.0,0.0,0.0,0.0,0.0,0.0,0.0,0.0,0.0,0.0,0.0,0.0,0.0,0.0,0.0,0.0,0.0,0.0,0.0,0.0,0.0,0.0,0.0,0.0,0.0,0.0,0.0,0.0,0.0,0.0,0.0,0.0,0.0,0.0,0.0,0.0,0.0,0.0,0.0,0.0,0.0,0.0,0.0,0.0,-7.041,-7.6425,-7.9297,-8.0794,-8.0794,-7.7981,-7.5168,-7.2774,0.0,0.0,0.0,0.0,0.0,0.0,0.0,0.0,0.0,0.0,0.0,0.0,0.0,0.0,0.0,0.0,0.0,0.0,0.0,0.0,0.0,0.0,0.0,0.0,0.0,0.0,0.0,0.0,0.0,0.0,0.0,0.0,0.0,0.0,0.0,0.0,0.0,0.0,0.0,0.0,0.0,0.0,0.0,0.0,0.0,0.0,0.0,0.0,0.0,0.0,0.0,0.0,0.0,0.0,0.0,0.0,0.0,0.0,0.0,0.0,0.0,0.0,0.0,0.0,0.0,0.0,0.0,0.0,0.0,0.0,0.0,0.0,0.0,0.0,0.0,0.0,0.0,0.0,0.0,0.0,0.0,0.0,0.0,0.0,0.0,0.0,0.0,0.0,0.0,0.0,0.0,0.0,0.0,0.0,0.0,0.0,0.0,0.0,0.0,0.0,0.0,0.0,0.0,-7.05,-7.3702,-7.8878,-8.0584,-8.1332,-8.1332,-7.8639,-7.5796,-7.3073,-7.044,0.0,0.0,0.0,0.0,0.0,0.0,0.0,0.0,0.0,0.0,0.0,0.0,0.0,0.0,0.0,0.0,0.0,0.0,0.0,0.0,0.0,0.0,0.0,0.0,0.0,0.0,0.0,0.0,0.0,0.0,0.0,0.0,0.0,0.0,0.0,0.0,0.0,0.0,0.0,0.0,0.0,0.0,0.0,0.0,0.0,0.0,0.0,0.0,0.0,0.0,0.0,0.0,0.0,0.0,0.0,0.0,0.0,0.0,0.0,0.0,0.0,0.0,0.0,0.0,0.0,0.0,0.0,0.0,0.0,0.0,0.0,0.0,0.0,0.0,0.0,0.0,0.0,0.0,0.0,0.0,0.0,0.0,0.0,0.0,0.0,0.0,0.0,0.0,0.0,0.0,0.0,0.0,0.0,0.0,0.0,0.0,0.0,0.0,0.0,0.0,0.0,0.0,-7.3672,-7.6514,-8.0195,-8.1153,-8.1482,-8.1332,-7.9028,-7.6245,-7.3103,-7.044,0.0,0.0,0.0,0.0,0.0,0.0,0.0,0.0,0.0,0.0,0.0,0.0,0.0,0.0,0.0,0.0,0.0,0.0,0.0,0.0,0.0,0.0,0.0,0.0,0.0,0.0,0.0,0.0,0.0,0.0,0.0,0.0,0.0,0.0,0.0,0.0,0.0,0.0,0.0,0.0,0.0,0.0,0.0,0.0,0.0,0.0,0.0,0.0,0.0,0.0,0.0,0.0,0.0,0.0,0.0,0.0,0.0,0.0,0.0,0.0,0.0,0.0,0.0,0.0,0.0,0.0,0.0,0.0,0.0,0.0,0.0,0.0,0.0,0.0,0.0,0.0,0.0,0.0,0.0,0.0,0.0,0.0,0.0,0.0,0.0,0.0,0.0,0.0,0.0,0.0,0.0,0.0,0.0,0.0,0.0,0.0,0.0,0.0,0.0,0.0,0.0,0.0,-7.3821,-7.6874,-7.9597,-8.0464,-8.0614,-8.0016,-7.8071,-7.5766,-7.3073,-7.044,0.0,0.0,0.0,0.0,0.0,0.0,0.0,0.0,0.0,0.0,0.0,0.0,0.0,0.0,0.0,0.0,0.0,0.0,0.0,0.0,0.0,0.0,0.0,0.0,0.0,0.0,0.0,0.0,0.0,0.0,0.0,0.0,0.0,0.0,0.0,0.0,0.0,0.0,0.0,0.0,0.0,0.0,0.0,0.0,0.0,0.0,0.0,0.0,0.0,0.0,0.0,0.0,0.0,0.0,0.0,0.0,0.0,0.0,0.0,0.0,0.0,0.0,0.0,0.0,0.0,0.0,0.0,0.0,0.0,0.0,0.0,0.0,0.0,0.0,0.0,0.0,0.0,0.0,0.0,0.0,0.0,0.0,0.0,0.0,0.0,0.0,0.0,0.0,0.0,0.0,0.0,0.0,0.0,0.0,0.0,0.0,0.0,0.0,0.0,0.0,0.0,0.0,-7.4091,-7.6904,-7.9537,-8.0045,-7.9926,-7.9238,-7.7741,-7.5527,-7.2475,0.0,0.0,0.0,0.0,0.0,0.0,0.0,0.0,0.0,0.0,0.0,0.0,0.0,0.0,0.0,0.0,0.0,0.0,0.0,0.0,0.0,0.0,0.0,0.0,0.0,0.0,0.0,0.0,0.0,0.0,0.0,0.0,0.0,0.0,0.0,0.0,0.0,0.0,0.0,0.0,0.0,0.0,0.0,0.0,0.0,0.0,0.0,0.0,0.0,0.0,0.0,0.0,0.0,0.0,0.0,0.0,0.0,0.0,0.0,0.0,0.0,0.0,0.0,0.0,0.0,0.0,0.0,0.0,0.0,0.0,0.0,0.0,0.0,0.0,0.0,0.0,0.0,0.0,0.0,0.0,0.0,0.0,0.0,0.0,0.0,0.0,0.0,0.0,0.0,0.0,0.0,0.0,0.0,0.0,0.0,0.0,0.0,0.0,0.0,0.0,0.0,0.0,-7.1637,-7.424,-7.6814,-7.9238,-7.9477,-7.9208,-7.8549,-7.7293,-7.5198,-7.2086,0.0,0.0,0.0,0.0,0.0,0.0,0.0,0.0,0.0,0.0,0.0,0.0,0.0,0.0,0.0,0.0,0.0,0.0,0.0,0.0,0.0,0.0,0.0,0.0,0.0,0.0,0.0,0.0,0.0,0.0,0.0,0.0,0.0,0.0,0.0,0.0,0.0,0.0,0.0,0.0,0.0,0.0,0.0,0.0,0.0,0.0,0.0,0.0,0.0,0.0,0.0,0.0,0.0,0.0,0.0,0.0,0.0,0.0,0.0,0.0,0.0,0.0,0.0,0.0,0.0,0.0,0.0,0.0,0.0,0.0,0.0,0.0,0.0,0.0,0.0,0.0,0.0,0.0,0.0,0.0,0.0,0.0,0.0,0.0,0.0,0.0,0.0,0.0,0.0,0.0,0.0,0.0,0.0,0.0,0.0,0.0,0.0,0.0,0.0,0.0,0.0,0.0,-7.1667,-7.424,-7.6664,-7.8579,-7.8789,-7.8519,-7.7861,-7.6634,-7.4749,0.0,0.0,0.0,0.0,0.0,0.0,0.0,0.0,0.0,0.0,0.0,0.0,0.0,0.0,0.0,0.0,0.0,0.0,0.0,0.0,0.0,0.0,0.0,0.0,0.0,0.0,0.0,0.0,0.0,0.0,0.0,0.0,0.0,0.0,0.0,0.0,0.0,0.0,0.0,0.0,0.0,0.0,0.0,0.0,0.0,0.0,0.0,0.0,0.0,0.0,0.0,0.0,0.0,0.0,0.0,0.0,0.0,0.0,0.0,0.0,0.0,0.0,0.0,0.0,0.0,0.0,0.0,0.0,0.0,0.0,0.0,0.0,0.0,0.0,0.0,0.0,0.0,0.0,0.0,0.0,0.0,0.0,0.0,0.0,0.0,0.0,0.0,0.0,0.0,0.0,0.0,0.0,0.0,0.0,0.0,0.0,0.0,0.0,0.0,0.0,0.0,0.0,0.0,-7.3043,-7.5198,-7.7143,-7.8639,-7.837,-7.7831,-7.7173,-7.5916,-7.424,-7.2026,0.0,0.0,0.0,0.0,0.0,0.0,0.0,0.0,0.0,0.0,0.0,0.0,0.0,0.0,0.0,0.0,0.0,0.0,0.0,0.0,0.0,0.0,0.0,0.0,0.0,0.0,0.0,0.0,0.0,0.0,0.0,0.0,0.0,0.0,0.0,0.0,0.0,0.0,0.0,0.0,0.0,0.0,0.0,0.0,0.0,0.0,0.0,0.0,0.0,0.0,0.0,0.0,0.0,0.0,0.0,0.0,0.0,0.0,0.0,0.0,0.0,0.0,0.0,0.0,0.0,0.0,0.0,0.0,0.0,0.0,0.0,0.0,0.0,0.0,0.0,0.0,0.0,0.0,0.0,0.0,0.0,0.0,0.0,0.0,0.0,0.0,0.0,0.0,0.0,0.0,0.0,0.0,0.0,0.0,0.0,0.0,0.0,0.0,0.0,0.0,0.0,0.0,-7.3313,-7.5228,-7.6963,-7.825,-7.7801,-7.7263,-7.6874,-7.5886,-7.43,-7.2026,0.0,0.0,0.0,0.0,0.0,0.0,0.0,0.0,0.0,0.0,0.0,0.0,0.0,0.0,0.0,0.0,0.0,0.0,0.0,0.0,0.0,0.0,0.0,0.0,0.0,0.0,0.0,0.0,0.0,0.0,0.0,0.0,0.0,0.0,0.0,0.0,0.0,0.0,0.0,0.0,0.0,0.0,0.0,0.0,0.0,0.0,0.0,0.0,0.0,0.0,0.0,0.0,0.0,0.0,0.0,0.0,0.0,0.0,0.0,0.0,0.0,0.0,0.0,0.0,0.0,0.0,0.0,0.0,0.0,0.0,0.0,0.0,0.0,0.0,0.0,0.0,0.0,0.0,0.0,0.0,0.0,0.0,0.0,0.0,0.0,0.0,0.0,0.0,0.0,0.0,0.0,0.0,0.0,0.0,0.0,0.0,0.0,0.0,0.0,0.0,0.0,0.0,-7.2924,-7.4689,-7.6365,-7.7592,-7.7143,-7.6754,-7.6754,-7.6185,-7.4719,-7.2146,0.0,0.0,0.0,0.0,0.0,0.0,0.0,0.0,0.0,0.0,0.0,0.0,0.0,0.0,0.0,0.0,0.0,0.0,0.0,0.0,0.0,0.0,0.0,0.0,0.0,0.0,0.0,0.0,0.0,0.0,0.0,0.0,0.0,0.0,0.0,0.0,0.0,0.0,0.0,0.0,0.0,0.0,0.0,0.0,0.0,0.0,0.0,0.0,0.0,0.0,0.0,0.0,0.0,0.0,0.0,0.0,0.0,0.0,0.0,0.0,-8.1961,-8.0345,0.0,0.0,0.0,0.0,0.0,0.0,0.0,0.0,0.0,0.0,0.0,0.0,0.0,0.0,0.0,0.0,0.0,0.0,0.0,0.0,0.0,0.0,0.0,0.0,0.0,0.0,0.0,0.0,0.0,0.0,0.0,0.0,0.0,0.0,0.0,0.0,0.0,0.0,0.0,0.0,-7.3522,-7.4988,-7.6185,-7.6963,-7.6485,-7.6096,-7.6096,-7.5497,-7.442,-7.2804,-7.2056,0.0,0.0,0.0,0.0,0.0,0.0,0.0,0.0,0.0,0.0,0.0,0.0,0.0,0.0,0.0,0.0,0.0,0.0,0.0,0.0,0.0,0.0,0.0,0.0,0.0,0.0,0.0,0.0,0.0,0.0,0.0,0.0,0.0,0.0,0.0,0.0,0.0,0.0,0.0,0.0,0.0,0.0,0.0,0.0,0.0,0.0,0.0,0.0,0.0,0.0,0.0,0.0,0.0,0.0,0.0,0.0,0.0,0.0,0.0,-8.3576,-8.232,0.0,0.0,0.0,0.0,0.0,0.0,0.0,0.0,0.0,0.0,0.0,0.0,0.0,0.0,0.0,0.0,0.0,0.0,0.0,0.0,0.0,0.0,0.0,0.0,0.0,0.0,0.0,0.0,0.0,0.0,0.0,0.0,0.0,0.0,0.0,0.0,0.0,0.0,0.0,0.0,-7.3762,-7.4779,-7.5647,-7.6305,-7.5796,-7.5557,-7.5886,-7.5288,-7.43,-7.2984,-7.2265,0.0,0.0,0.0,0.0,0.0,0.0,0.0,0.0,0.0,0.0,0.0,0.0,0.0,0.0,0.0,0.0,0.0,0.0,0.0,0.0,0.0,0.0,0.0,0.0,0.0,0.0,0.0,0.0,0.0,0.0,0.0,0.0,0.0,0.0,0.0,0.0,0.0,0.0,0.0,0.0,0.0,0.0,0.0,0.0,0.0,0.0,0.0,0.0,0.0,0.0,0.0,0.0,0.0,-8.4803,-8.5162,-8.5402,-8.5402,-8.5701,-8.615,-8.5073,-8.4474,-8.4205,-8.3547,0.0,0.0,0.0,0.0,0.0,0.0,0.0,0.0,0.0,0.0,0.0,0.0,0.0,0.0,0.0,0.0,0.0,0.0,0.0,0.0,0.0,0.0,-7.7023,-7.7143,-7.7083,-7.6844,-7.6215,0.0,0.0,0.0,0.0,0.0,0.0,0.0,0.0,0.0,0.0,0.0,-7.3821,-7.448,-7.5078,-7.5677,-7.5228,-7.5108,-7.5677,-7.5198,-7.43,-7.2984,-7.2385,-7.0829,0.0,0.0,0.0,0.0,0.0,0.0,0.0,0.0,0.0,0.0,0.0,0.0,0.0,0.0,0.0,0.0,0.0,0.0,0.0,0.0,0.0,0.0,0.0,0.0,0.0,0.0,0.0,0.0,0.0,0.0,0.0,0.0,-8.46,-8.5173,0.0,0.0,0.0,0.0,0.0,0.0,0.0,0.0,0.0,0.0,0.0,0.0,0.0,-8.4684,-8.5432,-8.4863,-8.5162,-8.6299,-8.6389,-8.7048,-8.8155,-8.8155,-8.8215,-8.8274,-8.8095,0.0,-8.624,-8.5581,0.0,0.0,0.0,0.0,0.0,0.0,0.0,0.0,0.0,0.0,0.0,0.0,0.0,0.0,0.0,0.0,0.0,0.0,0.0,0.0,0.0,0.0,-7.7831,-7.84,-7.81,-7.7502,-7.6844,-7.6215,-7.5557,-7.4869,-7.43,-7.3642,0.0,0.0,0.0,0.0,0.0,0.0,-7.3821,-7.448,-7.4899,-7.4988,-7.4929,-7.4929,-7.4988,-7.4929,-7.43,-7.2984,-7.2834,-7.1338,-6.8106,-6.7807,0.0,0.0,0.0,0.0,0.0,0.0,0.0,0.0,0.0,0.0,0.0,0.0,0.0,0.0,0.0,0.0,0.0,0.0,0.0,0.0,0.0,0.0,0.0,0.0,0.0,0.0,0.0,0.0,0.0,-8.2163,-8.392,-8.4495,-8.4515,-8.4423,0.0,0.0,0.0,0.0,0.0,0.0,0.0,0.0,0.0,-8.7197,-8.6689,-8.6718,-8.7377,-8.7077,-8.7227,-8.7796,-8.7796,-8.8125,-8.8693,-8.8693,-8.8903,-8.9232,-8.9232,-8.9112,-8.8753,-8.6988,-8.5701,-8.4684,0.0,0.0,0.0,0.0,-8.0794,-8.0734,-8.0135,-7.9926,-7.9716,-7.8489,0.0,0.0,0.0,0.0,0.0,0.0,0.0,-7.7113,-7.7682,-7.8071,-7.843,-7.8729,-7.828,-7.7741,-7.7442,-7.6604,-7.5707,-7.5018,-7.4629,-7.424,-7.3582,-7.3223,0.0,0.0,0.0,-7.3702,-7.436,-7.4689,-7.4869,-7.4869,-7.4869,-7.4869,-7.4869,-7.454,-7.3911,-7.2984,-7.2565,-7.1188,-6.8645,-6.8166,-6.7059,0.0,0.0,0.0,0.0,0.0,0.0,0.0,0.0,0.0,0.0,0.0,0.0,0.0,0.0,0.0,0.0,0.0,0.0,0.0,0.0,0.0,0.0,0.0,0.0,0.0,0.0,0.0,0.0,-8.2439,-8.3576,-8.4384,-8.4803,-8.5132,0.0,0.0,0.0,0.0,0.0,0.0,-8.7407,-8.7287,-8.7646,-8.8663,-8.8394,-8.8514,-8.9172,-8.9023,-8.8933,-8.8933,-8.8933,-8.9023,-8.9172,-8.9172,-8.9441,-8.992,-8.992,-9.019,-9.0459,-8.8155,-8.6808,-8.603,-8.4205,-8.3098,-8.2439,-8.1781,-8.1542,-8.1512,-8.1183,-8.1063,-8.0883,-7.9866,-7.8968,-7.819,-7.7711,0.0,0.0,0.0,0.0,-7.7801,-7.7801,-7.816,-7.8489,-7.834,-7.7921,-7.7502,-7.7352,-7.6574,-7.5766,-7.5228,-7.4988,-7.4719,-7.424,-7.4001,0.0,-7.4121,-7.4001,-7.4121,-7.4779,-7.4869,-7.4869,-7.4869,-7.4869,-7.4809,-7.4629,-7.418,-7.3552,-7.2714,-7.2176,-7.1009,-6.9093,-6.8495,-6.7537,-6.6041,0.0,0.0,0.0,0.0,0.0,0.0,0.0,0.0,0.0,0.0,0.0,0.0,0.0,0.0,0.0,0.0,0.0,0.0,0.0,0.0,0.0,0.0,0.0,0.0,0.0,0.0,0.0,0.0,0.0,-8.6359,-8.7646,0.0,0.0,0.0,0.0,-8.7646,-8.8185,-8.8813,-8.9471,-8.8933,-8.9471,-9.1357,-9.0219,-8.989,-9.0549,-8.992,-8.9621,-8.9621,-8.9621,-8.995,-9.0549,-9.0549,-9.0549,-9.0579,-9.0579,-9.0608,-9.0549,-8.9142,-8.8185,-8.7467,-8.609,-8.5132,-8.4474,-8.3816,-8.3576,-8.3397,-8.217,-8.1721,-8.1422,-7.9477,-7.7981,-7.6933,-7.6874,-7.6844,0.0,0.0,-7.7771,-7.7801,-7.7801,-7.7831,-7.7711,-7.7083,-7.6904,-7.6724,-7.6125,-7.5946,-7.5886,-7.5856,-7.5318,-7.4869,-7.4839,0.0,-7.4121,-7.4719,-7.43,-7.4121,-7.4779,-7.4869,-7.4869,-7.4869,-7.4869,-7.4629,-7.4001,-7.3911,-7.3343,-7.2026,-7.1906,-7.1009,-6.9093,-6.8974,-6.8016,-6.6041,-6.5323,0.0,0.0,0.0,0.0,0.0,0.0,0.0,0.0,0.0,0.0,0.0,0.0,0.0,0.0,0.0,0.0,0.0,0.0,0.0,0.0,0.0,0.0,0.0,0.0,0.0,0.0,0.0,0.0,-8.9082,-9.001,0.0,-8.9651,-8.9801,-8.983,-8.9621,-9.0608,-9.1297,-9.1536,-9.1746,-9.1955,-9.2254,-9.1805,-9.1656,-9.1895,-9.1656,-9.1357,-9.0908,-9.0908,-9.0818,-9.0638,-9.0638,-9.0638,-9.0638,-9.0638,-9.0638,-9.0549,-8.9232,-8.8544,-8.8215,-8.6868,-8.591,-8.5252,-8.4594,-8.4085,-8.3666,-8.3187,-8.2769,-8.214,-8.0584,-7.9178,-7.81,-7.81,-7.81,-7.813,-7.837,-7.843,-7.843,-7.843,-7.813,-7.7741,-7.7502,-7.6844,-7.6185,-7.5946,-7.5557,-7.5258,-7.5258,-7.5048,-7.4869,-7.4869,-7.4689,-7.4599,-7.4839,-7.4689,-7.4599,-7.4839,-7.4869,-7.4869,-7.4869,-7.4869,-7.4599,-7.3941,-7.3492,-7.2864,-7.1936,-7.1098,-7.0171,-6.9064,-6.8585,-6.7807,-6.667,-6.5592,-6.4337,0.0,0.0,0.0,0.0,0.0,0.0,0.0,0.0,0.0,0.0,0.0,0.0,0.0,0.0,0.0,0.0,0.0,0.0,0.0,0.0,0.0,0.0,0.0,0.0,0.0,-8.8095,-8.992,-9.1446,-9.2404,-9.2793,-9.2344,-9.2524,-9.2464,-9.2015,-9.3002,-9.3511,-9.3302,-9.3691,-9.384,-9.3631,-9.3601,-9.3601,-9.3601,-9.3391,-9.2943,-9.2284,-9.2075,-9.1716,-9.1297,-9.1297,-9.1177,-9.0968,-9.0968,-9.0848,-9.0549,-8.9471,-8.8873,-8.8544,-8.7197,-8.6419,-8.594,-8.5282,-8.4624,-8.3965,-8.3307,-8.2649,-8.1931,-8.0823,-7.9716,-7.8789,-7.8789,-7.8789,-7.8789,-7.8789,-7.8639,-7.84,-7.819,-7.7652,-7.7113,-7.6874,-7.6185,-7.5557,-7.5557,-7.5198,-7.4869,-7.4869,-7.4869,-7.4869,-7.4869,-7.4869,-7.4869,-7.4869,-7.4869,-7.4869,-7.4869,-7.4869,-7.4779,-7.4569,-7.4749,-7.442,-7.3313,-7.3043,-7.2535,-7.1607,-7.056,-6.9692,-6.9034,-6.8345,-6.7567,-6.667,-6.5353,-6.401,-6.2691,0.0,0.0,0.0,0.0,0.0,0.0,0.0,0.0,0.0,0.0,0.0,0.0,0.0,0.0,0.0,0.0,0.0,0.0,0.0,0.0,0.0,0.0,0.0,-8.7945,-8.9531,-9.1506,-9.3451,-9.4888,-9.5666,-9.5666,-9.6264,-9.6084,-9.4798,-9.5336,-9.5426,-9.4768,-9.4738,-9.5037,-9.5636,-9.5666,-9.5636,-9.5636,-9.4977,-9.4289,-9.3601,-9.2943,-9.2613,-9.2613,-9.2583,-9.2224,-9.1626,-9.1596,-9.1237,-9.0579,-8.995,-8.9262,-8.8544,-8.7227,-8.6689,-8.6599,-8.594,-8.5252,-8.4414,-8.2469,-8.1392,-8.0734,-8.0075,-7.9387,-7.8819,-7.8789,-7.8789,-7.8789,-7.8789,-7.834,-7.7682,-7.7023,-7.6395,-7.5766,-7.5078,-7.4899,-7.4869,-7.4869,-7.4869,-7.4869,-7.4869,-7.4869,-7.4869,-7.4869,-7.4869,-7.4869,-7.4869,-7.4869,0.0,-7.4869,-7.4869,-7.4629,-7.4001,-7.448,-7.4061,-7.2086,-7.2535,-7.2325,-7.0979,-7.029,-6.9662,-6.9034,-6.8315,-6.7328,-6.6011,-6.4635,-6.3649,-6.2991,0.0,0.0,0.0,0.0,0.0,0.0,0.0,0.0,0.0,0.0,0.0,0.0,0.0,0.0,0.0,0.0,0.0,0.0,0.0,0.0,0.0,-9.0369,-9.1446,-9.1267,-9.2554,-9.4229,-9.6174,-9.7192,-9.7521,-9.7012,-9.7581,-9.7641,-9.6773,-9.776,-9.8149,-9.7491,-9.791,-9.779,-9.6982,-9.6982,-9.6743,-9.6294,-9.5666,-9.4977,-9.4319,-9.3631,-9.3062,-9.2583,-9.2105,-9.1776,-9.1596,-9.1117,-9.0818,-9.0579,-8.995,-8.9262,-8.8604,-8.7766,-8.7107,-8.6599,-8.594,-8.4983,-8.3846,-8.2828,-8.205,-8.1392,-8.0734,-8.0075,-7.9447,-7.8938,-7.8789,-7.8789,-7.8789,-7.8669,-7.837,-7.7711,-7.7053,-7.6425,-7.5766,-7.5228,-7.4869,-7.4869,-7.4869,-7.4869,-7.4869,-7.4869,-7.4869,-7.4869,-7.4869,-7.4869,-7.4869,-7.4869,-7.4869,-7.4869,-7.4869,-7.4809,-7.4629,-7.4779,-7.427,-7.2744,-7.2804,-7.2325,-7.0979,-6.9871,-6.9183,-6.9004,-6.7897,-6.664,-6.5323,-6.3703,-6.2366,0.0,0.0,0.0,0.0,0.0,0.0,0.0,0.0,0.0,0.0,0.0,0.0,0.0,0.0,0.0,0.0,0.0,0.0,0.0,0.0,0.0,0.0,-9.2374,-9.4139,-9.4977,-9.5755,-9.6862,-9.8538,-9.9346,-9.9586,-9.9197,-10.0004,-10.0094,-9.8837,-10.0004,-10.0304,-9.9406,-9.9705,-9.9556,-9.8778,-9.8748,-9.8448,-9.779,-9.7162,-9.6473,-9.5815,-9.4858,-9.4229,-9.384,-9.3182,-9.2554,-9.2015,-9.1626,-9.1147,-9.0579,-8.995,-8.9441,-8.8993,0.0,0.0,0.0,0.0,-8.4624,-8.3606,-8.2679,-8.1931,-8.1272,-8.0614,-7.9926,-7.9327,-7.8908,-7.8789,-7.8789,-7.8789,-7.84,-7.7891,-7.7502,-7.6724,-7.5916,-7.5557,-7.5168,-7.4869,-7.4869,-7.4869,-7.4869,-7.4869,-7.4869,0.0,-7.4869,-7.4869,-7.4869,-7.4869,-7.4869,-7.4869,-7.4869,-7.4869,-7.4779,-7.448,-7.4719,-7.421,-7.2624,-7.2744,0.0,0.0,0.0,-6.9153,-6.8585,-6.7298,0.0,0.0,0.0,-6.2873,-6.2375,-5.9786,0.0,0.0,-5.6688,-5.493,0.0,0.0,0.0,0.0,0.0,0.0,0.0,0.0,0.0,0.0,0.0,0.0,0.0,0.0,0.0,0.0,-9.4229,-9.6623,-9.8598,-9.8987,-9.9496,-10.0693,-10.1351,-10.168,-10.177,-10.2787,-10.2698,-10.0962,-10.189,-10.1979,-10.0782,-10.0693,0.0,0.0,0.0,-10.0274,-9.9615,-9.8897,-9.8209,-9.7611,-9.6234,-9.5606,-9.5576,-9.4828,-9.381,-9.2613,-9.2524,-9.1776,-9.0608,-9.001,-8.9741,-8.9531,-8.8215,-8.7227,-8.6419,-8.5162,-8.4265,-8.3457,-8.229,0.0,0.0,-8.0165,-7.9507,-7.8998,-7.8849,-7.8729,-7.8669,-7.8669,-7.7801,-7.6814,-7.6754,-7.5856,-7.4958,-7.4899,-7.4869,-7.4869,-7.4869,-7.4869,-7.4869,-7.4869,-7.4869,-7.4869,-7.4869,-7.4869,-7.4869,-7.4869,-7.4869,-7.4839,-7.4779,-7.4839,-7.4629,-7.3971,-7.442,0.0,-7.2146,-7.2505,-7.2265,-7.0979,-7.026,-6.9273,-6.7926,-6.667,-6.6011,-6.6011,-6.4844,-6.4485,-6.4964,-6.0827,-5.9134,-5.9707,-5.6544,-5.4583,0.0,0.0,0.0,0.0,0.0,0.0,0.0,0.0,0.0,0.0,0.0,0.0,0.0,0.0,0.0,-9.4618,-9.6593,-9.8658,-10.0633,-10.183,-10.2548,-10.2817,-10.2997,-10.3236,-10.3775,-10.3595,-10.3236,-10.2907,-10.2608,-10.2398,-10.2099,-10.2099,-10.186,-10.1291,-10.1261,-10.0962,-10.0304,-9.9107,-9.8448,-9.8299,-9.6473,0.0,-9.5546,-9.4349,-9.3361,-9.2583,-9.2045,-9.1357,-9.0638,-9.0489,-9.013,-8.9531,-8.8215,-8.6958,-8.5791,-8.5013,-8.3965,-8.2918,-8.2649,-8.2499,-8.217,-8.1003,-8.0524,-8.0195,-7.9118,-7.843,0.0,-7.7981,-7.7442,-7.6724,-7.6215,-7.5886,-7.5557,-7.5018,-7.4869,-7.4869,-7.4869,-7.4869,-7.4869,-7.4869,-7.4869,-7.4869,-7.4869,-7.4869,-7.4869,-7.4869,-7.4869,-7.4689,-7.4151,-7.454,-7.4629,-7.3971,-7.4001,-7.3702,-7.2804,-7.2325,-7.1757,-7.0949,-6.9842,-6.8585,-6.7238,-6.643,-6.6011,-6.6011,-6.5742,-6.5413,-6.5024,-6.4128,-6.2303,-5.9707,-5.5356,-5.3525,0.0,0.0,0.0,0.0,0.0,0.0,0.0,0.0,0.0,0.0,0.0,-9.2703,-9.3062,0.0,-9.5516,-9.6833,-9.8718,-10.0513,-10.18,-10.3117,-10.3895,-10.3895,-10.3895,-10.4014,-10.4373,-10.4403,-10.4134,-10.3506,-10.3416,-10.3176,-10.2518,-10.2488,-10.2309,-10.1979,-10.1979,-10.168,-10.0992,-10.0004,-9.9346,-9.8987,-9.7341,-9.6384,-9.6055,-9.5037,-9.387,-9.2583,-9.2254,-9.1536,-9.0638,-9.0638,-9.0249,-8.9561,-8.8574,-8.7167,-8.5611,-8.4953,-8.3876,-8.2844,-8.2844,-8.232,-8.1661,-8.1003,-8.0345,-7.9656,-7.8998,-7.834,-7.7801,-7.7801,-7.7113,-7.6305,-7.5976,-7.5647,-7.5318,-7.4958,-7.4869,-7.4869,-7.4869,-7.4869,-7.4869,-7.4869,-7.4869,-7.4869,-7.4869,-7.4869,-7.4869,-7.4869,-7.4869,-7.4629,-7.3971,-7.418,-7.4121,-7.3462,-7.3402,-7.3133,-7.2445,-7.1787,-7.1128,-7.047,-6.9542,-6.8555,-6.7537,-6.6849,-6.649,-6.649,-6.6191,-6.5557,-6.467,-6.3701,-6.2203,-6.0149,-5.6902,-5.4811,0.0,0.0,0.0,0.0,0.0,0.0,0.0,-9.4049,-9.4315,-9.2525,-9.3152,-9.4229,-9.5037,-9.6264,-9.7551,-9.8867,-10.0603,-10.2009,-10.2907,-10.3924,-10.4613,-10.4792,-10.4702,-10.4613,-10.4792,-10.5032,-10.4792,-10.3715,-10.3895,-10.3595,-10.2578,-10.2488,-10.2488,-10.2488,-10.2488,-10.2219,-10.168,-10.0992,-10.0393,-9.9855,-9.8389,-9.7371,-9.6713,-9.5935,-9.4499,-9.2583,-9.2314,-9.1626,-9.0638,-9.0638,-9.0249,-8.9591,-8.8933,-8.7467,-8.5611,-8.4953,-8.3816,-8.2635,-8.2635,-8.1781,-8.0764,-8.0644,-7.9866,-7.8968,-7.8819,-7.834,-7.7771,-7.7652,-7.6784,-7.5886,-7.5736,-7.5288,-7.4869,-7.4869,-7.4869,-7.4869,-7.4869,-7.4869,-7.4869,-7.4869,-7.4869,-7.4869,-7.4869,-7.4869,-7.4869,-7.4869,-7.4779,-7.445,-7.3791,-7.3702,-7.3462,-7.2774,-7.2714,-7.2385,-7.1577,-7.1009,-7.038,-6.9632,-6.9093,-6.8495,-6.7807,-6.7148,-6.6849,-6.6999,-6.634,-6.5549,-6.4648,-6.2993,-6.1719,-6.0718,-5.917,-5.6958,-10.1815,-10.0482,-9.834,-9.4767,-9.5773,-9.6552,0.0,-9.374,-9.535,-9.4419,-9.4858,-9.5725,-9.6952,-9.8269,-9.9615,-10.0902,-10.186,-10.2997,-10.4822,-10.5211,-10.554,-10.6109,-10.569,-10.554,-10.6109,-10.5181,-10.4433,-10.4313,-10.3296,-10.2668,-10.2488,-10.2488,-10.2488,-10.2488,-10.2488,-10.2488,-10.2398,-10.168,-10.1444,-10.1354,-9.9316,-9.8059,-9.7341,-9.6144,-9.4499,-9.2524,-9.1357,-9.0788,-9.0638,-9.0638,-9.0249,-8.9591,-8.8933,-8.7467,-8.5611,-8.4953,-8.3517,-8.1901,-8.1901,-8.1422,-8.0704,-8.0105,-7.9836,-7.9597,-7.8968,-7.834,-7.7682,-7.7113,-7.6425,-7.5766,-7.5138,-7.4929,-7.4869,-7.4869,-7.4869,-7.4869,-7.4869,-7.4869,-7.4869,-7.4869,-7.4869,-7.4869,-7.4869,-7.4869,-7.4869,-7.4869,-7.436,-7.3762,-7.3103,-7.3013,-7.2774,-7.2056,-7.1996,-7.1517,-7.029,-7.0081,-6.9512,-6.8286,-6.8136,-6.7777,-6.7119,-6.646,-6.64,-6.6969,-6.634,-6.592,-6.5798,-6.4993,-6.3528,-6.1413,-6.061,-5.8752,-10.2502,-10.1914,-10.0986,-9.9742,-10.0313,-10.0318,-9.6964,-9.7765,-9.8462,-9.6268,-9.6892,-9.8269,-9.9556,-10.0603,-10.168,-10.2967,-10.3775,-10.4493,-10.5331,-10.5421,-10.5241,-10.4732,-10.4792,-10.5211,-10.6318,-10.5899,-10.5421,-10.5032,-10.4104,-10.3416,-10.3027,-10.2698,-10.2309,-10.189,-10.2279,-10.2309,-10.189,-10.1261,-10.0872,-10.0872,-9.8867,-9.7581,-9.6922,-9.6025,-9.4499,-9.2524,-9.1207,-9.0638,-9.0638,-9.0638,-9.004,-8.9023,-8.8364,-8.6898,-8.5103,-8.4803,-8.3457,-8.1781,-8.1781,-8.1093,-8.0195,-7.9896,-7.9537,-7.9178,-7.8878,-7.8071,-7.7173,-7.6904,-7.6096,-7.5228,-7.4958,-7.4869,-7.4869,-7.4869,-7.4869,-7.4869,-7.4869,-7.4869,-7.4869,-7.4869,-7.4869,-7.4869,-7.4869,-7.4569,-7.43,-7.43,-7.4061,-7.3522,-7.2445,-7.2325,-7.2056,-7.1398,-7.1308,-7.1098,-7.056,-7.0171,-6.9542,-6.8615,-6.8196,-6.7687,-6.7029,-6.637,-6.6131,-6.64,-6.5772,-6.4902,-6.3866,-6.3283,-6.2421,-6.1369,-6.0796,-5.9863,-10.2502,-10.2502,-10.2508,-10.269,-10.3527,-10.3531,-10.087,-10.1788,-10.251,-9.9979,-10.0795,-10.2144,-10.2607,-10.3362,-10.4112,-10.4349,-10.5002,-10.5421,-10.5421,-10.5121,-10.4403,-10.3027,-10.2997,-10.3595,-10.4912,-10.551,-10.56,-10.4912,-10.4403,-10.3835,-10.3206,-10.2728,-10.2279,-10.177,-10.2219,-10.2189,-10.1471,-10.0992,-10.0663,-10.0483,-9.8658,-9.7431,-9.6773,-9.5396,-9.399,-9.2524,-9.1207,-9.0638,-9.0638,-9.0638,-8.986,-8.8634,-8.8155,-8.6629,-8.4714,-8.4714,-8.3367,-8.1512,-8.1512,-8.0644,-7.9537,-7.9537,-7.9208,-7.8789,-7.8789,-7.813,-7.7293,-7.6933,-7.6155,-7.5318,-7.4958,-7.4869,-7.4869,-7.4869,-7.4869,-7.4869,-7.4869,-7.4869,-7.4869,-7.4869,-7.4869,-7.4869,-7.4869,-7.448,-7.4031,-7.3672,-7.3612,-7.3193,-7.2026,-7.1727,-7.1427,-7.0949,-7.0889,-7.0769,-7.041,-6.9961,-6.9363,-6.8495,-6.7986,-6.7478,-6.6999,-6.637,-6.6011,-6.6011,-6.5353,-6.4277,-6.2797,-6.2392,-6.2072,-6.1808,-6.1402,-6.093,-10.2502,-10.2502,-10.2214,-10.1004,-10.3192,-10.5073,-10.2507,-10.4573,-10.6996,-10.6927,-10.7545,-10.7468,-10.5999,-10.6796,-10.7029,-10.4754,-10.5002,-10.5421,-10.5421,-10.4313,-10.2997,-10.168,-10.0393,-10.0184,-10.1471,-10.3356,-10.4194,-10.3535,-10.3446,-10.3206,-10.2578,-10.2488,-10.2488,-10.2488,-10.2488,-10.2189,-10.1471,-10.1471,-10.1082,-10.0483,-9.9137,-9.8119,-9.7341,-9.4139,-9.2673,-9.2524,-9.1207,-9.0638,-9.0638,-9.0638,-8.986,-8.8693,-8.8663,-8.7048,-8.4714,-8.4714,-8.3068,-8.0823,-8.0823,-7.9956,-7.8819,-7.8819,-7.8819,-7.8789,-7.8789,-7.8759,-7.846,-7.7203,-7.6814,-7.6485,-7.5198,-7.4869,-7.4869,-7.4869,-7.4869,-7.4869,-7.4869,-7.4869,-7.4869,-7.4869,-7.4869,-7.4869,-7.4869,-7.4869,-7.442,-7.3133,-7.2954,-7.2684,-7.1966,-7.1338,-7.0919,-7.0889,-7.0889,-7.041,-6.9153,-6.9034,-6.8465,-6.7119,-6.7029,-6.6999,-6.6999,-6.637,-6.6011,-6.6011,-6.5353,-6.4635,-6.3978,-6.3948,-6.3619,-6.3051,-6.3021,-6.2116,-10.2976,-10.3212,-10.3488,-10.4472,-10.5718,-10.6524,-10.6214,-10.7377,-10.8372,-10.8053,-10.7193,-10.6769,-10.7079,-10.6404,-10.6245,-10.7912,-10.7021,-10.6447,-10.7643,-10.6876,-10.4644,-10.0067,-10.1181,-10.108,-9.7909,-10.0573,-10.2907,-10.3984,-10.3685,-10.3326,-10.3117,-10.2698,-10.2099,-10.1201,-10.2009,-10.177,-10.0184,-10.0603,-10.0483,-9.9825,-9.8059,-9.6414,-9.4858,-9.3302,-9.2374,-9.1895,-9.1027,-9.0638,-9.0608,-9.016,-8.9471,-8.8604,-8.7706,-8.627,-8.4654,-8.4235,-8.2679,-8.0794,-8.0794,-7.9926,-7.8789,-7.8789,-7.8789,-7.8789,-7.8789,-7.8489,-7.7951,-7.7083,-7.6544,-7.6006,-7.5108,-7.4869,-7.4869,-7.4869,-7.4869,-7.4869,-7.4869,-7.4869,-7.4869,-7.4869,-7.4869,-7.4869,-7.4869,-7.451,-7.3762,-7.2445,-7.1846,-7.1487,-7.1278,-7.1038,-7.0889,-7.0889,-7.0889,-7.056,-6.9722,-6.9243,-6.8615,-6.7687,-6.7238,-6.6999,-6.6999,-6.637,-6.5802,-6.5383,-6.4695,-6.4036,-6.3378,-6.2204,-6.2175,-6.3079,-6.191,-6.1703,-10.328,-10.3787,-10.4498,-10.6392,-10.7509,-10.8383,-10.9457,-11.0462,-11.0885,-10.9879,-10.9109,-10.8307,-10.7278,-10.6409,-10.6284,-10.7764,-10.7024,-10.668,-10.832,-10.6833,-10.413,-10.0237,-10.0616,-9.9922,-9.662,-9.8568,-10.0872,-10.2877,-10.2817,-10.2817,-10.3087,-10.2698,-10.2099,-10.1201,-10.2069,-10.177,-10.0214,-10.0393,-9.9795,-9.8448,-9.6922,-9.5306,-9.3571,-9.2913,-9.2254,-9.1566,-9.0908,-9.0638,-9.0608,-9.019,-8.9501,-8.8604,-8.7736,-8.6299,-8.4654,-8.4235,-8.2679,-8.0794,-8.0794,-8.0075,-7.9118,-7.8878,-7.8968,-7.9118,-7.8878,-7.834,-7.7682,-7.7023,-7.6395,-7.5736,-7.5048,-7.4869,-7.4869,-7.4869,-7.4869,-7.4869,-7.4869,-7.4869,-7.4869,-7.4869,-7.4869,-7.4869,-7.4869,-7.4151,-7.3163,-7.2056,-7.1338,-7.0889,-7.0889,-7.0889,-7.0889,-7.0889,-7.0889,-7.056,-6.9692,-6.9243,-6.8615,-6.7687,-6.7238,-6.6999,-6.6999,-6.658,-6.5951,-6.5054,-6.4605,-6.3947,-6.3079,-6.1969,-6.2028,-6.3079,-6.1969,-6.2028,-10.3483,-10.4295,-10.5208,-10.6764,-10.8794,-11.079,-11.2177,-11.3564,-11.4105,-11.2685,-11.2786,-11.1709,-10.6813,-10.6865,-10.7073,-10.5209,-10.54,-10.6422,-10.7975,-10.468,-10.2167,-10.2236,-9.9074,-9.716,-9.7609,-9.7699,-9.8509,-10.0487,-10.1174,-10.177,-10.2488,-10.2488,-10.2488,-10.2398,-10.2488,-10.2159,-10.1534,-10.0693,-9.9107,-9.6563,-9.5875,-9.4828,-9.3511,-9.2853,-9.2194,-9.1536,-9.0908,-9.0638,-9.0555,-9.0579,-8.9801,-8.8663,-8.8574,-8.6958,-8.4714,-8.4624,-8.3008,-8.0794,-8.0764,-8.0315,-7.9656,-7.8998,-7.9238,-7.9656,-7.8998,-7.834,-7.7682,-7.7023,-7.6395,-7.5736,-7.5048,-7.4869,-7.4869,-7.4869,-7.4869,-7.4869,-7.4869,-7.4869,-7.4869,-7.4869,-7.4869,-7.4869,-7.4839,-7.3762,-7.2684,-7.1996,-7.1338,-7.0889,-7.0889,-7.0889,-7.0889,-7.0889,-7.0889,-7.038,-6.9123,-6.9004,-6.8435,-6.7059,-6.6999,-6.6999,-6.6999,-6.6999,-6.637,-6.5054,-6.5024,-6.4395,-6.3079,-6.3079,-6.3079,-6.3079,-6.3079,-6.3079,-10.4701,-10.6189,-10.7712,-10.9708,-11.1095,-11.2008,-11.238,-11.238,-11.1974,-11.1095,-10.92,-10.7542,-10.6827,-10.5614,-10.5777,-10.9135,-10.8784,-10.9259,-11.2503,-11.1012,-10.8591,-10.6185,-10.3955,-10.2046,-10.0201,-10.0478,-10.14,-10.2789,-10.1639,-10.1261,-10.2398,-10.2488,-10.2279,-10.177,-10.2219,-10.192,-10.0753,-9.9586,-9.8209,-9.6563,-9.5396,-9.4139,-9.2823,-9.2165,-9.1506,-9.0878,-9.0698,-9.0638,-9.0549,-8.9591,-8.8993,-8.8544,-8.7048,-8.5731,-8.4594,-8.3606,-8.223,-8.0734,-8.0225,-7.9627,-7.9028,-7.8849,-7.8908,-7.9028,-7.8849,-7.834,-7.7682,-7.7023,-7.6395,-7.5736,-7.5048,-7.4869,-7.4869,-7.4869,-7.4869,-7.4869,-7.4869,-7.4869,-7.4869,-7.4869,-7.4869,-7.4719,-7.424,-7.3462,-7.2684,-7.1996,-7.1338,-7.0889,-7.0889,-7.0889,-7.0889,-7.0889,-7.0889,-7.038,-6.9123,-6.9004,-6.8435,-6.7059,-6.6999,-6.6999,-6.6999,-6.6999,-6.637,-6.5054,-6.5024,-6.4395,-6.3079,-6.3079,-6.3079,-6.3079,-6.3079,-6.3079,-10.6697,-10.8118,-10.9505,-11.1399,-11.2177,-11.238,-11.2076,-11.1399,-11.0316,-10.8287,-10.6494,-10.5107,-10.4599,-10.372,-10.4498,-10.8693,-10.9197,-11.0477,-11.4626,-11.3329,-11.1565,-11.0689,-10.8619,-10.639,-10.4397,-10.4491,-10.4974,-10.5729,-10.336,-10.2545,-10.3944,-10.2959,-10.2309,-10.195,-10.2279,-10.171,-10.0094,-9.8748,-9.7431,-9.6114,-9.4798,-9.3601,-9.2583,-9.1925,-9.1267,-9.0638,-9.0638,-9.0638,-9.0549,-8.9531,-8.8963,-8.8514,-8.6808,-8.5551,-8.4594,-8.3576,-8.217,-8.0764,-8.0375,-7.9597,-7.8789,-7.8789,-7.8998,-7.9178,-7.8878,-7.834,-7.7682,-7.7023,-7.6395,-7.5736,-7.5048,-7.4869,-7.4869,-7.4869,-7.4869,-7.4869,-7.4869,-7.4869,-7.4869,-7.4869,-7.4869,-7.4569,-7.3642,-7.3163,-7.2595,-7.1607,-7.1128,-7.0889,-7.0889,-7.0889,-7.0889,-7.0889,-7.0649,-7.0081,-6.9093,-6.8734,-6.8106,-6.7059,-6.6999,-6.6999,-6.6999,-6.6999,-6.652,-6.5473,-6.5173,-6.4515,-6.3468,-6.3199,-6.3079,-6.3079,-6.3079,-6.3079,-10.8896,-11.008,-11.1027,-11.2279,-11.2583,-11.2279,-11.1298,-11.0283,-10.8591,-10.5107,-10.4193,-10.3483,-10.169,-10.1893,-10.3415,-10.6697,-10.8388,-11.0993,-11.5628,-11.375,-11.2939,-11.5302,-11.272,-11.0312,-10.9179,-10.9132,-10.9082,-10.8872,-10.6468,-10.532,-10.577,-10.373,-10.2488,-10.2488,-10.2398,-10.1501,-9.9645,-9.8209,-9.6862,-9.5576,-9.4139,-9.3092,-9.2434,-9.1776,-9.1177,-9.0638,-9.0638,-9.0638,-9.0579,-8.995,-8.9262,-8.8544,-8.7197,-8.5881,-8.4624,-8.3876,-8.2409,-8.0794,-8.0704,-7.9836,-7.8789,-7.8789,-7.9178,-7.9567,-7.8968,-7.834,-7.7682,-7.7023,-7.6395,-7.5736,-7.5048,-7.4869,-7.4869,-7.4869,-7.4869,-7.4869,-7.4869,-7.4869,-7.4869,-7.4869,-7.4869,-7.445,-7.3133,-7.2924,-7.2445,-7.1098,-7.0889,-7.0889,-7.0889,-7.0889,-7.0859,-7.0799,-7.029,-6.9662,-6.8914,-6.8315,-6.7687,-6.7029,-6.6999,-6.6999,-6.6999,-6.6909,-6.655,-6.5892,-6.5233,-6.4545,-6.3887,-6.3348,-6.3079,-6.3079,-6.3079,-6.3079,-11.0689,-11.2008,-11.309,-11.3327,-11.2989,-11.1974,-10.9978,-10.7576,-10.5107,-10.328,-10.1893,-10.1115,-10.1284,-10.1487,-10.3179,-10.7982,-10.9505,-11.2109,-11.7793,-11.6516,-11.6076,-11.9003,-11.5006,-11.2487,-11.3482,-11.3624,-11.3282,-11.2724,-11.2162,-11.008,-10.5978,-10.373,-10.2488,-10.2488,-10.1979,-10.1201,-10.0304,-9.8448,-9.6862,-9.5576,-9.3691,-9.2434,-9.1776,-9.1117,-9.0758,-9.0638,-9.0638,-9.0638,-9.0579,-8.995,-8.9262,-8.8544,-8.7197,-8.5881,-8.4564,-8.3367,-8.202,-8.0734,-8.0165,-7.9477,-7.8789,-7.8789,-7.8878,-7.8938,-7.8819,-7.834,-7.7682,-7.7023,-7.6395,-7.5736,-7.5048,-7.4869,-7.4869,-7.4869,-7.4869,-7.4869,-7.4869,-7.4869,-7.4869,-7.4869,-7.4869,-7.445,-7.3133,-7.2924,-7.2445,-7.1098,-7.0889,-7.0889,-7.0889,-7.0889,-7.0709,-7.0201,-7.0051,-6.9482,-6.8256,-6.8046,-6.7687,-6.7029,-6.6999,-6.6999,-6.6999,-6.646,-6.5862,-6.5203,-6.4545,-6.3857,-6.3228,-6.3139,-6.3079,-6.3079,-6.3079,-6.3079,-11.2685,-11.3598,-11.4173,-11.4173,-11.2786,-11.0892,-10.8997,-10.6291,-10.3585,-10.1724,-10.1014,-10.0811,-10.0811,-10.1419,-10.3179,-10.6798,-10.8388,-11.0925,-11.6101,-11.6229,-11.6865,-11.9916,-11.8095,-11.6461,-11.6481,-11.6458,-11.599,-11.4821,-11.3691,-11.1933,-10.9427,-10.717,-10.5202,-10.3699,-10.2998,-10.1728,-9.9466,-9.782,-9.6533,-9.5576,-9.3571,-9.2434,-9.2105,-9.1087,-9.0638,-9.0638,-9.0638,-9.0638,-9.0579,-8.995,-8.9262,-8.8544,-8.7197,-8.5881,-8.4594,-8.3636,-8.223,-8.0764,-8.0434,-7.9656,-7.8789,-7.8789,-7.8789,-7.8789,-7.8789,-7.834,-7.7682,-7.7023,-7.6395,-7.5736,-7.5048,-7.4869,-7.4869,-7.4869,-7.4869,-7.4869,-7.4869,-7.4869,-7.4869,-7.4869,-7.4869,-7.445,-7.3133,-7.2924,-7.2445,-7.1098,-7.0889,-7.0889,-7.0889,-7.0889,-7.0799,-7.05,-6.9871,-6.9213,-6.8555,-6.7867,-6.7328,-6.6999,-6.6999,-6.6999,-6.6999,-6.67,-6.6221,-6.5562,-6.4874,-6.4216,-6.3558,-6.3228,-6.3079,-6.3079,-6.3079,-6.3079,-11.4173,-11.4782,-11.4883,-11.4511,-11.2211,-10.9708,-10.8118,-10.5377,-10.2603,-10.0608,-10.0709,-10.0912,-10.0337,-10.1318,-10.3009,-10.5411,-10.6798,-10.92,-11.4004,-11.5188,-11.671,-11.989,-12.0296,-11.9789,-11.8503,-11.83,-11.7691,-11.6203,-11.4277,-11.2774,-11.1812,-11.0136,-10.7956,-10.5594,-10.4444,-10.2266,-9.9166,-9.7458,-9.6174,-9.5366,-9.3481,-9.2524,-9.2344,-9.1177,-9.0638,-9.0638,-9.0638,-9.0638,-9.0608,-9.01,-8.9501,-8.8783,-8.7586,-8.6299,-8.5043,-8.4235,-8.2709,-8.0973,-8.0853,-7.9926,-7.8789,-7.8789,-7.8789,-7.8789,-7.8789,-7.834,-7.7682,-7.7023,-7.6395,-7.5736,-7.5048,-7.4869,-7.4869,-7.4869,-7.4869,-7.4869,-7.4869,-7.4869,-7.4869,-7.4869,-7.4869,-7.451,-7.3343,-7.3013,-7.2505,-7.1308,-7.0979,-7.0889,-7.0889,-7.0889,-7.0889,-7.0889,-6.9901,-6.9093,-6.8794,-6.7807,-6.7148,-6.6999,-6.6999,-6.6999,-6.6999,-6.6849,-6.646,-6.5802,-6.5144,-6.4545,-6.4006,-6.3378,-6.3139,-6.3258,-6.3258,-6.3199,-11.4477,-11.5188,-11.5425,-11.4004,-11.1501,-10.8896,-10.7373,-10.4193,-10.1284,-10.0405,-10.0303,-10.0303,-10.0235,-10.0912,-10.2401,-10.531,-10.5919,-10.8016,-11.3902,-11.4782,-11.6203,-11.989,-12.0296,-11.9992,-11.918,-11.9078,-11.8469,-11.6913,-11.6022,-11.3698,-10.9579,-10.9165,-10.8742,-10.7675,-10.5187,-10.2987,-10.14,-9.816,-9.5935,-9.4678,-9.3272,-9.2284,-9.1686,-9.0968,-9.0638,-9.0638,-9.0638,-9.0638,-9.0638,-9.0579,-9.016,-8.9501,-8.8783,-8.7676,-8.6329,-8.5073,-8.3397,-8.1601,-8.1003,-7.9926,-7.8789,-7.8789,-7.8789,-7.8789,-7.8789,-7.834,-7.7682,-7.7023,-7.6395,-7.5736,-7.5048,-7.4869,-7.4869,-7.4869,-7.4869,-7.4869,-7.4869,-7.4869,-7.4869,-7.4869,-7.4869,-7.4659,-7.3941,-7.3313,-7.2654,-7.1906,-7.1278,-7.0889,-7.0889,-7.0889,-7.0889,-7.0889,-7.029,-6.9393,-6.8166,-6.7956,-6.7627,-6.7029,-6.6999,-6.6999,-6.6999,-6.643,-6.5802,-6.5144,-6.4455,-6.4066,-6.4006,-6.3378,-6.3378,-6.3917,-6.3917,-6.3617,-11.3699,-11.4917,-11.5425,-11.4004,-11.1399,-10.8794,-10.7272,-10.4396,-10.1825,-10.1081,-10.1318,-10.1419,-10.1014,-10.1521,-10.2299,-10.3009,-10.3517,-10.5005,-10.8185,-10.9403,-11.1703,-11.6406,-11.7319,-11.7827,-11.8503,-11.8503,-11.7894,-11.6406,-11.6,-11.496,-11.3205,-11.2697,-11.153,-10.9526,-10.7519,-10.4708,-10.1237,-9.8924,-9.6991,-9.5187,-9.3421,-9.2464,-9.2165,-9.1117,-9.0638,-9.0638,-9.0638,-9.0638,-9.0638,-9.0638,-9.0249,-8.9591,-8.8933,-8.7856,-8.6509,-8.5192,-8.3457,-8.1691,-8.1033,-7.9926,-7.8789,-7.8789,-7.8789,-7.8789,-7.8789,-7.8041,-7.7173,-7.6904,-7.6066,-7.5228,-7.4958,-7.4869,-7.4869,-7.4869,-7.4869,-7.4869,-7.4869,-7.4869,-7.4869,-7.4869,-7.4869,-7.454,-7.3492,-7.3103,-7.2565,-7.1457,-7.1068,-7.0889,-7.0889,-7.0889,-7.0889,-7.0889,-7.035,-6.9752,-6.9213,-6.8435,-6.7867,-6.7597,-6.7208,-6.6999,-6.6999,-6.6729,-6.6281,-6.5622,-6.5353,-6.5024,-6.4605,-6.4366,-6.4156,-6.4006,-6.4425,-6.4276,-11.2515,-11.4207,-11.512,-11.3598,-11.1196,-10.8693,-10.7001,-10.4498,-10.2299,-10.1589,-10.1995,-10.2299,-10.1487,-10.1792,-10.1995,-10.1487,-10.1622,-10.2401,-10.4092,-10.5614,-10.8185,-11.2583,-11.3902,-11.512,-11.6609,-11.7184,-11.7015,-11.5898,-11.5831,-11.5729,-11.5492,-11.4782,-11.3324,-11.1085,-10.9227,-10.6166,-10.2124,-9.9829,-9.7841,-9.6224,-9.3762,-9.2613,-9.2554,-9.1237,-9.0638,-9.0638,-9.0638,-9.0638,-9.0638,-9.0638,-9.0249,-8.9591,-8.8933,-8.7975,-8.6808,-8.5282,-8.3576,-8.1961,-8.1093,-7.9926,-7.8789,-7.8789,-7.8789,-7.8789,-7.8789,-7.7861,-7.6814,-7.6814,-7.5886,-7.4869,-7.4869,-7.4869,-7.4869,-7.4869,-7.4869,-7.4869,-7.4869,-7.4869,-7.4869,-7.4869,-7.4869,-7.4569,-7.3642,-7.3163,-7.2595,-7.1637,-7.1158,-7.0889,-7.0889,-7.0889,-7.0889,-7.0889,-7.05,-7.0171,-6.9991,-6.9093,-6.8495,-6.8286,-6.7657,-6.7298,-6.7298,-6.7089,-6.667,-6.6011,-6.6011,-6.5772,-6.5323,-6.5114,-6.4874,-6.4605,-6.5084,-6.5054,-11.0993,-11.2989,-11.4376,-11.2888,-11.079,-10.8591,-10.6325,-10.4092,-10.2299,-10.1589,-10.1995,-10.2299,-10.1487,-10.1386,-10.1386,-10.1386,-10.0709,-10.1014,-10.328,-10.4904,-10.6697,-10.8963,-11.0587,-11.2008,-11.3496,-11.5019,-11.5831,-11.5831,-11.5831,-11.5492,-11.4782,-11.4004,-11.3293,-11.2515,-10.9697,-10.717,-10.5028,-10.0749,-9.8394,-9.7631,-9.4251,-9.2613,-9.2554,-9.1237,-9.0638,-9.0638,-9.0638,-9.0638,-9.0638,-9.0638,-9.0249,-8.9591,-8.8933,-8.8274,-8.7467,-8.5462,-8.3876,-8.2559,-8.1242,-7.9926,-7.8789,-7.8789,-7.8789,-7.8789,-7.8789,-7.7861,-7.6814,-7.6814,-7.5886,-7.4869,-7.4869,-7.4869,-7.4869,-7.4869,-7.4869,-7.4869,-7.4869,-7.4869,-7.4869,-7.4869,-7.4869,-7.4869,-7.4869,-7.3762,-7.2924,-7.2894,-7.1757,-7.0889,-7.0889,-7.0889,-7.0889,-7.0889,-7.0889,-7.0649,-7.0021,-6.9961,-6.9692,-6.9034,-6.8345,-6.7956,-6.7956,-6.7328,-6.667,-6.6011,-6.6011,-6.6011,-6.6011,-6.5353,-6.5353,-6.5981,-6.6011,-6.6011,-10.7881,-10.9572,-11.0689,-10.9708,-10.8118,-10.6595,-10.531,-10.372,-10.2401,-10.2198,-10.2299,-10.2299,-10.1487,-10.1386,-10.1081,-9.9999,-9.9999,-10.0303,-10.0506,-10.2705,-10.5513,-10.8794,-11.2685,-11.5323,-11.5797,-11.5831,-11.5831,-11.5831,-11.5831,-11.5492,-11.4714,-11.4004,-11.3023,-11.1771,-10.9891,-10.7627,-10.5035,-10.3086,-10.0676,-9.7712,-9.57,-9.3969,-9.2554,-9.1237,-9.0638,-9.0638,-9.0638,-9.0399,-8.998,-8.998,-8.9591,-8.8933,-8.8274,-8.7616,-8.6808,-8.5282,-8.3876,-8.2589,-8.1272,-8.0225,-7.9417,-7.8938,-7.8789,-7.8789,-7.8789,-7.7861,-7.6634,-7.5736,-7.5198,-7.4869,-7.4869,-7.4869,-7.4869,-7.4869,-7.4869,-7.4869,-7.4869,-7.4869,-7.4869,-7.4869,-7.4869,-7.4719,-7.43,-7.3851,-7.3432,-7.2984,-7.2565,-7.2116,-7.1637,-7.1577,-7.1398,-7.0949,-7.0889,-7.0829,-7.062,-7.0231,-6.9901,-6.9692,-6.9034,-6.8465,-6.7986,-6.7777,-6.7358,-6.67,-6.667,-6.667,-6.667,-6.646,-6.649,-6.667,-6.6221,-6.6251,-10.5479,-10.7373,-10.8591,-10.7813,-10.6697,-10.5513,-10.4498,-10.3382,-10.2502,-10.2502,-10.2502,-10.2299,-10.1487,-10.1183,-10.0506,-9.9288,-9.9254,-9.9221,-9.8747,-10.1487,-10.5005,-10.876,-11.2786,-11.5188,-11.5188,-11.5594,-11.5831,-11.5831,-11.5526,-11.5086,-11.4308,-11.3293,-11.2109,-11.0587,-10.9674,-10.8074,-10.5676,-10.44,-10.1966,-9.8455,-9.6564,-9.4443,-9.2194,-9.1117,-9.0638,-9.0638,-9.0638,-9.0279,0.0,-8.9681,-8.9142,-8.8274,-8.7856,-8.7137,-8.618,-8.5103,-8.3876,-8.2589,-8.1272,-8.0375,-7.9716,-7.9028,-7.8789,-7.8729,-7.8489,-7.7682,-7.6604,-7.5557,-7.5078,-7.4869,-7.4869,-7.4869,-7.4869,-7.4869,-7.4869,-7.4869,-7.4869,-7.4869,-7.4869,-7.4869,-7.4869,-7.4749,-7.433,-7.4061,-7.3762,-7.3343,-7.3073,-7.2744,-7.2325,-7.2056,-7.1727,-7.1308,-7.1038,-7.0889,-7.0889,-7.056,-7.032,-7.032,-6.9722,-6.9183,-6.8734,-6.8256,-6.7777,-6.7358,-6.7119,-6.6999,-6.6999,-6.6999,-6.7238,-6.7747,-6.7059,-6.6969,0.0,-10.5986,-10.7407,-10.6697,-10.6088,-10.5208,-10.3821,-10.3009,0.0,-10.2502,-10.2502,-10.2198,-10.1487,-10.0675,-9.9863,-9.9051,-9.8409,-9.8003,-9.7935,-10.1318,-10.5174,-10.8794,-11.1298,-11.2685,-11.2482,-11.4511,-11.5831,-11.5729,-11.5086,-11.4308,-11.3496,-11.2109,-11.0689,-10.9166,-10.9099,-10.8388,-10.69,-10.4878,-10.2624,-10.001,-9.7357,-9.4623,-9.1954,-9.1157,-9.0774,-9.0774,-9.0579,-9.019,-8.9591,-8.9561,-8.8753,-8.7556,-8.7556,-8.6748,-8.5492,-8.4863,-8.3846,-8.2589,-8.1272,-8.0405,-7.9776,-7.9028,-7.8789,-7.8669,-7.8011,-7.7382,-7.6754,-7.6096,-7.5437,-7.4929,-7.4899,-7.4869,-7.4869,-7.4869,-7.4869,-7.4869,-7.4869,-7.4869,-7.4869,-7.4869,-7.4869,-7.4869,-7.4869,-7.436,-7.3971,-7.3971,-7.3432,-7.3043,-7.2984,-7.2415,-7.1996,-7.1966,-7.1398,-7.1009,-7.0979,-7.0919,-7.0889,-7.0889,-7.035,-7.0021,-6.9991,-6.8764,-6.8076,-6.8046,-6.7388,-6.7089,-6.7119,-6.7089,-6.7717,-6.9004,-6.8345,-6.8046,-10.1995,0.0,-10.3009,-10.3415,-10.3415,-10.3212,0.0,-10.2603,-10.2502,-10.2502,-10.2096,-10.1386,-10.0608,-9.9863,-9.8916,-9.7631,-9.7732,-9.78,-9.7225,-10.2299,-10.7103,-10.9708,-11.2989,-11.4376,-11.2685,-11.4511,-11.5594,-11.4985,-11.4782,-11.3902,-11.2008,-11.1602,-11.0418,-10.8321,-10.8321,-10.7813,-10.69,-10.5921,-10.4185,-10.197,-10.0334,-9.8274,-9.6049,-9.3901,-9.2912,-9.2753,-9.0777,-8.9531,-8.8873,-8.8364,-8.7377,-8.618,-8.618,-8.5342,-8.4175,-8.4025,-8.3457,-8.2589,-8.1272,-8.0704,-8.0375,-7.9178,-7.8789,-7.8669,-7.8011,-7.7711,-7.7352,-7.6215,-7.5796,-7.5557,-7.5018,-7.4869,-7.4869,-7.4869,-7.4869,-7.4869,-7.4869,-7.4869,-7.4869,-7.4869,-7.4869,-7.4869,-7.4869,-7.4749,-7.4629,-7.4629,-7.451,-7.424,-7.3732,-7.3522,-7.3223,-7.2714,-7.2535,-7.2235,-7.1697,-7.1188,-7.0889,-7.0889,-7.0769,-7.047,-6.9991,-6.9692,-6.9273,-6.8764,-6.8076,-6.8016,-6.8525,-6.8016,-6.8166,-6.9004,-6.8824,-6.8764,-10.1386,-10.1589,-10.1995,-10.2401,-10.2502,-10.2502,-10.2502,-10.2502,-10.2401,-10.2096,-10.169,-10.1081,-9.9897,-9.9356,-9.8713,-9.7597,-9.7732,-9.8476,-9.9796,-10.3077,-10.69,-11.079,-11.309,-11.4207,-11.4004,-11.4816,-11.512,-11.4714,-11.3767,-11.2685,-11.1501,-11.0418,-10.9302,-10.8016,-10.7712,-10.7103,-10.6392,-10.602,-10.4369,-10.1701,-10.1046,-9.9362,-9.7008,-9.5609,-9.4491,-9.3481,-9.1791,-9.0174,-8.8634,-8.7975,-8.6898,-8.5701,-8.5701,-8.4893,-8.3726,-8.3726,-8.3337,-8.2589,-8.1272,-8.0405,-7.9746,-7.9028,-7.8579,-7.828,-7.7921,-7.7592,-7.7143,-7.6185,-7.5677,-7.5347,-7.4958,-7.4869,-7.4869,-7.4869,-7.4869,-7.4869,-7.4869,-7.4869,-7.4869,-7.4869,-7.4869,-7.4869,-7.4869,-7.4869,-7.4869,-7.4869,-7.4869,-7.4749,-7.439,-7.4091,-7.3762,-7.3402,-7.3103,-7.2774,-7.2385,-7.1727,-7.1218,-7.0919,-7.0889,-7.0739,-7.041,-7.0141,-6.9662,-6.9004,-6.8645,-6.8764,-6.9453,-6.8764,-6.8944,-6.9871,-6.9572,-6.9453,-10.1589,-10.1995,-10.2502,-10.2502,-10.2502,-10.2502,-10.2502,-10.2502,-10.2299,-10.1589,-10.1284,-10.0777,-9.9356,-9.9018,-9.8679,-9.7969,-9.7935,-9.939,-10.3382,-10.399,-10.6088,-11.1365,-11.238,-11.3293,-11.4816,-11.4714,-11.441,-11.4207,-11.2482,-11.1196,-11.0892,-10.9031,-10.7915,-10.7712,-10.7103,-10.6291,-10.5513,-10.558,-10.4102,-10.11,-10.0866,-9.9737,-9.7479,-9.7157,-9.6062,-9.4272,-9.3309,-9.1405,-8.8908,-8.8246,-8.7035,-8.5551,-8.5551,-8.4743,-8.3576,-8.3576,-8.3158,-8.2409,-8.1093,-7.9836,-7.8789,-7.8789,-7.834,-7.7801,-7.7682,-7.7203,-7.6574,-7.6066,-7.5497,-7.5018,-7.4899,-7.4869,-7.4869,-7.4869,-7.4869,-7.4869,-7.4869,-7.4869,-7.4869,-7.4869,-7.4869,-7.4869,-7.4869,-7.4869,-7.4869,-7.4869,-7.4869,-7.4869,-7.4869,-7.439,-7.4031,-7.4031,-7.3552,-7.3163,-7.3073,-7.2445,-7.1757,-7.1098,-7.0949,-7.0889,-7.0889,-7.041,-6.9871,-6.9303,-6.9183,-6.9482,-7.0111,-6.9453,-6.9752,-7.0889,-7.038,-7.0111,-10.2299,-10.2401,-10.2502,-10.2502,-10.2502,-10.2502,-10.2502,-10.2502,-10.2299,-10.1589,-10.0878,-10.01,-9.9254,-9.8578,-9.7935,-9.7191,-9.7597,-9.9762,-10.4802,-10.5986,-10.7204,-10.9403,-11.1906,-11.282,-11.1298,-11.2718,-11.3293,-11.2008,-11.1602,-11.0587,-10.8625,-10.8219,-10.7407,-10.6189,-10.602,-10.531,-10.399,-10.4566,-10.4298,-10.309,-10.2517,-10.2015,-10.1518,-9.9802,-9.8576,-9.7503,-9.5195,-9.2698,-9.022,-8.9542,-8.7463,-8.4863,-8.4863,-8.4055,-8.2918,-8.2918,-8.2499,-8.1751,-8.0434,-7.9447,-7.8789,-7.8789,-7.834,-7.7711,-7.7143,-7.6544,-7.6036,-7.5946,-7.5826,-7.5617,-7.5018,-7.4869,-7.4869,-7.4869,-7.4869,-7.4869,-7.4869,-7.4869,-7.4869,-7.4869,-7.4869,-7.4869,-7.4869,-7.4869,-7.4869,-7.4869,-7.4869,-7.4869,-7.4869,-7.4779,-7.4719,-7.4719,-7.4629,-7.436,-7.3791,-7.3133,-7.2475,-7.1787,-7.1218,-7.0889,-7.0889,-7.0799,-7.0709,-7.062,-7.0111,-7.0141,-7.0769,-7.0141,-7.0201,-7.0889,-7.0799,-7.0769,-10.2502,-10.2502,-10.2502,-10.2502,-10.2502,-10.2502,-10.2502,-10.2502,-10.2299,-10.1589,-10.0777,-9.9999,-9.9221,-9.8815,-9.8882,-9.9762,-10.0506,-10.213,-10.531,-10.6088,-10.7204,-10.9505,-11.0993,-11.1906,-11.2109,-11.2312,-11.2109,-11.1467,-10.9877,-10.849,-10.7509,-10.6629,-10.5885,-10.5208,-10.5208,-10.4701,-10.3585,-10.3889,-10.3686,-10.3009,-10.2705,-10.2502,-10.2536,-10.1485,-10.0117,-9.8305,-9.6793,-9.4542,-9.1859,-8.9823,-8.7895,-8.6092,-8.4756,-8.3606,-8.2784,-8.235,-8.1811,-8.1123,-8.0165,-7.9357,-7.8789,-7.8789,-7.834,-7.7741,-7.7442,-7.6904,-7.6395,-7.6395,-7.5886,-7.5347,-7.5407,-7.5138,-7.4869,-7.4869,-7.4869,-7.4869,-7.4869,-7.4869,-7.4869,-7.4869,-7.4869,-7.4869,-7.4869,-7.4869,-7.4869,-7.4869,-7.4869,-7.4869,-7.4869,-7.4869,-7.4869,-7.4869,-7.4869,-7.4749,-7.445,-7.3821,-7.2864,-7.1457,-7.1068,-7.0889,-7.0889,-7.0889,-7.0889,-7.0889,-7.062,-7.062,-7.0889,-7.062,-7.062,-7.0889,-7.0889,-7.0889,-10.2502,-10.2502,-10.2502,-10.2502,-10.2502,-10.2502,-10.2502,-10.2502,-10.2299,-10.1589,-10.0912,-10.0202,-9.9254,-9.9221,-9.9999,-10.2198,-10.328,-10.4498,-10.6291,-10.6426,-10.7407,-11.0215,-11.0418,-11.0993,-11.2685,-11.1805,-11.0993,-11.0621,-10.8287,-10.6798,-10.6697,-10.5377,-10.4599,-10.4396,-10.4396,-10.4092,-10.3314,-10.3314,-10.3077,-10.2502,-10.2502,-10.2502,-10.2502,-10.2299,-10.1012,-9.8785,-9.8122,-9.6222,-9.3545,-9.0882,-8.9168,-8.7964,-8.5361,-8.3657,-8.2679,-8.202,-8.1362,-8.0704,-8.0045,-7.9357,-7.8789,-7.8789,-7.834,-7.7801,-7.7801,-7.7352,-7.6814,-7.6814,-7.6096,-7.5437,-7.5796,-7.5377,-7.4869,-7.4869,-7.4869,-7.4869,-7.4869,-7.4869,-7.4869,-7.4869,-7.4869,-7.4869,-7.4869,-7.4869,-7.4869,-7.4869,-7.4869,-7.4869,-7.4869,-7.4869,-7.4869,-7.4869,-7.4869,-7.4809,-7.4659,-7.418,-7.3163,-7.1487,-7.1068,-7.0889,-7.0889,-7.1038,-7.1128,-7.1128,-7.1308,-7.1368,-7.1368,-7.1368,-7.1308,-7.1128,-7.1308,-7.1278,-10.2502,-10.2502,-10.2502,-10.2502,-10.2502,-10.2502,-10.2502,-10.2502,-10.2299,-10.1589,-10.1386,-10.0878,-9.9356,-9.966,-10.0641,-10.2231,-10.3686,-10.558,-10.849,-10.8321,-10.8727,-11.0993,-11.0722,-11.0384,-11.0519,-11.0418,-10.9809,-10.8422,-10.7407,-10.6595,-10.5919,-10.5107,-10.4396,-10.3686,-10.3686,-10.3314,-10.2603,-10.2603,-10.2603,-10.2502,-10.2502,-10.2502,-10.2502,-10.1792,-10.0984,-10.0012,-9.9303,-9.7475,-9.4979,-9.4091,-9.2306,-8.9857,-8.7216,-8.4808,-8.2679,-8.202,-8.1362,-8.0704,-8.0045,-7.9357,-7.8789,-7.8789,-7.834,-7.7801,-7.7801,-7.7352,-7.6814,-7.6814,-7.6754,-7.6574,-7.6036,-7.5377,-7.4869,-7.4869,-7.4869,-7.4869,-7.4869,-7.4869,-7.4869,-7.4869,-7.4869,-7.4869,-7.4869,-7.4869,-7.4869,-7.4869,-7.4869,-7.4869,-7.4869,-7.4869,-7.4869,-7.4869,-7.4869,-7.4629,-7.4001,-7.3911,-7.3582,-7.2804,-7.1607,-7.0889,-7.0889,-7.1487,-7.1816,-7.1816,-7.2445,-7.2774,-7.2774,-7.2774,-7.2445,-7.1816,-7.2475,-7.2415,-10.1792,-10.1792,-10.1792,-10.1792,-10.2198,-10.2502,-10.2502,-10.2908,-10.2976,-10.2198,-10.2096,-10.1589,-10.01,-10.0811,-10.213,-10.3585,-10.5479,-10.7509,-10.9606,-10.9606,-10.9809,-11.0621,-11.008,-10.9606,-10.9606,-10.92,-10.8422,-10.7407,-10.6189,-10.5208,-10.4498,-10.372,-10.3212,-10.2908,-10.2908,-10.2806,-10.2502,-10.2502,-10.2502,-10.2502,-10.2502,-10.2299,-10.1792,-10.1487,-10.0675,-9.9491,-9.9221,-9.8271,-9.6766,-9.4413,-9.2876,-9.1626,-8.7458,-8.5287,-8.421,-8.1958,-8.1003,-8.0644,-7.9567,-7.8998,-7.8789,-7.8789,-7.8609,-7.843,-7.843,-7.825,-7.7981,-7.7562,-7.7143,-7.6694,-7.6066,-7.5707,-7.5407,-7.4988,-7.4869,-7.4869,-7.4869,-7.4869,-7.4869,-7.4869,-7.4869,-7.4869,-7.4869,-7.4869,-7.4869,-7.4869,-7.4869,-7.4869,-7.4869,-7.4869,-7.4869,-7.4869,-7.4869,-7.4779,-7.451,-7.4121,-7.3791,-7.3552,-7.2654,-7.2146,-7.2146,-7.2385,-7.2535,-7.2535,-7.2774,-7.2924,-7.2924,-7.2924,-7.2774,-7.2535,-7.2804,-7.2774,-10.1386,-10.1386,-10.1386,-10.1386,-10.1995,-10.2502,-10.2502,-10.3077,-10.3517,-10.328,-10.3009,-10.2401,-10.0912,-10.1825,-10.3179,-10.4193,-10.6392,-10.849,-10.9809,-10.9708,-10.9708,-10.9911,-10.9302,-10.8794,-10.8794,-10.8321,-10.761,-10.6595,-10.5377,-10.4363,-10.3618,-10.2908,-10.2502,-10.2502,-10.2502,-10.2502,-10.2502,-10.2502,-10.2502,-10.2502,-10.2502,-10.2096,-10.1386,-10.1115,-10.0303,-9.9085,-9.8848,-9.8476,-9.784,-9.5339,-9.3649,-9.2382,-8.8667,-8.6501,-8.5307,-8.345,-8.191,-8.0718,-8.0169,-7.9412,-7.8789,-7.8789,-7.8789,-7.8789,-7.8789,-7.8789,-7.8639,-7.7981,-7.7502,-7.6993,-7.6365,-7.5886,-7.5527,-7.5258,-7.5018,-7.4869,-7.4869,-7.4869,-7.4869,-7.4869,-7.4869,-7.4869,-7.4869,-7.4869,-7.4869,-7.4869,-7.4869,-7.4869,-7.4869,-7.4869,-7.4869,-7.4869,-7.4869,-7.4869,-7.4869,-7.445,-7.421,-7.421,-7.3791,-7.3343,-7.2924,-7.3103,-7.3223,-7.3223,-7.3432,-7.3522,-7.3522,-7.3522,-7.3432,-7.3223,-7.3432,-7.3432,-10.1386,-10.1386,-10.1386,-10.1386,-10.1995,-10.2502,-10.2502,-10.3077,-10.3787,-10.4566,-10.4092,-10.3179,-10.169,-10.2603,-10.3585,-10.3585,-10.6088,-10.8287,-10.9065,-10.849,-10.8321,-10.9065,-10.849,-10.8016,-10.8016,-10.8016,-10.7407,-10.5919,-10.5107,-10.4363,-10.3618,-10.2908,-10.2502,-10.2502,-10.2502,-10.2502,-10.2502,-10.2502,-10.2502,-10.2502,-10.2502,-10.2096,-10.1386,-10.0608,-9.9796,-9.9051,-9.8307,-9.8003,-9.7935,-9.7191,-9.4953,-9.1947,-9.1159,-8.8722,-8.5694,-8.6614,-8.4404,-8.0968,-8.2086,-8.085,-7.8861,-7.8861,-7.8861,-7.8861,-7.8861,-7.8861,-7.8711,-7.8052,-7.7872,-7.7723,-7.6993,-7.5856,-7.5117,-7.5736,-7.5377,-7.4899,-7.4869,-7.4869,-7.4869,-7.4869,-7.4869,-7.4869,-7.4869,-7.4869,-7.4869,-7.4869,-7.4869,-7.4869,-7.4869,-7.4869,-7.4869,-7.4869,-7.4869,-7.4869,-7.4869,-7.4869,-7.4869,-7.4869,-7.4869,-7.43,-7.2984,-7.3552,-7.3911,-7.3911,-7.454,-7.4869,-7.4869,-7.4869,-7.454,-7.3911,-7.4569,-7.454,-10.1386,-10.1386,-10.1386,-10.1386,-10.1995,-10.2603,-10.3179,-10.3415,-10.4092,-10.5885,-10.5682,-10.487,-10.3889,-10.4092,-10.4193,-10.3686,-10.5614,-10.7509,-10.8219,-10.7712,-10.7306,-10.7576,-10.6494,-10.5885,-10.6392,-10.5986,-10.5479,-10.5073,-10.4295,-10.3585,-10.2908,-10.2603,-10.2502,-10.2502,-10.2502,-10.2502,-10.2502,-10.2502,-10.2502,-10.2502,-10.1995,-10.1318,-10.0506,-10.0303,-9.9525,-9.8307,-9.8104,-9.8003,-9.7901,-9.665,-9.5231,-9.3674,-9.1728,-9.0225,-8.9056,-8.7107,-8.5603,-8.441,-8.3749,-8.3079,-8.2427,-8.2427,-8.2427,-8.2427,-8.2427,-8.2427,-8.2301,-8.1676,-8.1487,-8.1095,-7.9669,-7.8722,-7.768,-7.6262,-7.5736,-7.5467,-7.4988,-7.4869,-7.4869,-7.4869,-7.4869,-7.4869,-7.4869,-7.4869,-7.4869,-7.4869,-7.4869,-7.4869,-7.4869,-7.4869,-7.4869,-7.4869,-7.4869,-7.4869,-7.4869,-7.4869,-7.4869,-7.4869,-7.4869,-7.4689,-7.43,-7.448,-7.4569,-7.4569,-7.4779,-7.4869,-7.4869,-7.4869,-7.4779,-7.4599,-7.4779,-7.4779,-10.1386,-10.1386,-10.1386,-10.1386,-10.2198,-10.3111,-10.3889,-10.4701,-10.5817,-10.7475,-10.7475,-10.6697,-10.5377,-10.5377,-10.5208,-10.4193,-10.5377,-10.6595,-10.7103,-10.6494,-10.5986,-10.5986,-10.5208,-10.487,-10.531,-10.4971,-10.4566,-10.4295,-10.3889,-10.328,-10.2502,-10.2502,-10.2502,-10.2502,-10.2502,-10.2502,-10.2502,-10.2502,-10.2502,-10.2502,-10.1792,-10.098,-10.0202,-9.9897,-9.9119,-9.8003,-9.8003,-9.8003,-9.7901,-9.6413,-9.5533,-9.4906,-9.276,-9.1492,-9.0667,-8.9169,-8.776,-8.643,-8.5662,-8.4987,-8.4411,-8.4091,-8.3995,-8.3995,-8.3995,-8.3995,-8.3899,-8.3483,-8.3226,-8.2812,-8.2064,-8.0834,-7.9213,-7.6783,-7.6096,-7.5707,-7.5018,-7.4869,-7.4869,-7.4869,-7.4869,-7.4869,-7.4869,-7.4869,-7.4869,-7.4869,-7.4869,-7.4869,-7.4869,-7.4869,-7.4869,-7.4869,-7.4869,-7.4869,-7.4869,-7.4869,-7.4869,-7.4869,-7.4869,-7.4869,-7.4869,-7.4869,-7.4869,-7.4869,-7.4869,-7.4869,-7.4869,-7.4869,-7.4869,-7.4869,-7.4869,-7.4869,-10.1487,-10.1487,-10.1487,-10.1487,-10.2603,-10.3889,-10.4769,-10.6595,-10.8321,-10.8997,-10.9268,-10.8591,-10.6494,-10.6595,-10.6494,-10.5005,-10.5377,-10.5817,-10.5817,-10.5107,-10.4566,-10.4566,-10.4498,-10.4498,-10.4566,-10.4498,-10.4193,-10.3618,-10.3517,-10.3212,-10.2502,-10.2502,-10.2502,-10.2502,-10.2502,-10.2502,-10.2502,-10.2401,-10.2401,-10.2401,-10.1589,-10.0811,-10.01,-9.9424,-9.8713,-9.8003,-9.8003,-9.8003,-9.7901,-9.648,-9.5838,-9.5669,-9.4248,-9.2641,-9.1268,-9.2094,-9.0365,-8.7728,-8.7787,-8.683,-8.5406,-8.473,-8.4442,-8.4442,-8.4442,-8.4442,-8.4442,-8.4442,-8.4022,-8.37,-8.4154,-8.2581,-8.0332,-7.7763,-7.6564,-7.5796,-7.5108,-7.4929,-7.4869,-7.4869,-7.4869,-7.4869,-7.4869,-7.4869,-7.4869,-7.4869,-7.4869,-7.4869,-7.4869,-7.4869,-7.4869,-7.4869,-7.4869,-7.4869,-7.4869,-7.4869,-7.4869,-7.4869,-7.4869,-7.4869,-7.4869,-7.4869,-7.4869,-7.4869,-7.4869,-7.4869,-7.4869,-7.4869,-7.4869,-7.4869,-7.4869,-7.4869,-10.2299,-10.2299,-10.2299,-10.2299,-10.3382,-10.4971,-10.69,-10.8118,-10.8997,-10.9166,-10.9674,-10.9708,-10.8693,-10.8084,-10.7306,-10.5817,-10.5716,-10.5817,-10.5817,-10.4701,-10.3787,-10.3787,-10.3314,-10.3212,-10.3787,-10.3314,-10.3111,-10.3585,-10.3077,-10.2705,-10.2502,-10.2502,-10.2502,-10.2502,-10.2502,-10.2502,-10.2502,-10.1893,-10.1589,-10.1589,-10.0202,-9.9491,-9.9322,-9.9153,-9.8713,-9.8003,-9.8003,-9.8003,-9.7935,-9.7022,-9.6311,-9.5702,-9.4823,-9.39,-9.2962,-9.2575,-9.1943,-9.1141,-8.9994,-8.9432,-8.8973,-8.8237,-8.8003,-8.8003,-8.8003,-8.8003,-8.8003,-8.8003,-8.7869,-8.7537,-8.6267,-8.556,-8.4243,-8.0497,-7.804,-7.6455,-7.5826,-7.5258,-7.4869,-7.4869,-7.4869,-7.4869,-7.4869,-7.4869,-7.4869,-7.4869,-7.4869,-7.4869,-7.4869,-7.4869,-7.4869,-7.4869,-7.4869,-7.4869,-7.4869,-7.4869,-7.4869,-7.4869,-7.4869,-7.4869,-7.4869,-7.4869,-7.4869,-7.4869,-7.4869,-7.4869,-7.4869,-7.4869,-7.4869,-7.4869,-7.4869,-7.4869,-10.2502,-10.2502,-10.2705,-10.3382,-10.4396,-10.5614,-10.7103,-10.8084,-10.8591,-10.8591,-10.9505,-11.0114,-10.9302,-10.8524,-10.7509,-10.602,-10.5513,-10.5174,-10.4802,-10.3787,-10.3077,-10.3077,-10.2705,-10.2705,-10.3009,-10.2705,-10.2705,-10.3009,-10.2705,-10.2502,-10.2502,-10.2502,-10.2502,-10.2502,-10.2502,-10.2502,-10.2502,-10.1792,-10.1386,-10.1386,-9.9829,-9.8916,-9.8578,-9.8578,-9.8375,-9.8003,-9.8003,-9.8003,-9.7935,-9.7191,-9.6447,-9.5736,-9.4992,-9.4248,-9.3537,-9.3131,-9.2962,-9.2827,-9.1677,-9.1034,-9.0628,-8.9884,-8.9376,-8.9072,-8.9072,-8.9072,-8.9072,-8.9072,-8.9072,-8.8869,-8.7969,-8.7143,-8.5959,-8.3864,-8.0647,-7.7654,-7.6214,-7.5377,-7.4869,-7.4869,-7.4869,-7.4869,-7.4869,-7.4869,-7.4869,-7.4869,-7.4869,-7.4869,-7.4869,-7.4869,-7.4869,-7.4869,-7.4869,-7.4869,-7.4869,-7.4869,-7.4869,-7.4869,-7.4869,-7.4869,-7.4869,-7.4869,-7.4869,-7.4869,-7.4869,-7.4869,-7.4869,-7.4869,-7.4869,-7.4869,-7.4869,-7.4869,-10.2502,-10.2603,-10.3009,-10.4363,-10.5276,-10.602,-10.69,-10.761,-10.8016,-10.8219,-10.92,-10.9911,-10.9099,-10.8321,-10.7407,-10.602,-10.5073,-10.4295,-10.3686,-10.2976,-10.2502,-10.2502,-10.2502,-10.2502,-10.2502,-10.2502,-10.2502,-10.2502,-10.2502,-10.2502,-10.2502,-10.2502,-10.2502,-10.2502,-10.2502,-10.2502,-10.2502,-10.1589,-10.1183,-10.1183,-9.9627,-9.8578,-9.8003,-9.8003,-9.8003,-9.8003,-9.8003,-9.8003,-9.7969,-9.7326,-9.6582,-9.5736,-9.5127,-9.4349,-9.3571,-9.3571,-9.3571,-9.347,-9.2692,-9.1913,-9.1169,-9.0459,-8.9681,-8.9072,-8.9072,-8.9072,-8.9072,-8.9072,-8.9072,-8.9072,-8.9072,-8.8027,-8.6872,-8.6573,-8.338,-7.9701,-7.7062,-7.5858,-7.5248,-7.4937,-7.4869,-7.4869,-7.4869,-7.4988,-7.5018,-7.4899,-7.4988,-7.5018,-7.4899,-7.4869,-7.4869,-7.4869,-7.4869,-7.4869,-7.4869,-7.4869,-7.4869,-7.4869,-7.4869,-7.4869,-7.4869,-7.4869,-7.4869,-7.4869,-7.4869,-7.4869,-7.4869,-7.4869,-7.4869,-7.4869,-7.4869,-7.4869,-10.2502,-10.2976,-10.3686,-10.4498,-10.5276,-10.6189,-10.7509,-10.7915,-10.8219,-10.8896,-10.92,-10.9099,-10.8321,-10.7576,-10.6798,-10.5919,-10.4599,-10.3686,-10.3585,-10.2976,-10.2502,-10.2502,-10.2502,-10.2502,-10.2502,-10.2502,-10.2502,-10.2502,-10.2502,-10.2502,-10.2502,-10.2502,-10.2502,-10.2502,-10.2502,-10.2502,-10.2502,-10.1115,-10.0405,-10.0337,-9.8882,-9.8104,-9.8003,-9.8003,-9.8003,-9.8003,-9.8003,-9.8003,-9.8003,-9.7901,-9.7056,-9.577,-9.5702,-9.4789,-9.3571,-9.3571,-9.3571,-9.347,-9.2692,-9.1913,-9.1169,-9.0459,-8.9681,-8.9072,-8.9072,-8.9072,-8.9072,-8.9072,-8.9072,-8.9072,-8.9072,-8.8959,-8.8381,-8.6872,-8.5555,-8.3613,-7.9732,-7.7891,-7.6568,-7.518,-7.4869,-7.4869,-7.4869,-7.5377,-7.5557,-7.4958,-7.5377,-7.5557,-7.4958,-7.4869,-7.4869,-7.4869,-7.4869,-7.4869,-7.4869,-7.4869,-7.4869,-7.4869,-7.4869,-7.4869,-7.4869,-7.4869,-7.4869,-7.4869,-7.4869,-7.4869,-7.4869,-7.4869,-7.4869,-7.4869,-7.4869,-7.4869,-10.2502,-10.3009,-10.3787,-10.4498,-10.5276,-10.6088,-10.7103,-10.7407,-10.7509,-10.7813,-10.7881,-10.7779,-10.7407,-10.6798,-10.5919,-10.4802,-10.399,-10.328,-10.2468,-10.2096,-10.169,-10.1318,-10.1216,-10.1419,-10.1792,-10.1893,-10.2096,-10.2502,-10.2502,-10.2502,-10.2502,-10.2502,-10.2502,-10.2502,-10.2502,-10.2502,-10.2502,-10.1014,-9.9796,-9.8984,-9.8307,-9.8003,-9.8003,-9.8003,-9.8003,-9.8003,-9.8003,-9.8003,-9.8003,-9.8003,-9.7123,-9.5804,-9.5804,-9.489,-9.3571,-9.3571,-9.3571,-9.3537,-9.3199,-9.2286,-9.1237,-9.0932,-9.0019,-8.9072,-8.9072,-8.9072,-8.9072,-8.9072,-8.9072,-8.9072,-8.9072,-8.9072,-8.8903,-8.8118,-8.7434,-8.6056,-8.2846,-8.0678,-7.8689,-7.666,-7.6538,-7.6477,-7.5644,-7.6006,-7.6305,-7.6006,-7.5946,-7.5796,-7.5497,-7.5108,-7.4869,-7.4869,-7.4869,-7.4869,-7.4869,-7.4869,-7.4869,-7.4869,-7.4869,-7.4869,-7.4869,-7.4869,-7.4869,-7.4869,-7.4869,-7.4869,-7.4869,-7.4869,-7.4869,-7.4869,-7.4869,-7.5078,-10.2502,-10.3009,-10.3686,-10.4295,-10.5107,-10.5919,-10.6494,-10.6798,-10.69,-10.69,-10.6798,-10.6595,-10.6392,-10.5885,-10.5005,-10.3585,-10.3179,-10.2603,-10.1284,-10.1081,-10.0878,-10.0303,-10.0235,-10.0506,-10.1284,-10.1386,-10.169,-10.2401,-10.2502,-10.2502,-10.2502,-10.2502,-10.2502,-10.2502,-10.2502,-10.2502,-10.2502,-10.1014,-9.9491,-9.8003,-9.8003,-9.8003,-9.8003,-9.8003,-9.8003,-9.8003,-9.8003,-9.8003,-9.8003,-9.8003,-9.7123,-9.5804,-9.6007,-9.506,-9.3605,-9.3808,-9.374,-9.3571,-9.3571,-9.259,-9.1305,-9.1305,-9.029,-8.9072,-8.9072,-8.9072,-8.9072,-8.9072,-8.9072,-8.9072,-8.9072,-8.9072,-8.9072,-8.9072,-8.8666,-8.7498,-8.4714,-8.227,-8.0103,-7.828,-7.8495,-7.8409,-7.6759,-7.718,-7.7524,-7.6914,-7.6574,-7.6275,-7.5946,-7.5467,-7.5078,-7.4899,-7.4869,-7.4869,-7.4869,-7.4869,-7.4869,-7.4869,-7.4869,-7.4958,-7.5138,-7.5138,-7.5198,-7.5377,-7.5377,-7.5288,-7.5138,-7.5138,-7.5228,-7.5377,-7.5198,-7.5497,-10.2502,-10.3009,-10.3585,-10.3618,-10.4701,-10.5817,-10.5817,-10.6392,-10.69,-10.69,-10.6325,-10.5614,-10.4904,-10.4769,-10.4295,-10.2806,-10.1995,-10.1183,-10.0405,-10.0303,-10.0235,-10.0235,-10.0235,-10.0506,-10.1284,-10.1386,-10.169,-10.2401,-10.2502,-10.2502,-10.2502,-10.2502,-10.2502,-10.2502,-10.2502,-10.2502,-10.2502,-10.1014,-9.9491,-9.8003,-9.8003,-9.8003,-9.8003,-9.8003,-9.8003,-9.8003,-9.8003,-9.8003,-9.8003,-9.8003,-9.7123,-9.5872,-9.6548,-9.5499,-9.3673,-9.4383,-9.4214,-9.3571,-9.3571,-9.259,-9.1305,-9.1305,-9.029,-8.9072,-8.9072,-8.9072,-8.9072,-8.9072,-8.9072,-8.9072,-8.9072,-8.9072,-8.9072,-8.9072,-8.9038,-8.7969,-8.4217,-8.1496,-7.9806,-7.9681,-8.0224,-8.0205,-7.8474,-7.9326,-7.9465,-7.7184,-7.7322,-7.7263,-7.6066,-7.5886,-7.5587,-7.4958,-7.4869,-7.4869,-7.4869,-7.4869,-7.4869,-7.4869,-7.4869,-7.5168,-7.5826,-7.5856,-7.6125,-7.6724,-7.6724,-7.6425,-7.5856,-7.5856,-7.6155,-7.6724,-7.6125,-7.6185,-10.2502,-10.2705,-10.3009,-10.3483,-10.399,-10.4498,-10.4971,-10.5276,-10.5479,-10.5479,-10.5276,-10.487,-10.4092,-10.3585,-10.2976,-10.1995,-10.1115,-10.0405,-9.9593,-9.9491,-9.9322,-9.8848,-9.9221,-9.9796,-10.0608,-10.1081,-10.169,-10.2401,-10.2502,-10.2502,-10.2502,-10.2502,-10.2502,-10.2502,-10.2502,-10.2299,-10.1792,-10.1216,-10.0202,-9.8713,-9.8713,-9.8476,-9.8003,-9.8003,-9.8003,-9.8003,-9.8003,-9.8003,-9.8003,-9.8003,-9.7394,-9.648,-9.6277,-9.5432,-9.4282,-9.4079,-9.3808,-9.3571,-9.3571,-9.2895,-9.1947,-9.144,-9.0628,-8.9715,-8.9241,-8.9072,-8.9072,-8.9072,-8.9072,-8.9072,-8.9072,-8.9072,-8.9072,-8.9072,-8.8734,-8.8047,-8.6612,-8.5668,-8.4581,-8.3061,-8.328,-8.3224,-8.1634,-8.1189,-8.0774,-7.9874,-7.8639,-7.7652,-7.7203,-7.6425,-7.5826,-7.5557,-7.5527,-7.5347,-7.4929,-7.5288,-7.5527,-7.5527,-7.5527,-7.5826,-7.6485,-7.6485,-7.6604,-7.6814,-7.7233,-7.7143,-7.6485,-7.6485,-7.6604,-7.6814,-7.6604,-7.6844,-10.2502,-10.2502,-10.2603,-10.3111,-10.3212,-10.3415,-10.4193,-10.4295,-10.4396,-10.4599,-10.4498,-10.4092,-10.3382,-10.2401,-10.1589,-10.1081,-10.0303,-9.9593,-9.8815,-9.8713,-9.8645,-9.8409,-9.8815,-9.9491,-10.0506,-10.1081,-10.169,-10.2401,-10.2502,-10.2502,-10.2502,-10.2502,-10.2502,-10.2502,-10.2502,-10.2096,-10.1386,-10.1386,-10.0777,-9.9457,-9.9221,-9.8848,-9.8375,-9.8104,-9.8003,-9.8003,-9.8003,-9.8003,-9.8003,-9.8003,-9.7563,-9.6819,-9.6345,-9.5567,-9.4654,-9.4146,-9.3808,-9.3571,-9.3571,-9.2895,-9.1947,-9.1474,-9.0628,-8.9748,-8.9241,-8.9072,-8.9072,-8.9072,-8.9072,-8.9072,-8.9072,-8.9072,-8.9072,-8.9072,-8.8734,-8.8361,-8.8361,-8.7989,-8.7171,-8.5578,-8.5815,-8.5755,-8.4063,-8.3451,-8.2956,-8.2391,-8.0873,-7.9606,-7.8798,-7.7941,-7.7089,-7.6315,-7.6215,-7.6036,-7.5557,-7.5946,-7.6215,-7.6215,-7.6215,-7.6485,-7.7143,-7.7173,-7.7263,-7.7472,-7.7921,-7.7921,-7.7502,-7.7263,-7.7263,-7.7502,-7.7502,-7.7951,0.0,0.0,0.0,-10.2502,-10.2502,-10.2705,-10.3382,-10.3517,-10.3686,-10.4464,-10.4058,-10.3314,-10.2603,-10.1216,-10.0235,-10.0235,-9.9559,-9.8815,-9.8138,-9.8037,-9.8307,-9.9051,-9.9153,-9.9762,-10.1284,-10.1386,-10.169,-10.2434,-10.2502,-10.2502,-10.2502,-10.2502,-10.2502,-10.2502,-10.2502,-10.2198,-10.1386,-10.1386,-10.1014,-10.0235,-9.9491,-9.9119,-9.9051,-9.8341,-9.8003,-9.8003,-9.8003,-9.8003,-9.8003,-9.8003,-9.7563,-9.692,-9.6853,-9.5973,-9.4721,-9.4687,-9.4214,-9.3571,-9.3571,-9.259,-9.1338,-9.1305,-9.0324,-8.9106,-8.9106,-8.9072,-8.9072,-8.9072,-8.9072,-8.9072,-8.9072,-8.9072,-8.9072,-8.9072,-8.9072,-8.9072,-8.9072,-8.7989,-8.6974,-8.6974,-8.755,-8.7509,-8.5788,-8.6052,-8.5935,-8.4314,-8.4059,-8.3159,-8.0786,-8.0425,-7.9533,-7.7184,-7.6844,-7.6844,-7.6814,-7.6844,-7.6844,-7.6844,-7.6844,-7.7143,-7.7801,-7.7831,-7.813,-7.8789,-7.8789,-7.8789,-7.8789,-7.816,-7.816,-7.8819,-7.8849,-7.9537,-10.2502,0.0,0.0,0.0,0.0,0.0,-10.1961,-10.1995,-10.2062,-10.2265,-10.2603,-10.2603,-10.1792,-10.0912,-10.0235,-10.0235,-9.9153,-9.8409,-9.8747,-9.8781,-9.9085,-9.9829,-10.0405,-10.0878,-10.1386,-10.1893,-10.2299,-10.2502,-10.2502,-10.2502,-10.2502,-10.2502,-10.2502,-10.2502,-10.2502,-10.2401,-10.2198,-10.2198,-10.1792,-10.1081,-10.0303,-9.9627,-9.9051,-9.8341,-9.8003,-9.8003,-9.8003,-9.8003,-9.8003,-9.8003,-9.7867,-9.7597,-9.6514,-9.5838,-9.5364,-9.4282,-9.3774,-9.3571,-9.3571,-9.2928,-9.2015,-9.1474,-9.0662,-8.9782,-8.9241,-8.9072,-8.9072,-8.9072,-8.9072,-8.9072,-8.9072,-8.9072,-8.9072,-8.9072,-8.9072,-8.9072,-8.9072,-8.8767,-8.8497,-8.8497,-8.8632,-8.8655,-8.8136,-8.722,-8.636,-8.5874,-8.482,-8.3802,-8.3063,-8.1506,-8.0161,-7.9465,-7.8316,-7.7352,-7.6874,-7.7263,-7.7532,-7.7532,-7.7532,-7.7831,-7.8489,-7.8519,-7.8609,-7.8789,-7.8789,-7.8789,-7.8789,-7.8609,-7.8878,-7.9537,-8.0016,-8.0434,-10.2502,-10.2502,-10.2502,-10.2502,0.0,0.0,-10.1284,-10.1115,-10.098,-10.1284,-10.1995,-10.2198,-10.1115,-10.0506,-10.0134,-9.9796,-9.9018,-9.8713,-9.9457,-9.9559,-9.9863,-10.0608,-10.1081,-10.1487,-10.1792,-10.2231,-10.2502,-10.2502,-10.2502,-10.2502,-10.2502,-10.2502,-10.2502,-10.2502,-10.2502,-10.2502,-10.2502,-10.2502,-10.2299,-10.1792,-10.1081,-10.0303,-9.9525,-9.8815,-9.8307,-9.8003,-9.8003,-9.8003,-9.8003,-9.8003,-9.7834,-9.7394,-9.5905,-9.533,-9.5195,-9.4011,-9.3571,-9.3571,-9.3571,-9.2861,-9.188,-9.144,-9.0594,-8.9647,-8.9207,-8.9072,-8.9072,-8.9072,-8.9072,-8.9072,-8.9072,-8.9072,-8.9072,-8.9072,-8.9072,-8.9072,-8.9072,-8.9072,-8.9072,-8.9072,-8.9072,-8.9072,-8.9072,-8.8233,-8.7587,-8.7587,-8.6786,-8.5874,-8.5133,-8.377,-8.2682,-8.1962,-8.0347,-7.9181,-7.8786,-7.8377,-7.822,-7.822,-7.822,-7.84,-7.8759,-7.8789,-7.8938,-7.9208,-7.8938,-7.8938,-7.9238,-7.9238,-7.9716,-8.0644,-8.1033,-8.1362,-10.2533,-10.2502,-10.2502,-10.2502,-10.1318,0.0,-10.1081,-10.0675,-10.0303,-10.1081,-10.1792,-10.1825,-10.0506,-10.0134,-9.9897,-9.9322,-9.9221,-9.9491,-10.0235,-10.0337,-10.0608,-10.1386,-10.1487,-10.1792,-10.2401,-10.2502,-10.2502,-10.2502,-10.2502,-10.2502,-10.2502,-10.2502,-10.2502,-10.2502,-10.2502,-10.2502,-10.2502,-10.2502,-10.2502,-10.2502,-10.1792,-10.1014,-10.0303,-9.9491,-9.8747,-9.8138,-9.8037,-9.8003,-9.8003,-9.7901,-9.7495,-9.6751,-9.5364,-9.4789,-9.462,-9.3842,-9.3571,-9.3571,-9.3571,-9.259,-9.1305,-9.1305,-9.029,-8.9072,-8.9072,-8.9072,-8.9072,-8.9072,-8.9072,-8.9072,-8.9072,-8.9072,-8.9072,-8.9072,-8.9072,-8.9072,-8.9072,-8.9072,-8.9072,-8.9072,-8.9072,-8.9072,-8.9072,-8.9072,-8.9072,-8.9072,-8.9072,-8.8552,-8.7024,-8.6633,-8.5935,-8.4442,-8.2692,-8.1714,-8.1777,-8.0392,-7.9453,-7.9328,-7.9328,-7.9215,-7.8998,-7.8998,-7.9297,-7.9926,-7.9327,-7.9357,-8.0045,-8.0045,-8.0644,-8.1781,-8.1871,-8.22,-10.2819,-10.2502,-10.2502,-10.2502,-10.1318,0.0,-10.0405,-9.9863,-9.9525,-10.0303,-10.054,-10.0608,-10.0303,-9.9728,-9.9457,-9.9931,-9.9999,-10.0303,-10.1081,-10.1183,-10.1419,-10.2198,-10.2299,-10.2299,-10.2502,-10.2502,-10.2502,-10.2502,-10.2502,-10.2502,-10.2502,-10.2502,-10.2502,-10.2502,-10.2502,-10.2502,-10.2502,-10.2502,-10.2502,-10.2502,-10.1792,-10.1284,-10.1081,-9.9728,-9.9018,-9.8848,-9.8273,-9.8003,-9.7969,-9.736,-9.7022,-9.6785,-9.5939,-9.5229,-9.462,-9.3842,-9.3571,-9.3571,-9.3571,-9.259,-9.1305,-9.1305,-9.029,-8.9072,-8.9072,-8.9072,-8.9072,-8.9072,-8.9072,-8.9072,-8.9072,-8.9072,-8.9072,-8.9072,-8.9072,-8.9072,-8.9072,-8.9072,-8.9072,-8.9072,-8.9072,-8.9072,-8.9072,-8.9072,-8.9072,-8.9072,-8.9072,-8.8959,-8.8643,-8.7411,-8.636,-8.6057,-8.4473,-8.3766,-8.4307,-8.4108,-8.3463,-8.2674,-8.2565,-8.1919,-8.0478,-8.0405,-8.0464,-8.0614,-8.0494,-8.0734,-8.1392,-8.1392,-8.1542,-8.1781,-8.232,-8.2649,-10.2725,-10.2502,-10.2502,-10.2502,-10.1622,0.0,0.0,-9.9931,-9.9762,-10.0134,-10.0235,-10.01,-9.9728,-9.9051,-9.8781,-9.9525,-9.966,-10.0202,-10.169,-10.1893,-10.2096,-10.2502,-10.2502,-10.2502,-10.2502,-10.2502,-10.2502,-10.2502,-10.2502,-10.2502,-10.2502,-10.2502,-10.2502,-10.2502,-10.2502,-10.2502,-10.2502,-10.2502,-10.2502,-10.2502,-10.2096,-10.1792,-10.1386,-10.0574,-9.9999,-9.9627,-9.8882,-9.8544,-9.8476,-9.7732,-9.7225,-9.6785,-9.5669,-9.5026,-9.462,-9.3842,-9.3571,-9.3537,-9.3131,-9.2252,-9.1237,-9.0865,-8.9985,-8.9072,-8.9072,-8.9072,-8.9072,-8.9072,-8.9072,-8.9072,-8.9072,-8.9072,-8.9072,-8.9072,-8.9072,-8.9072,-8.9072,-8.9072,-8.9072,-8.9072,-8.9072,-8.9072,-8.9072,-8.9072,-8.9072,-8.9072,-8.9072,-8.9072,-8.9072,-8.8381,-8.7929,-8.8296,-8.6798,-8.607,-8.6848,-8.6147,-8.5428,-8.4875,-8.4875,-8.4431,-8.3496,-8.2642,-8.1729,-8.0794,-8.1452,-8.1781,-8.1781,-8.211,-8.226,-8.229,-8.2589,-8.2844,-10.2695,-10.2502,-10.2502,-10.2502,-10.1893,-10.1183,0.0,0.0,0.0,-10.0405,-10.0202,-9.9863,-9.939,-9.8578,-9.8307,-9.9153,-9.9322,-10.01,-10.2198,-10.2401,-10.2299,-10.2502,-10.2502,-10.2502,-10.2502,-10.2502,-10.2502,-10.2502,-10.2502,-10.2502,-10.2502,-10.2502,-10.2502,-10.2502,-10.2502,-10.2502,-10.2502,-10.2502,-10.2502,-10.2502,-10.2502,-10.2198,-10.1589,-10.1487,-10.1014,-10.0405,-9.9491,-9.9085,-9.9051,-9.8307,-9.7664,-9.6954,-9.5499,-9.4823,-9.462,-9.3842,-9.3571,-9.347,-9.2692,-9.1913,-9.1169,-9.0459,-8.9681,-8.9072,-8.9072,-8.9072,-8.9072,-8.9072,-8.9072,-8.9072,-8.9072,-8.9072,-8.9072,-8.9072,-8.9072,-8.9072,-8.9072,-8.9072,-8.9072,-8.9072,-8.9072,-8.9072,-8.9072,-8.9072,-8.9072,-8.9072,-8.9072,-8.9072,-8.9072,-8.9207,-8.9545,-9.0154,-8.909,-8.8614,-8.9437,-8.8199,-8.7308,-8.7146,-8.721,-8.7144,-8.6815,-8.5096,-8.3164,-8.1257,-8.235,-8.2619,-8.1961,-8.2769,-8.3008,-8.2844,-8.2844,-8.2844,-10.3229,-10.2502,-10.2502,-10.2502,-10.1893,-10.1386,-10.1284,0.0,-10.0405,-10.1081,0.0,-9.939,-9.9999,0.0,0.0,-9.9863,-10.01,-10.0641,-10.2299,-10.1893,-10.1792,-10.2401,-10.2502,-10.2502,-10.2502,-10.2502,-10.2502,-10.2502,-10.2502,-10.2502,-10.2502,-10.2502,-10.2502,-10.2502,-10.2502,-10.2502,-10.2502,-10.2502,-10.2502,-10.2502,-10.2502,-10.2502,-10.2401,-10.169,-10.1386,-10.1183,-9.9728,-9.9085,-9.9051,-9.8307,-9.7969,-9.7732,-9.6244,-9.5296,-9.462,-9.3842,-9.3571,-9.347,-9.2692,-9.1913,-9.1169,-9.0459,-8.9681,-8.9072,-8.9072,-8.9072,-8.9072,-8.9072,-8.9072,-8.9072,-8.9072,-8.9072,-8.9072,-8.9072,-8.9072,-8.9072,-8.9072,-8.9072,-8.9072,-8.9072,-8.9072,-8.9072,-8.9072,-8.9072,-8.9072,-8.9072,-8.9072,-8.9072,-8.9072,-8.9681,-9.0121,-9.0188,-9.0591,-9.1209,-9.1926,-9.1842,-9.1329,-9.0409,-9.097,-9.062,-8.9026,-8.7231,-8.5108,-8.2635,-8.3247,-8.3307,-8.2649,-8.3876,-8.3906,-8.2844,-8.2844,-8.2844,-10.3073,-10.3103,-10.3501,-10.2725,-10.2927,-10.2885,-10.1708,-10.1115,-10.098,-10.1284,0.0,0.0,0.0,0.0,0.0,0.0,-9.9559,-10.01,-10.1589,-10.1183,-10.1014,-10.1792,-10.1419,-10.1318,-10.1792,-10.2231,-10.2502,-10.2502,-10.2502,-10.2502,-10.2502,-10.2502,-10.2502,-10.2502,-10.2502,-10.2502,-10.2502,-10.2502,-10.2502,-10.2502,-10.2502,-10.2502,-10.2502,-10.2198,-10.1995,-10.1995,-10.0405,-9.9762,-9.966,-9.8476,-9.8003,-9.7867,-9.6379,-9.5601,-9.5195,-9.4011,-9.3571,-9.3402,-9.2184,-9.1575,-9.1102,-8.9918,-8.9342,-8.9072,-8.9072,-8.9072,-8.9072,-8.9072,-8.9072,-8.9072,-8.9072,-8.9072,-8.9072,-8.9072,-8.9072,-8.9072,-8.9072,-8.9072,-8.9072,-8.9072,-8.9072,-8.9241,-8.9647,-8.9748,-8.9748,-8.9748,-9.0087,-9.0357,-9.0357,-9.0662,-9.1,-9.144,-9.2184,-9.2928,-9.3673,-9.374,-9.3747,-9.3719,-9.3591,-9.2775,-9.0946,-8.8691,-8.669,-8.4956,-8.4155,-8.3786,-8.3906,-8.4444,-8.4444,-8.3906,-8.3906,-8.3906,-10.3597,-10.3803,-10.4289,-10.2917,-10.332,-10.3604,-10.2111,-10.1893,-10.1893,-10.169,-10.0811,0.0,0.0,0.0,-9.8848,-9.9593,0.0,-10.01,-10.1183,-10.0709,-10.0405,-10.098,-10.0608,-10.0405,-10.1014,-10.1589,-10.1893,-10.1893,-10.2096,-10.2198,-10.2198,-10.2401,-10.2502,-10.2502,-10.2502,-10.2502,-10.2502,-10.2502,-10.2502,-10.2502,-10.2502,-10.2502,-10.2502,-10.2502,-10.2502,-10.2401,-10.0912,-10.0235,-10.01,-9.8612,-9.7867,-9.7563,-9.6311,-9.5669,-9.533,-9.4045,-9.3571,-9.3402,-9.2083,-9.1338,-9.0797,-8.9512,-8.9072,-8.9072,-8.9072,-8.9072,-8.9072,-8.9072,-8.9072,-8.9072,-8.9072,-8.9072,-8.9072,-8.9072,-8.9072,-8.9072,-8.9072,-8.9241,-8.9376,-8.9376,-8.9545,-8.985,-9.0425,-9.0324,-9.029,-9.0493,-9.0966,-9.1305,-9.1305,-9.1474,-9.188,-9.2658,-9.3436,-9.418,-9.4958,-9.4992,-9.533,-9.6041,-9.5601,-9.4467,-9.2671,-9.0318,-8.8354,-8.6742,-8.5077,-8.4414,-8.4714,-8.5073,-8.5162,-8.4983,-8.4803,-8.4714,-10.5331,-10.458,-10.4289,-10.2917,-10.2468,-10.2533,-10.2502,-10.3009,-10.3314,-10.2603,-10.2401,-10.2198,-10.1487,-10.0709,-10.0405,-10.1183,-10.1284,0.0,0.0,-10.0709,-10.0235,-10.0235,-10.0235,-10.0235,-10.0235,-10.0303,-10.0303,-10.0303,-10.098,-10.1386,-10.1386,-10.2096,-10.2502,-10.2502,-10.2502,-10.2502,-10.2502,-10.2502,-10.2502,-10.2502,-10.2502,-10.2502,-10.2502,-10.2502,-10.2502,-10.2401,-10.0912,-10.0235,-10.01,-9.8612,-9.7563,-9.6853,-9.6074,-9.5364,-9.4654,-9.3876,-9.3571,-9.347,-9.2658,-9.144,-9.0121,-8.9342,-8.9072,-8.9072,-8.9072,-8.9072,-8.9072,-8.9072,-8.9072,-8.9072,-8.9072,-8.9072,-8.9072,-8.9072,-8.9072,-8.9072,-8.9072,-8.9647,-9.0154,-9.0154,-9.0729,-9.1237,-9.1271,-9.0662,-9.0459,-9.1169,-9.1271,-9.1305,-9.1305,-9.1947,-9.2692,-9.347,-9.4214,-9.4958,-9.5702,-9.577,-9.6074,-9.6819,-9.6819,-9.604,-9.422,-9.2327,-9.0136,-8.759,-8.6304,-8.5342,-8.4714,-8.6,-8.627,-8.5641,-8.5013,-8.4714,-10.6697,-10.681,-10.6883,-10.446,-10.4995,-10.5581,-10.3694,-10.3787,-10.4092,-10.3382,-10.2468,-10.169,-10.1386,-10.0709,-10.0506,-10.1284,-10.1386,-10.1183,0.0,-9.9525,-9.8747,-9.8747,-9.9187,-9.9491,-9.9491,-9.9931,-10.0235,-10.0235,-10.0506,-10.0811,-10.1386,-10.1589,-10.1995,-10.2502,-10.2502,-10.2502,-10.2502,-10.2502,-10.2502,-10.2502,-10.2502,-10.2502,-10.2502,-10.2502,-10.2502,-10.2401,-10.0912,-10.0235,-10.01,-9.8612,-9.7563,-9.6819,-9.6074,-9.5364,-9.462,-9.3842,-9.3571,-9.347,-9.2692,-9.144,-9.0154,-8.9918,-8.9478,-8.9072,-8.9072,-8.9072,-8.9072,-8.9072,-8.9072,-8.9072,-8.9072,-8.9072,-8.9072,-8.9072,-8.9072,-8.9207,-8.9715,-9.0019,-9.0357,-9.0831,-9.1135,-9.1474,-9.1947,-9.1846,-9.1744,-9.2015,-9.2489,-9.2793,-9.2793,-9.347,-9.4045,-9.4315,-9.5432,-9.6244,-9.648,-9.6988,-9.6954,-9.621,-9.6616,-9.6405,-9.5278,-9.3528,-9.1933,-9.0683,-8.9066,-8.7948,-8.7347,-8.7796,-8.7885,-8.7646,-8.6988,-8.6449,-10.8618,-10.8481,-10.8526,-10.6296,-10.6503,-10.6693,-10.5161,-10.499,-10.4802,-10.3787,-10.3077,-10.2401,-10.1893,-10.1386,-10.1216,-10.169,-10.1792,-10.1419,0.0,-9.895,-9.8003,-9.8003,-9.8409,-9.8713,-9.8713,-9.9153,-9.9424,-9.9424,-9.966,-10.0134,-10.0912,-10.1183,-10.169,-10.2502,-10.2502,-10.2502,-10.2502,-10.2502,-10.2502,-10.2502,-10.2502,-10.2502,-10.2502,-10.2502,-10.2502,-10.2401,-10.0912,-10.0235,-10.01,-9.8612,-9.7563,-9.6819,-9.6074,-9.5364,-9.462,-9.3842,-9.3571,-9.347,-9.2692,-9.1609,-9.056,-9.029,-8.9681,-8.914,-8.941,-8.9309,-8.9309,-9.0391,-8.9918,-8.9342,-9.0391,-8.9884,-8.914,-8.941,-8.9478,-8.9613,-9.0121,-9.0628,-9.1135,-9.1609,-9.1913,-9.2252,-9.2759,-9.2827,-9.2827,-9.2827,-9.3267,-9.3571,-9.3571,-9.4011,-9.4518,-9.506,-9.5702,-9.621,-9.648,-9.7157,-9.7191,-9.6244,-9.6886,-9.7191,-9.6988,-9.4515,-9.3465,-9.4026,-9.0843,-8.939,-8.9741,-8.9023,-8.8693,-8.8663,-8.8245,-8.7676]},{"header":{"parameterUnit":"m.s-1","parameterCategory":1,"la1":30.6,"la2":29.2853,"lo1":-89.7004,"lo2":-87.6739,"dy":0.0162,"dx":0.0183,"nx":112,"ny":82,"refTime":"2024-04-08T06:00:00:Z","depth":0,"parameterNumber":3,"parameterNumberName":"V-component_of_WINDS"},"data":[0.0,0.0,0.0,0.0,0.0,0.0,0.0,0.0,0.0,0.0,0.0,0.0,0.0,0.0,0.0,0.0,0.0,0.0,0.0,0.0,0.0,0.0,0.0,0.0,0.0,0.0,0.0,0.0,0.0,0.0,0.0,0.0,0.0,0.0,0.0,0.0,0.0,0.0,0.0,0.0,0.0,0.0,0.0,0.0,0.0,0.0,0.0,0.0,0.0,0.0,0.0,0.0,0.0,0.0,0.0,0.0,0.0,0.0,0.0,0.0,0.0,0.0,0.0,0.0,0.0,0.0,0.0,0.0,0.0,0.0,0.0,0.0,0.0,0.0,0.0,0.0,0.0,0.0,0.0,0.0,0.0,0.0,0.0,0.0,0.0,0.0,0.0,0.0,0.0,0.0,5.8805,6.1517,6.5409,6.7794,6.7794,6.6112,6.3525,5.9985,0.0,0.0,0.0,0.0,0.0,0.0,0.0,0.0,0.0,0.0,0.0,0.0,0.0,0.0,0.0,0.0,0.0,0.0,0.0,0.0,0.0,0.0,0.0,0.0,0.0,0.0,0.0,0.0,0.0,0.0,0.0,0.0,0.0,0.0,0.0,0.0,0.0,0.0,0.0,0.0,0.0,0.0,0.0,0.0,0.0,0.0,0.0,0.0,0.0,0.0,0.0,0.0,0.0,0.0,0.0,0.0,0.0,0.0,0.0,0.0,0.0,0.0,0.0,0.0,0.0,0.0,0.0,0.0,0.0,0.0,0.0,0.0,0.0,0.0,0.0,0.0,0.0,0.0,0.0,0.0,0.0,0.0,0.0,0.0,0.0,0.0,0.0,0.0,0.0,0.0,0.0,0.0,0.0,0.0,0.0,0.0,0.0,0.0,0.0,0.0,0.0,0.0,0.0,0.0,5.9081,6.4128,6.6538,6.7794,6.7794,6.5434,6.3073,6.1065,0.0,0.0,0.0,0.0,0.0,0.0,0.0,0.0,0.0,0.0,0.0,0.0,0.0,0.0,0.0,0.0,0.0,0.0,0.0,0.0,0.0,0.0,0.0,0.0,0.0,0.0,0.0,0.0,0.0,0.0,0.0,0.0,0.0,0.0,0.0,0.0,0.0,0.0,0.0,0.0,0.0,0.0,0.0,0.0,0.0,0.0,0.0,0.0,0.0,0.0,0.0,0.0,0.0,0.0,0.0,0.0,0.0,0.0,0.0,0.0,0.0,0.0,0.0,0.0,0.0,0.0,0.0,0.0,0.0,0.0,0.0,0.0,0.0,0.0,0.0,0.0,0.0,0.0,0.0,0.0,0.0,0.0,0.0,0.0,0.0,0.0,0.0,0.0,0.0,0.0,0.0,0.0,0.0,0.0,0.0,0.0,0.0,0.0,0.0,0.0,0.0,0.0,0.0,5.9156,6.1843,6.6187,6.7618,6.8246,6.8246,6.5986,6.3601,6.1316,5.9106,0.0,0.0,0.0,0.0,0.0,0.0,0.0,0.0,0.0,0.0,0.0,0.0,0.0,0.0,0.0,0.0,0.0,0.0,0.0,0.0,0.0,0.0,0.0,0.0,0.0,0.0,0.0,0.0,0.0,0.0,0.0,0.0,0.0,0.0,0.0,0.0,0.0,0.0,0.0,0.0,0.0,0.0,0.0,0.0,0.0,0.0,0.0,0.0,0.0,0.0,0.0,0.0,0.0,0.0,0.0,0.0,0.0,0.0,0.0,0.0,0.0,0.0,0.0,0.0,0.0,0.0,0.0,0.0,0.0,0.0,0.0,0.0,0.0,0.0,0.0,0.0,0.0,0.0,0.0,0.0,0.0,0.0,0.0,0.0,0.0,0.0,0.0,0.0,0.0,0.0,0.0,0.0,0.0,0.0,0.0,0.0,0.0,0.0,0.0,0.0,0.0,0.0,6.1818,6.4203,6.7292,6.8095,6.8371,6.8246,6.6312,6.3977,6.1341,5.9106,0.0,0.0,0.0,0.0,0.0,0.0,0.0,0.0,0.0,0.0,0.0,0.0,0.0,0.0,0.0,0.0,0.0,0.0,0.0,0.0,0.0,0.0,0.0,0.0,0.0,0.0,0.0,0.0,0.0,0.0,0.0,0.0,0.0,0.0,0.0,0.0,0.0,0.0,0.0,0.0,0.0,0.0,0.0,0.0,0.0,0.0,0.0,0.0,0.0,0.0,0.0,0.0,0.0,0.0,0.0,0.0,0.0,0.0,0.0,0.0,0.0,0.0,0.0,0.0,0.0,0.0,0.0,0.0,0.0,0.0,0.0,0.0,0.0,0.0,0.0,0.0,0.0,0.0,0.0,0.0,0.0,0.0,0.0,0.0,0.0,0.0,0.0,0.0,0.0,0.0,0.0,0.0,0.0,0.0,0.0,0.0,0.0,0.0,0.0,0.0,0.0,0.0,6.1943,6.4505,6.6789,6.7518,6.7643,6.7141,6.5509,6.3576,6.1316,5.9106,0.0,0.0,0.0,0.0,0.0,0.0,0.0,0.0,0.0,0.0,0.0,0.0,0.0,0.0,0.0,0.0,0.0,0.0,0.0,0.0,0.0,0.0,0.0,0.0,0.0,0.0,0.0,0.0,0.0,0.0,0.0,0.0,0.0,0.0,0.0,0.0,0.0,0.0,0.0,0.0,0.0,0.0,0.0,0.0,0.0,0.0,0.0,0.0,0.0,0.0,0.0,0.0,0.0,0.0,0.0,0.0,0.0,0.0,0.0,0.0,0.0,0.0,0.0,0.0,0.0,0.0,0.0,0.0,0.0,0.0,0.0,0.0,0.0,0.0,0.0,0.0,0.0,0.0,0.0,0.0,0.0,0.0,0.0,0.0,0.0,0.0,0.0,0.0,0.0,0.0,0.0,0.0,0.0,0.0,0.0,0.0,0.0,0.0,0.0,0.0,0.0,0.0,6.2169,6.453,6.6739,6.7166,6.7066,6.6488,6.5233,6.3375,6.0814,0.0,0.0,0.0,0.0,0.0,0.0,0.0,0.0,0.0,0.0,0.0,0.0,0.0,0.0,0.0,0.0,0.0,0.0,0.0,0.0,0.0,0.0,0.0,0.0,0.0,0.0,0.0,0.0,0.0,0.0,0.0,0.0,0.0,0.0,0.0,0.0,0.0,0.0,0.0,0.0,0.0,0.0,0.0,0.0,0.0,0.0,0.0,0.0,0.0,0.0,0.0,0.0,0.0,0.0,0.0,0.0,0.0,0.0,0.0,0.0,0.0,0.0,0.0,0.0,0.0,0.0,0.0,0.0,0.0,0.0,0.0,0.0,0.0,0.0,0.0,0.0,0.0,0.0,0.0,0.0,0.0,0.0,0.0,0.0,0.0,0.0,0.0,0.0,0.0,0.0,0.0,0.0,0.0,0.0,0.0,0.0,0.0,0.0,0.0,0.0,0.0,0.0,6.0111,6.2295,6.4454,6.6488,6.6689,6.6463,6.5911,6.4856,6.3099,6.0487,0.0,0.0,0.0,0.0,0.0,0.0,0.0,0.0,0.0,0.0,0.0,0.0,0.0,0.0,0.0,0.0,0.0,0.0,0.0,0.0,0.0,0.0,0.0,0.0,0.0,0.0,0.0,0.0,0.0,0.0,0.0,0.0,0.0,0.0,0.0,0.0,0.0,0.0,0.0,0.0,0.0,0.0,0.0,0.0,0.0,0.0,0.0,0.0,0.0,0.0,0.0,0.0,0.0,0.0,0.0,0.0,0.0,0.0,0.0,0.0,0.0,0.0,0.0,0.0,0.0,0.0,0.0,0.0,0.0,0.0,0.0,0.0,0.0,0.0,0.0,0.0,0.0,0.0,0.0,0.0,0.0,0.0,0.0,0.0,0.0,0.0,0.0,0.0,0.0,0.0,0.0,0.0,0.0,0.0,0.0,0.0,0.0,0.0,0.0,0.0,0.0,0.0,6.0136,6.2295,6.4329,6.5936,6.6112,6.5886,6.5333,6.4304,6.2722,0.0,0.0,0.0,0.0,0.0,0.0,0.0,0.0,0.0,0.0,0.0,0.0,0.0,0.0,0.0,0.0,0.0,0.0,0.0,0.0,0.0,0.0,0.0,0.0,0.0,0.0,0.0,0.0,0.0,0.0,0.0,0.0,0.0,0.0,0.0,0.0,0.0,0.0,0.0,0.0,0.0,0.0,0.0,0.0,0.0,0.0,0.0,0.0,0.0,0.0,0.0,0.0,0.0,0.0,0.0,0.0,0.0,0.0,0.0,0.0,0.0,0.0,0.0,0.0,0.0,0.0,0.0,0.0,0.0,0.0,0.0,0.0,0.0,0.0,0.0,0.0,0.0,0.0,0.0,0.0,0.0,0.0,0.0,0.0,0.0,0.0,0.0,0.0,0.0,0.0,0.0,0.0,0.0,0.0,0.0,0.0,0.0,0.0,0.0,0.0,0.0,0.0,0.0,6.1291,6.3099,6.4731,6.5986,6.576,6.5308,6.4756,6.3701,6.2295,6.0437,0.0,0.0,0.0,0.0,0.0,0.0,0.0,0.0,0.0,0.0,0.0,0.0,0.0,0.0,0.0,0.0,0.0,0.0,0.0,0.0,0.0,0.0,0.0,0.0,0.0,0.0,0.0,0.0,0.0,0.0,0.0,0.0,0.0,0.0,0.0,0.0,0.0,0.0,0.0,0.0,0.0,0.0,0.0,0.0,0.0,0.0,0.0,0.0,0.0,0.0,0.0,0.0,0.0,0.0,0.0,0.0,0.0,0.0,0.0,0.0,0.0,0.0,0.0,0.0,0.0,0.0,0.0,0.0,0.0,0.0,0.0,0.0,0.0,0.0,0.0,0.0,0.0,0.0,0.0,0.0,0.0,0.0,0.0,0.0,0.0,0.0,0.0,0.0,0.0,0.0,0.0,0.0,0.0,0.0,0.0,0.0,0.0,0.0,0.0,0.0,0.0,0.0,6.1517,6.3124,6.458,6.566,6.5283,6.4831,6.4505,6.3676,6.2345,6.0437,0.0,0.0,0.0,0.0,0.0,0.0,0.0,0.0,0.0,0.0,0.0,0.0,0.0,0.0,0.0,0.0,0.0,0.0,0.0,0.0,0.0,0.0,0.0,0.0,0.0,0.0,0.0,0.0,0.0,0.0,0.0,0.0,0.0,0.0,0.0,0.0,0.0,0.0,0.0,0.0,0.0,0.0,0.0,0.0,0.0,0.0,0.0,0.0,0.0,0.0,0.0,0.0,0.0,0.0,0.0,0.0,0.0,0.0,0.0,0.0,0.0,0.0,0.0,0.0,0.0,0.0,0.0,0.0,0.0,0.0,0.0,0.0,0.0,0.0,0.0,0.0,0.0,0.0,0.0,0.0,0.0,0.0,0.0,0.0,0.0,0.0,0.0,0.0,0.0,0.0,0.0,0.0,0.0,0.0,0.0,0.0,0.0,0.0,0.0,0.0,0.0,0.0,6.119,6.2672,6.4078,6.5107,6.4731,6.4404,6.4404,6.3927,6.2697,6.0537,0.0,0.0,0.0,0.0,0.0,0.0,0.0,0.0,0.0,0.0,0.0,0.0,0.0,0.0,0.0,0.0,0.0,0.0,0.0,0.0,0.0,0.0,0.0,0.0,0.0,0.0,0.0,0.0,0.0,0.0,0.0,0.0,0.0,0.0,0.0,0.0,0.0,0.0,0.0,0.0,0.0,0.0,0.0,0.0,0.0,0.0,0.0,0.0,0.0,0.0,0.0,0.0,0.0,0.0,0.0,0.0,0.0,0.0,0.0,0.0,6.8773,6.7417,0.0,0.0,0.0,0.0,0.0,0.0,0.0,0.0,0.0,0.0,0.0,0.0,0.0,0.0,0.0,0.0,0.0,0.0,0.0,0.0,0.0,0.0,0.0,0.0,0.0,0.0,0.0,0.0,0.0,0.0,0.0,0.0,0.0,0.0,0.0,0.0,0.0,0.0,0.0,0.0,6.1692,6.2923,6.3927,6.458,6.4178,6.3852,6.3852,6.335,6.2446,6.109,6.0462,0.0,0.0,0.0,0.0,0.0,0.0,0.0,0.0,0.0,0.0,0.0,0.0,0.0,0.0,0.0,0.0,0.0,0.0,0.0,0.0,0.0,0.0,0.0,0.0,0.0,0.0,0.0,0.0,0.0,0.0,0.0,0.0,0.0,0.0,0.0,0.0,0.0,0.0,0.0,0.0,0.0,0.0,0.0,0.0,0.0,0.0,0.0,0.0,0.0,0.0,0.0,0.0,0.0,0.0,0.0,0.0,0.0,0.0,0.0,7.0129,6.9074,0.0,0.0,0.0,0.0,0.0,0.0,0.0,0.0,0.0,0.0,0.0,0.0,0.0,0.0,0.0,0.0,0.0,0.0,0.0,0.0,0.0,0.0,0.0,0.0,0.0,0.0,0.0,0.0,0.0,0.0,0.0,0.0,0.0,0.0,0.0,0.0,0.0,0.0,0.0,0.0,6.1893,6.2747,6.3475,6.4028,6.3601,6.34,6.3676,6.3174,6.2345,6.124,6.0638,0.0,0.0,0.0,0.0,0.0,0.0,0.0,0.0,0.0,0.0,0.0,0.0,0.0,0.0,0.0,0.0,0.0,0.0,0.0,0.0,0.0,0.0,0.0,0.0,0.0,0.0,0.0,0.0,0.0,0.0,0.0,0.0,0.0,0.0,0.0,0.0,0.0,0.0,0.0,0.0,0.0,0.0,0.0,0.0,0.0,0.0,0.0,0.0,0.0,0.0,0.0,0.0,0.0,7.1158,7.146,7.1661,7.1661,7.1912,7.2288,7.1384,7.0882,7.0656,7.0104,0.0,0.0,0.0,0.0,0.0,0.0,0.0,0.0,0.0,0.0,0.0,0.0,0.0,0.0,0.0,0.0,0.0,0.0,0.0,0.0,0.0,0.0,6.463,6.4731,6.468,6.4479,6.3952,0.0,0.0,0.0,0.0,0.0,0.0,0.0,0.0,0.0,0.0,0.0,6.1943,6.2496,6.2998,6.35,6.3124,6.3023,6.35,6.3099,6.2345,6.124,6.0738,5.9433,0.0,0.0,0.0,0.0,0.0,0.0,0.0,0.0,0.0,0.0,0.0,0.0,0.0,0.0,0.0,0.0,0.0,0.0,0.0,0.0,0.0,0.0,0.0,0.0,0.0,0.0,0.0,0.0,0.0,0.0,0.0,0.0,5.9651,6.0194,0.0,0.0,0.0,0.0,0.0,0.0,0.0,0.0,0.0,0.0,0.0,0.0,0.0,7.1058,7.1686,7.1209,7.146,7.2414,7.2489,7.3042,7.3971,7.3971,7.4021,7.4071,7.392,0.0,7.2364,7.1811,0.0,0.0,0.0,0.0,0.0,0.0,0.0,0.0,0.0,0.0,0.0,0.0,0.0,0.0,0.0,0.0,0.0,0.0,0.0,0.0,0.0,0.0,6.5308,6.5785,6.5534,6.5032,6.4479,6.3952,6.34,6.2822,6.2345,6.1793,0.0,0.0,0.0,0.0,0.0,0.0,6.1943,6.2496,6.2847,6.2923,6.2873,6.2873,6.2923,6.2873,6.2345,6.124,6.1115,5.9859,5.7148,5.6897,0.0,0.0,0.0,0.0,0.0,0.0,0.0,0.0,0.0,0.0,0.0,0.0,0.0,0.0,0.0,0.0,0.0,0.0,0.0,0.0,0.0,0.0,0.0,0.0,0.0,0.0,0.0,0.0,0.0,6.5063,6.5419,6.6015,6.7377,6.8365,0.0,0.0,0.0,0.0,0.0,0.0,0.0,0.0,0.0,7.3167,7.274,7.2765,7.3318,7.3067,7.3192,7.3669,7.3669,7.3946,7.4423,7.4423,7.4598,7.4875,7.4875,7.4774,7.4473,7.2991,7.1912,7.1058,0.0,0.0,0.0,0.0,6.7794,6.7744,6.7241,6.7066,6.689,6.586,0.0,0.0,0.0,0.0,0.0,0.0,0.0,6.4705,6.5183,6.5509,6.581,6.6061,6.5685,6.5233,6.4982,6.4279,6.3525,6.2948,6.2621,6.2295,6.1743,6.1441,0.0,0.0,0.0,6.1843,6.2395,6.2672,6.2822,6.2822,6.2822,6.2822,6.2822,6.2546,6.2019,6.124,6.0889,5.9734,5.76,5.7198,5.6269,0.0,0.0,0.0,0.0,0.0,0.0,0.0,0.0,0.0,0.0,0.0,0.0,0.0,0.0,0.0,0.0,0.0,0.0,0.0,0.0,0.0,0.0,0.0,0.0,0.0,0.0,0.0,0.0,6.9175,7.0129,7.0807,7.1158,7.1435,0.0,0.0,0.0,0.0,0.0,0.0,7.3343,7.3242,7.3544,7.4397,7.4171,7.4272,7.4824,7.4699,7.4623,7.4623,7.4623,7.4699,7.4824,7.4824,7.505,7.5452,7.5452,7.5678,7.5904,7.3971,7.2841,7.2188,7.0656,6.9727,6.9175,6.8622,6.8422,6.8396,6.812,6.802,6.7869,6.7015,6.6262,6.5609,6.5208,0.0,0.0,0.0,0.0,6.5283,6.5283,6.5584,6.586,6.5735,6.5383,6.5032,6.4906,6.4254,6.3576,6.3124,6.2923,6.2697,6.2295,6.2094,0.0,6.2195,6.2094,6.2195,6.2747,6.2822,6.2822,6.2822,6.2822,6.2772,6.2621,6.2245,6.1718,6.1014,6.0563,5.9583,5.7976,5.7474,5.6671,5.5415,0.0,0.0,0.0,0.0,0.0,0.0,0.0,0.0,0.0,0.0,0.0,0.0,0.0,0.0,0.0,0.0,0.0,0.0,0.0,0.0,0.0,0.0,0.0,0.0,0.0,0.0,0.0,0.0,0.0,7.2464,7.3544,0.0,0.0,0.0,0.0,7.3544,7.3996,7.4523,7.5075,7.4623,7.5075,7.6657,7.5703,7.5427,7.5979,7.5452,7.5201,7.5201,7.5201,7.5477,7.5979,7.5979,7.5979,7.6004,7.6004,7.603,7.5979,7.4799,7.3996,7.3393,7.2238,7.1435,7.0882,7.033,7.0129,6.9978,6.8949,6.8572,6.8321,6.6689,6.5434,6.4555,6.4505,6.4479,0.0,0.0,6.5258,6.5283,6.5283,6.5308,6.5208,6.468,6.453,6.4379,6.3877,6.3726,6.3676,6.3651,6.3199,6.2822,6.2797,0.0,6.2195,6.2697,6.2345,6.2195,6.2747,6.2822,6.2822,6.2822,6.2822,6.2621,6.2094,6.2019,6.1542,6.0437,6.0337,5.9583,5.7976,5.7876,5.7072,5.5415,5.4813,0.0,0.0,0.0,0.0,0.0,0.0,0.0,0.0,0.0,0.0,0.0,0.0,0.0,0.0,0.0,0.0,0.0,0.0,0.0,0.0,0.0,0.0,0.0,0.0,0.0,0.0,0.0,0.0,7.4749,7.5527,0.0,7.5226,7.5352,7.5377,7.5201,7.603,7.6607,7.6808,7.6984,7.7159,7.7411,7.7034,7.6908,7.7109,7.6908,7.6657,7.6281,7.6281,7.6205,7.6055,7.6055,7.6055,7.6055,7.6055,7.6055,7.5979,7.4875,7.4297,7.4021,7.2891,7.2087,7.1535,7.0983,7.0556,7.0204,6.9803,6.9451,6.8924,6.7618,6.6438,6.5534,6.5534,6.5534,6.5559,6.576,6.581,6.581,6.581,6.5559,6.5233,6.5032,6.4479,6.3927,6.3726,6.34,6.3149,6.3149,6.2973,6.2822,6.2822,6.2672,6.2596,6.2797,6.2672,6.2596,6.2797,6.2822,6.2822,6.2822,6.2822,6.2596,6.2044,6.1667,6.114,6.0362,5.9659,5.888,5.7951,5.7549,5.6897,5.5942,5.5039,5.507,0.0,0.0,0.0,0.0,0.0,0.0,0.0,0.0,0.0,0.0,0.0,0.0,0.0,0.0,0.0,0.0,0.0,0.0,0.0,0.0,0.0,0.0,0.0,0.0,0.0,7.392,7.5452,7.6733,7.7536,7.7862,7.7486,7.7637,7.7586,7.721,7.8038,7.8465,7.8289,7.8616,7.8741,7.8566,7.854,7.854,7.854,7.8365,7.7988,7.7436,7.726,7.6959,7.6607,7.6607,7.6507,7.6331,7.6331,7.623,7.5979,7.5075,7.4573,7.4297,7.3167,7.2514,7.2113,7.156,7.1008,7.0455,6.9903,6.9351,6.8748,6.7819,6.689,6.6112,6.6112,6.6112,6.6112,6.6112,6.5986,6.5785,6.5609,6.5157,6.4705,6.4505,6.3927,6.34,6.34,6.3099,6.2822,6.2822,6.2822,6.2822,6.2822,6.2822,6.2822,6.2822,6.2822,6.2822,6.2822,6.2822,6.2747,6.2571,6.2722,6.2446,6.1517,6.1291,6.0864,6.0085,5.9207,5.8478,5.7926,5.7349,5.6696,5.5942,5.4838,5.4791,5.5709,0.0,0.0,0.0,0.0,0.0,0.0,0.0,0.0,0.0,0.0,0.0,0.0,0.0,0.0,0.0,0.0,0.0,0.0,0.0,0.0,0.0,0.0,0.0,7.3795,7.5126,7.6783,7.8415,7.962,8.0273,8.0273,8.0775,8.0624,7.9545,7.9997,8.0072,7.952,7.9495,7.9746,8.0248,8.0273,8.0248,8.0248,7.9695,7.9118,7.854,7.7988,7.7712,7.7712,7.7687,7.7385,7.6883,7.6858,7.6557,7.6004,7.5477,7.49,7.4297,7.3192,7.274,7.2665,7.2113,7.1535,7.0832,6.92,6.8296,6.7744,6.7191,6.6614,6.6137,6.6112,6.6112,6.6112,6.6112,6.5735,6.5183,6.463,6.4103,6.3576,6.2998,6.2847,6.2822,6.2822,6.2822,6.2822,6.2822,6.2822,6.2822,6.2822,6.2822,6.2822,6.2822,6.2822,0.0,6.2822,6.2822,6.2621,6.2094,6.2496,6.2144,6.0487,6.0864,6.0688,5.9558,5.8981,5.8453,5.7926,5.7323,5.6495,5.539,5.4356,5.3526,5.2973,0.0,0.0,0.0,0.0,0.0,0.0,0.0,0.0,0.0,0.0,0.0,0.0,0.0,0.0,0.0,0.0,0.0,0.0,0.0,0.0,0.0,7.5829,7.6733,7.6582,7.7662,7.9068,8.07,8.1553,8.183,8.1403,8.188,8.193,8.1202,8.2031,8.2357,8.1805,8.2156,8.2056,8.1378,8.1378,8.1177,8.08,8.0273,7.9695,7.9143,7.8566,7.8088,7.7687,7.7285,7.7009,7.6858,7.6456,7.6205,7.6004,7.5477,7.49,7.4347,7.3644,7.3092,7.2665,7.2113,7.1309,7.0355,6.9501,6.8848,6.8296,6.7744,6.7191,6.6664,6.6237,6.6112,6.6112,6.6112,6.6011,6.576,6.5208,6.4655,6.4128,6.3576,6.3124,6.2822,6.2822,6.2822,6.2822,6.2822,6.2822,6.2822,6.2822,6.2822,6.2822,6.2822,6.2822,6.2822,6.2822,6.2822,6.2772,6.2621,6.2747,6.232,6.104,6.109,6.0688,5.9558,5.8629,5.8052,5.7901,5.6972,5.5917,5.4813,5.5743,5.5663,0.0,0.0,0.0,0.0,0.0,0.0,0.0,0.0,0.0,0.0,0.0,0.0,0.0,0.0,0.0,0.0,0.0,0.0,0.0,0.0,0.0,0.0,7.7511,7.8992,7.9695,8.0348,8.1277,8.2683,8.3361,8.3562,8.3236,8.3914,8.3989,8.2934,8.3914,8.4165,8.3412,8.3663,8.3537,8.2884,8.2859,8.2608,8.2056,8.1528,8.0951,8.0398,7.9595,7.9068,7.8741,7.8189,7.7662,7.721,7.6883,7.6482,7.6004,7.5477,7.505,7.4674,0.0,0.0,0.0,0.0,7.1008,7.0154,6.9376,6.8748,6.8196,6.7643,6.7066,6.6564,6.6212,6.6112,6.6112,6.6112,6.5785,6.5358,6.5032,6.4379,6.3701,6.34,6.3073,6.2822,6.2822,6.2822,6.2822,6.2822,6.2822,0.0,6.2822,6.2822,6.2822,6.2822,6.2822,6.2822,6.2822,6.2822,6.2747,6.2496,6.2697,6.227,6.0939,6.104,0.0,0.0,0.0,5.8027,5.7549,5.647,0.0,0.0,0.0,5.5503,5.5064,5.7358,0.0,0.0,5.9346,6.0872,0.0,0.0,0.0,0.0,0.0,0.0,0.0,0.0,0.0,0.0,0.0,0.0,0.0,0.0,0.0,0.0,7.9068,8.1076,8.2734,8.306,8.3487,8.4491,8.5044,8.532,8.5395,8.6249,8.6174,8.4717,8.5496,8.5571,8.4567,8.4491,0.0,0.0,0.0,8.414,8.3587,8.2985,8.2407,8.1905,8.075,8.0223,8.0198,7.957,7.8716,7.7712,7.7637,7.7009,7.603,7.5527,7.5301,7.5126,7.4021,7.3192,7.2514,7.146,7.0706,7.0029,6.9049,0.0,0.0,6.7267,6.6714,6.6287,6.6162,6.6061,6.6011,6.6011,6.5283,6.4454,6.4404,6.3651,6.2898,6.2847,6.2822,6.2822,6.2822,6.2822,6.2822,6.2822,6.2822,6.2822,6.2822,6.2822,6.2822,6.2822,6.2822,6.2797,6.2747,6.2797,6.2621,6.2069,6.2446,0.0,6.0537,6.0839,6.0638,5.9558,5.8956,5.8127,5.6997,5.5942,5.539,5.539,5.4411,5.411,5.4632,5.6598,5.8365,5.9838,6.0503,6.1966,0.0,0.0,0.0,0.0,0.0,0.0,0.0,0.0,0.0,0.0,0.0,0.0,0.0,0.0,0.0,7.9394,8.1051,8.2784,8.4441,8.5445,8.6048,8.6274,8.6425,8.6625,8.7077,8.6927,8.6625,8.6349,8.6098,8.5922,8.5671,8.5671,8.547,8.4993,8.4968,8.4717,8.4165,8.316,8.2608,8.2483,8.0951,0.0,8.0173,7.9168,7.834,7.7687,7.7235,7.6657,7.6055,7.5929,7.5628,7.5126,7.4021,7.2966,7.1987,7.1334,7.0455,6.9577,6.9351,6.9225,6.8949,6.797,6.7568,6.7292,6.6388,6.581,0.0,6.5434,6.4982,6.4379,6.3952,6.3676,6.34,6.2948,6.2822,6.2822,6.2822,6.2822,6.2822,6.2822,6.2822,6.2822,6.2822,6.2822,6.2822,6.2822,6.2822,6.2672,6.222,6.2546,6.2621,6.2069,6.2094,6.1843,6.109,6.0688,6.0211,5.9533,5.8604,5.7549,5.642,5.5742,5.539,5.539,5.5164,5.4888,5.4561,5.5013,5.6841,5.9838,6.175,6.3087,0.0,0.0,0.0,0.0,0.0,0.0,0.0,0.0,0.0,0.0,0.0,7.7787,7.8088,0.0,8.0147,8.1252,8.2834,8.4341,8.542,8.6525,8.7178,8.7178,8.7178,8.7278,8.758,8.7605,8.7379,8.6851,8.6776,8.6575,8.6023,8.5998,8.5847,8.5571,8.5571,8.532,8.4742,8.3914,8.3361,8.306,8.1679,8.0876,8.0599,7.9746,7.8766,7.7687,7.7411,7.6808,7.6055,7.6055,7.5728,7.5151,7.4322,7.3142,7.1836,7.1284,7.038,6.9361,6.9361,6.9074,6.8522,6.797,6.7417,6.684,6.6287,6.5735,6.5283,6.5283,6.4705,6.4028,6.3751,6.3475,6.3199,6.2898,6.2822,6.2822,6.2822,6.2822,6.2822,6.2822,6.2822,6.2822,6.2822,6.2822,6.2822,6.2822,6.2822,6.2621,6.2069,6.2245,6.2195,6.1642,6.1592,6.1366,6.0788,6.0236,5.9684,5.9131,5.8353,5.7524,5.6671,5.6093,5.5792,5.5792,5.5541,5.5867,5.6714,5.5864,5.7123,6.028,6.0489,6.1817,0.0,0.0,0.0,0.0,0.0,0.0,0.0,7.282,7.3687,7.6781,7.8164,7.9068,7.9746,8.0775,8.1855,8.296,8.4416,8.5596,8.6349,8.7203,8.778,8.7931,8.7856,8.778,8.7931,8.8132,8.7931,8.7027,8.7178,8.6927,8.6073,8.5998,8.5998,8.5998,8.5998,8.5772,8.532,8.4742,8.424,8.3788,8.2558,8.1704,8.1152,8.0499,7.9294,7.7687,7.7461,7.6883,7.6055,7.6055,7.5728,7.5176,7.4623,7.3393,7.1836,7.1284,7.033,6.9185,6.9185,6.8622,6.7769,6.7668,6.7015,6.6262,6.6137,6.5735,6.5258,6.5157,6.4429,6.3676,6.355,6.3174,6.2822,6.2822,6.2822,6.2822,6.2822,6.2822,6.2822,6.2822,6.2822,6.2822,6.2822,6.2822,6.2822,6.2822,6.2747,6.2471,6.1918,6.1843,6.1642,6.1065,6.1014,6.0738,6.006,5.9583,5.9056,5.8428,5.7976,5.7474,5.6897,5.6344,5.6093,5.6219,5.5666,5.6356,5.8209,5.6719,5.7302,5.9929,5.8273,5.9629,6.0123,6.2029,6.509,7.0124,6.9743,6.9667,0.0,7.4731,7.4328,7.8353,7.9595,8.0323,8.1353,8.2457,8.3587,8.4667,8.547,8.6425,8.7956,8.8283,8.8559,8.9036,8.8684,8.8559,8.9036,8.8258,8.763,8.7529,8.6676,8.6148,8.5998,8.5998,8.5998,8.5998,8.5998,8.5998,8.5922,8.532,8.4933,8.4858,8.3336,8.2282,8.1679,8.0675,7.9294,7.7637,7.6657,7.618,7.6055,7.6055,7.5728,7.5176,7.4623,7.3393,7.1836,7.1284,7.0079,6.8723,6.8723,6.8321,6.7719,6.7216,6.699,6.6789,6.6262,6.5735,6.5183,6.4705,6.4128,6.3576,6.3048,6.2873,6.2822,6.2822,6.2822,6.2822,6.2822,6.2822,6.2822,6.2822,6.2822,6.2822,6.2822,6.2822,6.2822,6.2822,6.2395,6.1893,6.1341,6.1266,6.1065,6.0462,6.0412,6.001,5.8981,5.8805,5.8328,5.7298,5.7173,5.6872,5.6319,5.5767,5.5717,5.6194,5.5666,5.5559,5.5825,5.5143,5.5468,5.677,5.6027,5.7862,5.918,6.0032,6.1581,6.4156,6.4061,6.4992,7.1423,7.2508,7.386,7.9181,8.1302,8.2457,8.3537,8.4416,8.532,8.6399,8.7077,8.768,8.8383,8.8458,8.8308,8.7881,8.7931,8.8283,8.9212,8.886,8.8458,8.8132,8.7354,8.6776,8.645,8.6174,8.5847,8.5496,8.5822,8.5847,8.5496,8.4968,8.4642,8.4642,8.296,8.188,8.1328,8.0574,7.9294,7.7637,7.6532,7.6055,7.6055,7.6055,7.5552,7.4699,7.4146,7.2916,7.141,7.1158,7.0029,6.8622,6.8622,6.8045,6.7292,6.7041,6.6739,6.6438,6.6187,6.5509,6.4756,6.453,6.3852,6.3124,6.2898,6.2822,6.2822,6.2822,6.2822,6.2822,6.2822,6.2822,6.2822,6.2822,6.2822,6.2822,6.2822,6.2571,6.2345,6.2345,6.2144,6.1692,6.0788,6.0688,6.0462,5.991,5.9834,5.9659,5.9207,5.888,5.8353,5.7575,5.7223,5.6796,5.6244,5.5691,5.5491,5.5717,5.5189,5.5431,5.6504,5.5865,5.5836,5.6357,5.571,5.6313,5.918,5.918,5.9481,6.064,6.0526,6.1901,6.868,7.0448,7.2279,7.8112,8.0356,8.1796,8.3647,8.4638,8.5633,8.7365,8.8107,8.8458,8.8458,8.8207,8.7605,8.645,8.6425,8.6927,8.8032,8.8534,8.8609,8.8032,8.7605,8.7128,8.66,8.6199,8.5822,8.5395,8.5772,8.5747,8.5144,8.4742,8.4466,8.4315,8.2784,8.1754,8.1202,8.0047,7.8867,7.7637,7.6532,7.6055,7.6055,7.6055,7.5402,7.4372,7.3971,7.269,7.1083,7.1083,6.9953,6.8396,6.8396,6.7668,6.6739,6.6739,6.6463,6.6112,6.6112,6.5559,6.4856,6.4555,6.3902,6.3199,6.2898,6.2822,6.2822,6.2822,6.2822,6.2822,6.2822,6.2822,6.2822,6.2822,6.2822,6.2822,6.2822,6.2496,6.2119,6.1818,6.1768,6.1416,6.0437,6.0186,5.9935,5.9533,5.9483,5.9382,5.9081,5.8704,5.8202,5.7474,5.7047,5.662,5.6219,5.5691,5.539,5.539,5.4838,5.514,5.6295,5.581,5.5523,5.5408,5.4924,5.4982,5.918,5.918,5.9908,6.3114,6.2464,6.2823,6.9467,6.9544,6.9484,7.4005,7.5304,7.6833,8.0603,8.2133,8.3808,8.7123,8.8107,8.8458,8.8458,8.7529,8.6425,8.532,8.424,8.4064,8.5144,8.6726,8.7429,8.6877,8.6801,8.66,8.6073,8.5998,8.5998,8.5998,8.5998,8.5747,8.5144,8.5144,8.4818,8.4315,8.3186,8.2332,8.1679,7.8992,7.7762,7.7637,7.6532,7.6055,7.6055,7.6055,7.5402,7.4423,7.4397,7.3042,7.1083,7.1083,6.9702,6.7819,6.7819,6.7091,6.6137,6.6137,6.6137,6.6112,6.6112,6.6086,6.5835,6.4781,6.4454,6.4178,6.3099,6.2822,6.2822,6.2822,6.2822,6.2822,6.2822,6.2822,6.2822,6.2822,6.2822,6.2822,6.2822,6.2822,6.2446,6.1366,6.1215,6.0989,6.0387,5.9859,5.9508,5.9483,5.9483,5.9081,5.8027,5.7926,5.7449,5.6319,5.6244,5.6219,5.6219,5.5691,5.539,5.539,5.4838,5.4356,5.3803,5.3778,5.3501,5.3023,5.2998,5.3878,5.9453,5.959,6.005,6.2,6.1963,6.2904,6.8319,6.9399,7.0377,7.4436,7.5058,7.5457,7.7441,7.7307,7.7724,8.0399,8.2864,8.4672,8.5049,8.4633,8.3986,8.3595,8.1934,8.1125,8.1792,8.4391,8.6349,8.7253,8.7002,8.6701,8.6525,8.6174,8.5671,8.4918,8.5596,8.5395,8.4064,8.4416,8.4315,8.3763,8.2282,8.0901,7.9595,7.8289,7.7511,7.7109,7.6381,7.6055,7.603,7.5653,7.5075,7.4347,7.3594,7.2389,7.1033,7.0681,6.9376,6.7794,6.7794,6.7066,6.6112,6.6112,6.6112,6.6112,6.6112,6.586,6.5409,6.468,6.4228,6.3776,6.3023,6.2822,6.2822,6.2822,6.2822,6.2822,6.2822,6.2822,6.2822,6.2822,6.2822,6.2822,6.2822,6.2521,6.1893,6.0788,6.0286,5.9985,5.9809,5.9608,5.9483,5.9483,5.9483,5.9207,5.8504,5.8102,5.7575,5.6796,5.642,5.6219,5.6219,5.5691,5.5214,5.4863,5.4285,5.3733,5.3181,5.4312,5.4167,5.2929,5.4055,5.4231,5.9629,5.9922,6.0332,6.1426,6.207,6.3365,6.6747,6.8023,6.912,7.1356,7.1535,7.1687,7.2872,7.2621,7.3218,7.5808,7.8115,8.0025,8.0702,8.1054,8.1173,8.0989,8.0393,8.0196,8.0715,8.2708,8.4642,8.6324,8.6274,8.6274,8.65,8.6174,8.5671,8.4918,8.5646,8.5395,8.4089,8.424,8.3738,8.2608,8.1328,7.9972,7.8515,7.7963,7.7411,7.6833,7.6281,7.6055,7.603,7.5678,7.5101,7.4347,7.3619,7.2414,7.1033,7.0681,6.9376,6.7794,6.7794,6.7191,6.6388,6.6187,6.6262,6.6388,6.6187,6.5735,6.5183,6.463,6.4103,6.355,6.2973,6.2822,6.2822,6.2822,6.2822,6.2822,6.2822,6.2822,6.2822,6.2822,6.2822,6.2822,6.2822,6.222,6.1391,6.0462,5.9859,5.9483,5.9483,5.9483,5.9483,5.9483,5.9483,5.9207,5.8478,5.8102,5.7575,5.6796,5.642,5.6219,5.6219,5.5867,5.534,5.4587,5.421,5.3658,5.2929,5.3987,5.392,5.2929,5.3987,5.392,5.9746,6.0215,6.0742,6.164,6.2812,6.3965,6.4765,6.5566,6.5879,6.5058,6.5117,6.5801,6.7231,6.8244,6.9867,7.2986,7.4145,7.4864,7.578,7.7282,7.8219,7.7742,7.9693,8.1166,8.1542,8.1617,8.2293,8.3946,8.4707,8.5395,8.5998,8.5998,8.5998,8.5922,8.5998,8.5722,8.5008,8.4491,8.316,8.1026,8.0449,7.957,7.8465,7.7913,7.736,7.6808,7.6281,7.6055,7.6153,7.6004,7.5352,7.4397,7.4322,7.2966,7.1083,7.1008,6.9652,6.7794,6.7769,6.7392,6.684,6.6287,6.6488,6.684,6.6287,6.5735,6.5183,6.463,6.4103,6.355,6.2973,6.2822,6.2822,6.2822,6.2822,6.2822,6.2822,6.2822,6.2822,6.2822,6.2822,6.2822,6.2797,6.1893,6.0989,6.0412,5.9859,5.9483,5.9483,5.9483,5.9483,5.9483,5.9483,5.9056,5.8001,5.7901,5.7424,5.6269,5.6219,5.6219,5.6219,5.6219,5.5691,5.4587,5.4561,5.4034,5.2929,5.2929,5.2929,5.2929,5.2929,5.2929,6.0449,6.1308,6.2187,6.334,6.414,6.4668,6.4883,6.4883,6.4648,6.414,6.3047,6.2403,6.3083,6.2678,6.3244,6.6224,6.9303,7.1804,7.341,7.6475,7.7815,7.5741,7.8514,7.9907,7.8462,7.8678,7.9401,8.0669,8.3042,8.4968,8.5922,8.5998,8.5822,8.5395,8.5772,8.5521,8.4541,8.3562,8.2407,8.1026,8.0047,7.8992,7.7888,7.7335,7.6783,7.6256,7.6105,7.6055,7.5979,7.5176,7.4674,7.4297,7.3042,7.1937,7.0983,7.0154,6.8999,6.7744,6.7317,6.6815,6.6312,6.6162,6.6212,6.6312,6.6162,6.5735,6.5183,6.463,6.4103,6.355,6.2973,6.2822,6.2822,6.2822,6.2822,6.2822,6.2822,6.2822,6.2822,6.2822,6.2822,6.2697,6.2295,6.1642,6.0989,6.0412,5.9859,5.9483,5.9483,5.9483,5.9483,5.9483,5.9483,5.9056,5.8001,5.7901,5.7424,5.6269,5.6219,5.6219,5.6219,5.6219,5.5691,5.4587,5.4561,5.4034,5.2929,5.2929,5.2929,5.2929,5.2929,5.2929,6.1601,6.2422,6.3223,6.4316,6.4765,6.4883,6.4707,6.4316,6.3691,6.2519,6.1484,6.0683,6.039,5.9883,6.0332,6.2754,6.5288,6.77,6.9899,7.3071,7.4898,7.396,7.6765,7.8187,7.6547,7.6616,7.7146,7.7701,8.0572,8.267,8.3797,8.525,8.5847,8.5546,8.5822,8.5345,8.3989,8.2859,8.1754,8.065,7.9545,7.854,7.7687,7.7134,7.6582,7.6055,7.6055,7.6055,7.5979,7.5126,7.4649,7.4272,7.2841,7.1786,7.0983,7.0129,6.8949,6.7769,6.7442,6.6789,6.6112,6.6112,6.6287,6.6438,6.6187,6.5735,6.5183,6.463,6.4103,6.355,6.2973,6.2822,6.2822,6.2822,6.2822,6.2822,6.2822,6.2822,6.2822,6.2822,6.2822,6.2571,6.1793,6.1391,6.0914,6.0085,5.9684,5.9483,5.9483,5.9483,5.9483,5.9483,5.9282,5.8805,5.7976,5.7675,5.7148,5.6269,5.6219,5.6219,5.6219,5.6219,5.5817,5.4938,5.4687,5.4135,5.3256,5.303,5.2929,5.2929,5.2929,5.2929,6.2871,6.3555,6.4101,6.4824,6.5,6.4824,6.4258,6.3672,6.2695,6.0683,6.0156,5.9746,5.8711,5.8828,5.9707,6.1601,6.2578,6.4082,6.6758,6.9535,7.1431,7.2224,7.5139,7.6526,7.5212,7.5004,7.5146,7.5176,7.7353,7.9364,8.116,8.4186,8.5998,8.5998,8.5922,8.5169,8.3612,8.2407,8.1277,8.0198,7.8992,7.8114,7.7561,7.7009,7.6507,7.6055,7.6055,7.6055,7.6004,7.5477,7.49,7.4297,7.3167,7.2062,7.1008,7.038,6.915,6.7794,6.7719,6.699,6.6112,6.6112,6.6438,6.6764,6.6262,6.5735,6.5183,6.463,6.4103,6.355,6.2973,6.2822,6.2822,6.2822,6.2822,6.2822,6.2822,6.2822,6.2822,6.2822,6.2822,6.2471,6.1366,6.119,6.0788,5.9659,5.9483,5.9483,5.9483,5.9483,5.9458,5.9408,5.8981,5.8453,5.7826,5.7323,5.6796,5.6244,5.6219,5.6219,5.6219,5.6143,5.5842,5.529,5.4737,5.416,5.3607,5.3155,5.2929,5.2929,5.2929,5.2929,6.3906,6.4668,6.5293,6.543,6.5234,6.4648,6.3496,6.2109,6.0683,5.9629,5.8828,5.8379,5.8476,5.8594,5.957,6.2344,6.3223,6.4726,6.8008,7.1226,7.2533,7.0273,7.4864,7.695,7.3696,7.3261,7.3215,7.2855,7.3362,7.5833,8.0953,8.4186,8.5998,8.5998,8.5571,8.4918,8.4165,8.2608,8.1277,8.0198,7.8616,7.7561,7.7009,7.6456,7.6155,7.6055,7.6055,7.6055,7.6004,7.5477,7.49,7.4297,7.3167,7.2062,7.0958,6.9953,6.8823,6.7744,6.7267,6.6689,6.6112,6.6112,6.6187,6.6237,6.6137,6.5735,6.5183,6.463,6.4103,6.355,6.2973,6.2822,6.2822,6.2822,6.2822,6.2822,6.2822,6.2822,6.2822,6.2822,6.2822,6.2471,6.1366,6.119,6.0788,5.9659,5.9483,5.9483,5.9483,5.9483,5.9332,5.8905,5.878,5.8303,5.7273,5.7097,5.6796,5.6244,5.6219,5.6219,5.6219,5.5767,5.5265,5.4712,5.416,5.3582,5.3055,5.298,5.2929,5.2929,5.2929,5.2929,6.5058,6.5586,6.5918,6.5918,6.5117,6.4023,6.293,6.1367,5.9805,5.873,5.832,5.8203,5.8203,5.8555,5.957,6.166,6.2578,6.4043,6.7031,6.8978,7.0046,6.9408,7.2015,7.2949,7.0683,7.0495,7.0212,6.9504,7.1042,7.3212,7.6089,7.9302,8.164,8.3042,8.248,8.2562,8.3462,8.2081,8.1001,8.0198,7.8515,7.7561,7.7285,7.6431,7.6055,7.6055,7.6055,7.6055,7.6004,7.5477,7.49,7.4297,7.3167,7.2062,7.0983,7.0179,6.8999,6.7769,6.7493,6.684,6.6112,6.6112,6.6112,6.6112,6.6112,6.5735,6.5183,6.463,6.4103,6.355,6.2973,6.2822,6.2822,6.2822,6.2822,6.2822,6.2822,6.2822,6.2822,6.2822,6.2822,6.2471,6.1366,6.119,6.0788,5.9659,5.9483,5.9483,5.9483,5.9483,5.9408,5.9156,5.8629,5.8077,5.7524,5.6947,5.6495,5.6219,5.6219,5.6219,5.6219,5.5968,5.5566,5.5013,5.4436,5.3884,5.3331,5.3055,5.2929,5.2929,5.2929,5.2929,6.5918,6.6269,6.6328,6.6113,6.4785,6.334,6.2422,6.084,5.9238,5.8086,5.8144,5.8262,5.793,5.8496,5.9473,6.0859,6.166,6.3047,6.582,6.6504,6.7383,6.9219,6.9453,6.916,6.8418,6.8301,6.7949,6.709,6.9345,7.1327,7.2611,7.4989,7.736,7.939,7.9421,8.0259,8.1746,8.1235,8.07,8.0022,7.844,7.7637,7.7486,7.6507,7.6055,7.6055,7.6055,7.6055,7.603,7.5603,7.5101,7.4498,7.3494,7.2414,7.1359,7.0681,6.9401,6.7945,6.7844,6.7066,6.6112,6.6112,6.6112,6.6112,6.6112,6.5735,6.5183,6.463,6.4103,6.355,6.2973,6.2822,6.2822,6.2822,6.2822,6.2822,6.2822,6.2822,6.2822,6.2822,6.2822,6.2521,6.1542,6.1266,6.0839,5.9834,5.9558,5.9483,5.9483,5.9483,5.9483,5.9483,5.8654,5.7976,5.7725,5.6897,5.6344,5.6219,5.6219,5.6219,5.6219,5.6093,5.5767,5.5214,5.4662,5.416,5.3708,5.3181,5.298,5.308,5.308,5.303,6.6094,6.6504,6.664,6.582,6.4375,6.2871,6.1992,6.0156,5.8476,5.7969,5.791,5.791,5.7871,5.8262,5.9121,6.0801,6.1152,6.2363,6.5762,6.6269,6.709,6.9219,6.9453,6.9277,6.8808,6.875,6.8398,6.75,6.7323,6.9845,7.5664,7.6261,7.6319,7.6273,7.8368,7.9204,7.8512,8.02,8.0499,7.9444,7.8264,7.7436,7.6933,7.6331,7.6055,7.6055,7.6055,7.6055,7.6055,7.6004,7.5653,7.5101,7.4498,7.3569,7.2439,7.1384,6.9978,6.8472,6.797,6.7066,6.6112,6.6112,6.6112,6.6112,6.6112,6.5735,6.5183,6.463,6.4103,6.355,6.2973,6.2822,6.2822,6.2822,6.2822,6.2822,6.2822,6.2822,6.2822,6.2822,6.2822,6.2647,6.2044,6.1517,6.0964,6.0337,5.9809,5.9483,5.9483,5.9483,5.9483,5.9483,5.8981,5.8227,5.7198,5.7022,5.6746,5.6244,5.6219,5.6219,5.6219,5.5742,5.5214,5.4662,5.4084,5.3758,5.3708,5.3181,5.3181,5.3632,5.3632,5.3381,6.5644,6.6348,6.664,6.582,6.4316,6.2812,6.1933,6.0273,5.8789,5.8359,5.8496,5.8555,5.832,5.8613,5.9062,5.9473,5.9765,6.0625,6.2461,6.3164,6.4492,6.7207,6.7734,6.8027,6.8418,6.8418,6.8066,6.7207,6.6972,6.8055,7.0567,7.0421,7.0882,7.2322,7.2864,7.4515,7.7507,7.7811,7.8542,7.9871,7.839,7.7586,7.7335,7.6456,7.6055,7.6055,7.6055,7.6055,7.6055,7.6055,7.5728,7.5176,7.4623,7.372,7.259,7.1485,7.0029,6.8547,6.7995,6.7066,6.6112,6.6112,6.6112,6.6112,6.6112,6.5484,6.4756,6.453,6.3827,6.3124,6.2898,6.2822,6.2822,6.2822,6.2822,6.2822,6.2822,6.2822,6.2822,6.2822,6.2822,6.2546,6.1667,6.1341,6.0889,5.996,5.9633,5.9483,5.9483,5.9483,5.9483,5.9483,5.9031,5.8529,5.8077,5.7424,5.6947,5.6721,5.6394,5.6219,5.6219,5.5993,5.5616,5.5064,5.4838,5.4561,5.421,5.4009,5.3833,5.3708,5.4059,5.3934,6.4961,6.5937,6.6465,6.5586,6.4199,6.2754,6.1777,6.0332,5.9062,5.8652,5.8887,5.9062,5.8594,5.8769,5.8887,5.8594,5.8672,5.9121,6.0098,6.0976,6.2461,6.5,6.5762,6.6465,6.7324,6.7656,6.7558,6.6914,6.6875,6.6816,6.668,6.6269,6.6753,6.8574,6.875,7.0604,7.4027,7.5227,7.6786,7.8618,7.7981,7.7712,7.7662,7.6557,7.6055,7.6055,7.6055,7.6055,7.6055,7.6055,7.5728,7.5176,7.4623,7.382,7.2841,7.156,7.0129,6.8773,6.8045,6.7066,6.6112,6.6112,6.6112,6.6112,6.6112,6.5333,6.4454,6.4454,6.3676,6.2822,6.2822,6.2822,6.2822,6.2822,6.2822,6.2822,6.2822,6.2822,6.2822,6.2822,6.2822,6.2571,6.1793,6.1391,6.0914,6.0111,5.9709,5.9483,5.9483,5.9483,5.9483,5.9483,5.9156,5.888,5.873,5.7976,5.7474,5.7298,5.6771,5.647,5.647,5.6294,5.5942,5.539,5.539,5.5189,5.4813,5.4637,5.4436,5.421,5.4612,5.4587,6.4082,6.5234,6.6035,6.5176,6.3965,6.2695,6.1387,6.0098,5.9062,5.8652,5.8887,5.9062,5.8594,5.8535,5.8535,5.8535,5.8144,5.832,5.9629,6.0566,6.1601,6.291,6.3848,6.4668,6.5527,6.6406,6.6875,6.6875,6.6875,6.668,6.6269,6.582,6.541,6.4961,6.7552,6.8275,6.691,7.2863,7.5501,7.5084,7.6835,7.7712,7.7662,7.6557,7.6055,7.6055,7.6055,7.6055,7.6055,7.6055,7.5728,7.5176,7.4623,7.4071,7.3393,7.1711,7.038,6.9275,6.817,6.7066,6.6112,6.6112,6.6112,6.6112,6.6112,6.5333,6.4454,6.4454,6.3676,6.2822,6.2822,6.2822,6.2822,6.2822,6.2822,6.2822,6.2822,6.2822,6.2822,6.2822,6.2822,6.2822,6.2822,6.1893,6.119,6.1165,6.0211,5.9483,5.9483,5.9483,5.9483,5.9483,5.9483,5.9282,5.8755,5.8704,5.8478,5.7926,5.7349,5.7022,5.7022,5.6495,5.5942,5.539,5.539,5.539,5.539,5.4838,5.4838,5.5365,5.539,5.539,6.2285,6.3262,6.3906,6.334,6.2422,6.1543,6.0801,5.9883,5.9121,5.9004,5.9062,5.9062,5.8594,5.8535,5.8359,5.7734,5.7734,5.791,5.8027,5.9297,6.0918,6.2812,6.5058,6.6582,6.6855,6.6875,6.6875,6.6875,6.6875,6.668,6.623,6.582,6.5254,6.4531,6.4731,6.5471,6.6754,6.8393,7.1151,7.4977,7.4769,7.5756,7.7662,7.6557,7.6055,7.6055,7.6055,7.5854,7.5502,7.5502,7.5176,7.4623,7.4071,7.3519,7.2841,7.156,7.038,6.93,6.8196,6.7317,6.6639,6.6237,6.6112,6.6112,6.6112,6.5333,6.4304,6.355,6.3099,6.2822,6.2822,6.2822,6.2822,6.2822,6.2822,6.2822,6.2822,6.2822,6.2822,6.2822,6.2822,6.2697,6.2345,6.1969,6.1617,6.124,6.0889,6.0512,6.0111,6.006,5.991,5.9533,5.9483,5.9433,5.9257,5.893,5.8654,5.8478,5.7926,5.7449,5.7047,5.6872,5.652,5.5968,5.5942,5.5942,5.5942,5.5767,5.5792,5.5942,5.5566,5.5591,6.0898,6.1992,6.2695,6.2246,6.1601,6.0918,6.0332,5.9687,5.918,5.918,5.918,5.9062,5.8594,5.8418,5.8027,5.7324,5.7305,5.7285,5.7012,5.8594,6.0625,6.2793,6.5117,6.6504,6.6504,6.6738,6.6875,6.6875,6.6699,6.6445,6.5996,6.541,6.4726,6.3848,6.332,6.366,6.4917,6.5712,6.8453,7.302,7.3263,7.4788,7.736,7.6456,7.6055,7.6055,7.6055,7.5753,0.0,7.5251,7.4799,7.4071,7.372,7.3117,7.2313,7.141,7.038,6.93,6.8196,6.7442,6.689,6.6312,6.6112,6.6061,6.586,6.5183,6.4279,6.34,6.2998,6.2822,6.2822,6.2822,6.2822,6.2822,6.2822,6.2822,6.2822,6.2822,6.2822,6.2822,6.2822,6.2722,6.237,6.2144,6.1893,6.1542,6.1316,6.104,6.0688,6.0462,6.0186,5.9834,5.9608,5.9483,5.9483,5.9207,5.9006,5.9006,5.8504,5.8052,5.7675,5.7273,5.6872,5.652,5.6319,5.6219,5.6219,5.6219,5.642,5.6846,5.6269,5.6194,0.0,6.1191,6.2012,6.1601,6.125,6.0742,5.9941,5.9473,0.0,5.918,5.918,5.9004,5.8594,5.8125,5.7656,5.7187,5.6816,5.6582,5.6543,5.8496,6.0723,6.2812,6.4258,6.5058,6.4941,6.6113,6.6875,6.6816,6.6445,6.5996,6.5527,6.4726,6.3906,6.3027,6.2988,6.2578,6.1719,6.4427,6.6963,6.9379,7.1548,7.3927,7.6308,7.5983,7.5832,7.5832,7.6004,7.5678,7.5176,7.5151,7.4473,7.3468,7.3468,7.2791,7.1736,7.1209,7.0355,6.93,6.8196,6.7467,6.694,6.6312,6.6112,6.6011,6.5459,6.4931,6.4404,6.3852,6.3299,6.2873,6.2847,6.2822,6.2822,6.2822,6.2822,6.2822,6.2822,6.2822,6.2822,6.2822,6.2822,6.2822,6.2822,6.2395,6.2069,6.2069,6.1617,6.1291,6.124,6.0763,6.0412,6.0387,5.991,5.9583,5.9558,5.9508,5.9483,5.9483,5.9031,5.8755,5.873,5.77,5.7123,5.7097,5.6545,5.6294,5.6319,5.6294,5.6821,5.7901,5.7349,5.7097,5.8887,0.0,5.9473,5.9707,5.9707,5.959,0.0,5.9238,5.918,5.918,5.8945,5.8535,5.8086,5.7656,5.7109,5.6367,5.6426,5.6465,5.6133,5.9062,6.1836,6.334,6.5234,6.6035,6.5058,6.6113,6.6738,6.6387,6.6269,6.5762,6.4668,6.4433,6.375,6.2539,6.2539,6.2246,6.1719,6.2081,6.3688,6.6537,6.6252,6.77,7.0426,7.2052,7.2754,7.2957,7.4665,7.5126,7.4573,7.4146,7.3318,7.2313,7.2313,7.161,7.0631,7.0506,7.0029,6.93,6.8196,6.7719,6.7442,6.6438,6.6112,6.6011,6.5459,6.5208,6.4906,6.3952,6.3601,6.34,6.2948,6.2822,6.2822,6.2822,6.2822,6.2822,6.2822,6.2822,6.2822,6.2822,6.2822,6.2822,6.2822,6.2722,6.2621,6.2621,6.2521,6.2295,6.1868,6.1692,6.1441,6.1014,6.0864,6.0613,6.0161,5.9734,5.9483,5.9483,5.9382,5.9131,5.873,5.8478,5.8127,5.77,5.7123,5.7072,5.7499,5.7072,5.7198,5.7901,5.775,5.77,5.8535,5.8652,5.8887,5.9121,5.918,5.918,5.918,5.918,5.9121,5.8945,5.8711,5.8359,5.7676,5.7363,5.6992,5.6348,5.6426,5.6855,5.7617,5.9512,6.1719,6.3965,6.5293,6.5937,6.582,6.6289,6.6465,6.623,6.5683,6.5058,6.4375,6.375,6.3105,6.2363,6.2187,6.1836,6.1426,6.1211,6.2402,6.4791,6.4219,6.5455,6.8083,6.9305,7.056,7.1893,7.2851,7.3675,7.4372,7.382,7.2916,7.1912,7.1912,7.1234,7.0255,7.0255,6.9928,6.93,6.8196,6.7467,6.6915,6.6312,6.5936,6.5685,6.5383,6.5107,6.4731,6.3927,6.35,6.3224,6.2898,6.2822,6.2822,6.2822,6.2822,6.2822,6.2822,6.2822,6.2822,6.2822,6.2822,6.2822,6.2822,6.2822,6.2822,6.2822,6.2822,6.2722,6.2421,6.2169,6.1893,6.1592,6.1341,6.1065,6.0738,6.0186,5.9759,5.9508,5.9483,5.9357,5.9081,5.8855,5.8453,5.7901,5.76,5.77,5.8278,5.77,5.7851,5.8629,5.8378,5.8278,5.8652,5.8887,5.918,5.918,5.918,5.918,5.918,5.918,5.9062,5.8652,5.8476,5.8183,5.7363,5.7168,5.6973,5.6562,5.6543,5.7383,5.9687,6.0039,6.125,6.4297,6.4883,6.541,6.6289,6.623,6.6055,6.5937,6.4941,6.4199,6.4023,6.2949,6.2305,6.2187,6.1836,6.1367,6.0918,6.0957,6.1781,6.3328,6.3334,6.4307,6.6371,6.6774,6.8204,7.0396,7.0313,7.1574,7.3616,7.3068,7.2386,7.1786,7.1786,7.1108,7.0129,7.0129,6.9777,6.915,6.8045,6.699,6.6112,6.6112,6.5735,6.5283,6.5183,6.4781,6.4254,6.3827,6.335,6.2948,6.2847,6.2822,6.2822,6.2822,6.2822,6.2822,6.2822,6.2822,6.2822,6.2822,6.2822,6.2822,6.2822,6.2822,6.2822,6.2822,6.2822,6.2822,6.2822,6.2421,6.2119,6.2119,6.1718,6.1391,6.1316,6.0788,6.0211,5.9659,5.9533,5.9483,5.9483,5.9081,5.8629,5.8152,5.8052,5.8303,5.883,5.8278,5.8529,5.9483,5.9056,5.883,5.9062,5.9121,5.918,5.918,5.918,5.918,5.918,5.918,5.9062,5.8652,5.8242,5.7793,5.7305,5.6914,5.6543,5.6113,5.6348,5.7598,6.0508,6.1191,6.1894,6.3164,6.4609,6.5137,6.4258,6.5078,6.541,6.4668,6.4433,6.3848,6.2715,6.248,6.2012,6.1308,6.1211,6.0801,6.0039,6.0371,6.0521,6.0422,6.0086,6.0092,6.0547,6.2971,6.4016,6.423,6.6039,6.8125,7.0171,6.9644,7.0196,7.1209,7.1209,7.0531,6.9577,6.9577,6.9225,6.8597,6.7493,6.6664,6.6112,6.6112,6.5735,6.5208,6.4731,6.4228,6.3802,6.3726,6.3626,6.345,6.2948,6.2822,6.2822,6.2822,6.2822,6.2822,6.2822,6.2822,6.2822,6.2822,6.2822,6.2822,6.2822,6.2822,6.2822,6.2822,6.2822,6.2822,6.2822,6.2747,6.2697,6.2697,6.2621,6.2395,6.1918,6.1366,6.0814,6.0236,5.9759,5.9483,5.9483,5.9408,5.9332,5.9257,5.883,5.8855,5.9382,5.8855,5.8905,5.9483,5.9408,5.9382,5.918,5.918,5.918,5.918,5.918,5.918,5.918,5.918,5.9062,5.8652,5.8183,5.7734,5.7285,5.7051,5.709,5.7598,5.8027,5.8965,6.0801,6.125,6.1894,6.3223,6.4082,6.4609,6.4726,6.4844,6.4726,6.4355,6.3437,6.2637,6.207,6.1562,6.1133,6.0742,6.0742,6.0449,5.9805,5.998,5.9863,5.9473,5.9297,5.918,5.9199,6.0527,6.1653,6.2778,6.3461,6.5129,6.7354,6.7994,6.8517,6.9096,7.0178,7.0154,6.9311,6.91,6.8648,6.807,6.7267,6.6589,6.6112,6.6112,6.5735,6.5233,6.4982,6.453,6.4103,6.4103,6.3676,6.3224,6.3274,6.3048,6.2822,6.2822,6.2822,6.2822,6.2822,6.2822,6.2822,6.2822,6.2822,6.2822,6.2822,6.2822,6.2822,6.2822,6.2822,6.2822,6.2822,6.2822,6.2822,6.2822,6.2822,6.2722,6.2471,6.1943,6.114,5.996,5.9633,5.9483,5.9483,5.9483,5.9483,5.9483,5.9257,5.9257,5.9483,5.9257,5.9257,5.9483,5.9483,5.9483,5.918,5.918,5.918,5.918,5.918,5.918,5.918,5.918,5.9062,5.8652,5.8262,5.7851,5.7305,5.7285,5.7734,5.9004,5.9629,6.0332,6.1367,6.1445,6.2012,6.3633,6.375,6.4082,6.5058,6.4551,6.4082,6.3867,6.2519,6.166,6.1601,6.084,6.039,6.0273,6.0273,6.0098,5.9648,5.9648,5.9512,5.918,5.918,5.918,5.918,5.9062,5.9947,6.1578,6.1016,6.219,6.4442,6.5576,6.6132,6.6437,6.8509,6.9423,6.9376,6.8823,6.8271,6.7719,6.7166,6.6589,6.6112,6.6112,6.5735,6.5283,6.5283,6.4906,6.4454,6.4454,6.3852,6.3299,6.3601,6.3249,6.2822,6.2822,6.2822,6.2822,6.2822,6.2822,6.2822,6.2822,6.2822,6.2822,6.2822,6.2822,6.2822,6.2822,6.2822,6.2822,6.2822,6.2822,6.2822,6.2822,6.2822,6.2772,6.2647,6.2245,6.1391,5.9985,5.9633,5.9483,5.9483,5.9608,5.9684,5.9684,5.9834,5.9885,5.9885,5.9885,5.9834,5.9684,5.9834,5.9809,5.918,5.918,5.918,5.918,5.918,5.918,5.918,5.918,5.9062,5.8652,5.8535,5.8242,5.7363,5.7539,5.8105,5.9023,5.9863,6.0957,6.2637,6.2539,6.2773,6.4082,6.3926,6.373,6.3808,6.375,6.3398,6.2598,6.2012,6.1543,6.1152,6.0683,6.0273,5.9863,5.9863,5.9648,5.9238,5.9238,5.9238,5.918,5.918,5.918,5.918,5.8769,5.845,5.8179,5.7767,5.8859,6.0946,6.0666,6.1677,6.3652,6.5872,6.7762,6.9376,6.8823,6.8271,6.7719,6.7166,6.6589,6.6112,6.6112,6.5735,6.5283,6.5283,6.4906,6.4454,6.4454,6.4404,6.4254,6.3802,6.3249,6.2822,6.2822,6.2822,6.2822,6.2822,6.2822,6.2822,6.2822,6.2822,6.2822,6.2822,6.2822,6.2822,6.2822,6.2822,6.2822,6.2822,6.2822,6.2822,6.2822,6.2822,6.2621,6.2094,6.2019,6.1743,6.109,6.0085,5.9483,5.9483,5.9985,6.0261,6.0261,6.0788,6.1065,6.1065,6.1065,6.0788,6.0261,6.0814,6.0763,5.8769,5.8769,5.8769,5.8769,5.9004,5.918,5.918,5.9414,5.9453,5.9004,5.8945,5.8652,5.7793,5.8203,5.8965,5.9805,6.0898,6.207,6.3281,6.3281,6.3398,6.3867,6.3555,6.3281,6.3281,6.3047,6.2598,6.2012,6.1308,6.0742,6.0332,5.9883,5.959,5.9414,5.9414,5.9355,5.918,5.918,5.918,5.918,5.918,5.9062,5.8769,5.8594,5.8125,5.7441,5.7285,5.7597,5.8143,5.9139,6.0027,6.1078,6.4568,6.6334,6.7134,6.7861,6.797,6.7668,6.6764,6.6287,6.6112,6.6112,6.5961,6.581,6.581,6.566,6.5434,6.5082,6.4731,6.4354,6.3827,6.3525,6.3274,6.2923,6.2822,6.2822,6.2822,6.2822,6.2822,6.2822,6.2822,6.2822,6.2822,6.2822,6.2822,6.2822,6.2822,6.2822,6.2822,6.2822,6.2822,6.2822,6.2822,6.2747,6.2521,6.2195,6.1918,6.1718,6.0964,6.0537,6.0537,6.0738,6.0864,6.0864,6.1065,6.119,6.119,6.119,6.1065,6.0864,6.109,6.1065,5.8535,5.8535,5.8535,5.8535,5.8887,5.918,5.918,5.9512,5.9765,5.9629,5.9473,5.9121,5.8262,5.8789,5.957,6.0156,6.1426,6.2637,6.3398,6.334,6.334,6.3457,6.3105,6.2812,6.2812,6.2539,6.2129,6.1543,6.084,6.0254,5.9824,5.9414,5.918,5.918,5.918,5.918,5.918,5.918,5.918,5.918,5.918,5.8945,5.8535,5.8379,5.791,5.7207,5.707,5.6855,5.663,5.7711,5.8519,5.928,6.2085,6.4154,6.5606,6.5639,6.6626,6.758,6.5793,6.5608,6.6112,6.6112,6.6112,6.6112,6.6112,6.6112,6.5986,6.5434,6.5032,6.4605,6.4078,6.3676,6.3375,6.3149,6.2948,6.2822,6.2822,6.2822,6.2822,6.2822,6.2822,6.2822,6.2822,6.2822,6.2822,6.2822,6.2822,6.2822,6.2822,6.2822,6.2822,6.2822,6.2822,6.2822,6.2822,6.2471,6.227,6.227,6.1918,6.1542,6.119,6.1341,6.1441,6.1441,6.1617,6.1692,6.1692,6.1692,6.1617,6.1441,6.1617,6.1617,5.8535,5.8535,5.8535,5.8535,5.8887,5.918,5.918,5.9512,5.9922,6.0371,6.0098,5.957,5.8711,5.9238,5.9805,5.9805,6.125,6.2519,6.2969,6.2637,6.2539,6.2969,6.2637,6.2363,6.2363,6.2363,6.2012,6.1152,6.0683,6.0254,5.9824,5.9414,5.918,5.918,5.918,5.918,5.918,5.918,5.918,5.918,5.918,5.8945,5.8535,5.8086,5.7617,5.7187,5.6758,5.6582,5.6543,5.6113,5.6913,5.8436,5.8074,6.0977,6.5164,6.221,6.3892,6.7341,6.4277,6.4455,6.6026,6.6026,6.6026,6.6026,6.6026,6.6026,6.59,6.5349,6.5198,6.5073,6.4605,6.3651,6.2891,6.355,6.3249,6.2847,6.2822,6.2822,6.2822,6.2822,6.2822,6.2822,6.2822,6.2822,6.2822,6.2822,6.2822,6.2822,6.2822,6.2822,6.2822,6.2822,6.2822,6.2822,6.2822,6.2822,6.2822,6.2822,6.2822,6.2345,6.124,6.1718,6.2019,6.2019,6.2546,6.2822,6.2822,6.2822,6.2546,6.2019,6.2571,6.2546,5.8535,5.8535,5.8535,5.8535,5.8887,5.9238,5.957,5.9707,6.0098,6.1133,6.1015,6.0547,5.998,6.0098,6.0156,5.9863,6.0976,6.207,6.248,6.2187,6.1953,6.2109,6.1484,6.1133,6.1426,6.1191,6.0898,6.0664,6.0215,5.9805,5.9414,5.9238,5.918,5.918,5.918,5.918,5.918,5.918,5.918,5.918,5.8887,5.8496,5.8027,5.791,5.7461,5.6758,5.664,5.6582,5.6523,5.5801,5.5676,5.6007,5.7318,5.8873,6.021,6.0428,6.1342,6.2318,6.0708,6.0499,6.0992,6.0992,6.0992,6.0992,6.0992,6.0992,6.0899,6.0299,6.016,6.0557,6.2104,6.192,6.1789,6.3286,6.355,6.3324,6.2923,6.2822,6.2822,6.2822,6.2822,6.2822,6.2822,6.2822,6.2822,6.2822,6.2822,6.2822,6.2822,6.2822,6.2822,6.2822,6.2822,6.2822,6.2822,6.2822,6.2822,6.2822,6.2822,6.2672,6.2345,6.2496,6.2571,6.2571,6.2747,6.2822,6.2822,6.2822,6.2747,6.2596,6.2747,6.2747,5.8535,5.8535,5.8535,5.8535,5.9004,5.9531,5.998,6.0449,6.1094,6.2051,6.2051,6.1601,6.084,6.084,6.0742,6.0156,6.084,6.1543,6.1836,6.1484,6.1191,6.1191,6.0742,6.0547,6.0801,6.0605,6.0371,6.0215,5.998,5.9629,5.918,5.918,5.918,5.918,5.918,5.918,5.918,5.918,5.918,5.918,5.8769,5.8301,5.7851,5.7676,5.7226,5.6582,5.6582,5.6582,5.6523,5.5664,5.5156,5.507,5.6012,5.7032,5.79,5.7631,5.8778,6.0239,5.8325,5.8274,5.8968,5.8881,5.8814,5.8814,5.8814,5.8814,5.8747,5.8455,5.8141,5.8391,6.0035,6.0775,6.161,6.3577,6.3852,6.3525,6.2948,6.2822,6.2822,6.2822,6.2822,6.2822,6.2822,6.2822,6.2822,6.2822,6.2822,6.2822,6.2822,6.2822,6.2822,6.2822,6.2822,6.2822,6.2822,6.2822,6.2822,6.2822,6.2822,6.2822,6.2822,6.2822,6.2822,6.2822,6.2822,6.2822,6.2822,6.2822,6.2822,6.2822,6.2822,6.2822,5.8594,5.8594,5.8594,5.8594,5.9238,5.998,6.0488,6.1543,6.2539,6.293,6.3086,6.2695,6.1484,6.1543,6.1484,6.0625,6.084,6.1094,6.1094,6.0683,6.0371,6.0371,6.0332,6.0332,6.0371,6.0332,6.0156,5.9824,5.9765,5.959,5.918,5.918,5.918,5.918,5.918,5.918,5.918,5.9121,5.9121,5.9121,5.8652,5.8203,5.7793,5.7402,5.6992,5.6582,5.6582,5.6582,5.6523,5.5703,5.5332,5.5234,5.4414,5.5527,5.7169,5.4383,5.6329,5.9732,5.6602,5.6928,5.8698,5.8234,5.8171,5.8171,5.8171,5.8171,5.8171,5.8171,5.7747,5.7526,5.8244,5.9723,6.1502,6.3677,6.3961,6.3601,6.3023,6.2873,6.2822,6.2822,6.2822,6.2822,6.2822,6.2822,6.2822,6.2822,6.2822,6.2822,6.2822,6.2822,6.2822,6.2822,6.2822,6.2822,6.2822,6.2822,6.2822,6.2822,6.2822,6.2822,6.2822,6.2822,6.2822,6.2822,6.2822,6.2822,6.2822,6.2822,6.2822,6.2822,6.2822,6.2822,5.9062,5.9062,5.9062,5.9062,5.9687,6.0605,6.1719,6.2422,6.293,6.3027,6.332,6.334,6.2754,6.2402,6.1953,6.1094,6.1035,6.1094,6.1094,6.0449,5.9922,5.9922,5.9648,5.959,5.9922,5.9648,5.9531,5.9805,5.9512,5.9297,5.918,5.918,5.918,5.918,5.918,5.918,5.918,5.8828,5.8652,5.8652,5.7851,5.7441,5.7344,5.7246,5.6992,5.6582,5.6582,5.6582,5.6543,5.6015,5.5605,5.5254,5.4746,5.4624,5.4759,5.3718,5.4024,5.4763,5.3408,5.3206,5.3593,5.3149,5.3008,5.3008,5.3008,5.3008,5.3008,5.3008,5.2927,5.3249,5.5356,5.6229,5.7494,6.135,6.3337,6.4153,6.3626,6.3149,6.2822,6.2822,6.2822,6.2822,6.2822,6.2822,6.2822,6.2822,6.2822,6.2822,6.2822,6.2822,6.2822,6.2822,6.2822,6.2822,6.2822,6.2822,6.2822,6.2822,6.2822,6.2822,6.2822,6.2822,6.2822,6.2822,6.2822,6.2822,6.2822,6.2822,6.2822,6.2822,6.2822,6.2822,5.918,5.918,5.9297,5.9687,6.0273,6.0976,6.1836,6.2402,6.2695,6.2695,6.3223,6.3574,6.3105,6.2656,6.207,6.1211,6.0918,6.0723,6.0508,5.9922,5.9512,5.9512,5.9297,5.9297,5.9473,5.9297,5.9297,5.9473,5.9297,5.918,5.918,5.918,5.918,5.918,5.918,5.918,5.918,5.8769,5.8535,5.8535,5.7637,5.7109,5.6914,5.6914,5.6797,5.6582,5.6582,5.6582,5.6543,5.6113,5.5683,5.5273,5.4844,5.4414,5.4004,5.3769,5.3672,5.3594,5.293,5.2558,5.2324,5.1894,5.1601,5.1426,5.1426,5.1426,5.1426,5.1426,5.1426,5.1697,5.2988,5.4189,5.5689,5.7908,6.0634,6.2883,6.3527,6.3249,6.2822,6.2822,6.2822,6.2822,6.2822,6.2822,6.2822,6.2822,6.2822,6.2822,6.2822,6.2822,6.2822,6.2822,6.2822,6.2822,6.2822,6.2822,6.2822,6.2822,6.2822,6.2822,6.2822,6.2822,6.2822,6.2822,6.2822,6.2822,6.2822,6.2822,6.2822,6.2822,6.2822,6.2822,5.918,5.9238,5.9473,6.0254,6.0781,6.1211,6.1719,6.2129,6.2363,6.248,6.3047,6.3457,6.2988,6.2539,6.2012,6.1211,6.0664,6.0215,5.9863,5.9453,5.918,5.918,5.918,5.918,5.918,5.918,5.918,5.918,5.918,5.918,5.918,5.918,5.918,5.918,5.918,5.918,5.918,5.8652,5.8418,5.8418,5.7519,5.6914,5.6582,5.6582,5.6582,5.6582,5.6582,5.6582,5.6562,5.6191,5.5762,5.5273,5.4922,5.4473,5.4023,5.4023,5.4023,5.3965,5.3516,5.3066,5.2637,5.2226,5.1777,5.1426,5.1426,5.1426,5.1426,5.1426,5.1426,5.1426,5.1426,5.2892,5.4548,5.5021,5.7439,6.0332,6.2682,6.2672,6.2306,6.2741,6.2822,6.2822,6.2822,6.2923,6.2948,6.2847,6.2923,6.2948,6.2847,6.2822,6.2822,6.2822,6.2822,6.2822,6.2822,6.2822,6.2822,6.2822,6.2822,6.2822,6.2822,6.2822,6.2822,6.2822,6.2822,6.2822,6.2822,6.2822,6.2822,6.2822,6.2822,6.2822,5.918,5.9453,5.9863,6.0332,6.0781,6.1308,6.207,6.2305,6.248,6.2871,6.3047,6.2988,6.2539,6.2109,6.166,6.1152,6.039,5.9863,5.9805,5.9453,5.918,5.918,5.918,5.918,5.918,5.918,5.918,5.918,5.918,5.918,5.918,5.918,5.918,5.918,5.918,5.918,5.918,5.8379,5.7969,5.793,5.709,5.664,5.6582,5.6582,5.6582,5.6582,5.6582,5.6582,5.6582,5.6523,5.6035,5.5293,5.5254,5.4726,5.4023,5.4023,5.4023,5.3965,5.3516,5.3066,5.2637,5.2226,5.1777,5.1426,5.1426,5.1426,5.1426,5.1426,5.1426,5.1426,5.1426,5.162,5.2451,5.4548,5.5163,5.6265,6.0355,6.0446,6.0362,6.2388,6.2822,6.2822,6.2822,6.3249,6.34,6.2898,6.3249,6.34,6.2898,6.2822,6.2822,6.2822,6.2822,6.2822,6.2822,6.2822,6.2822,6.2822,6.2822,6.2822,6.2822,6.2822,6.2822,6.2822,6.2822,6.2822,6.2822,6.2822,6.2822,6.2822,6.2822,6.2822,5.918,5.9473,5.9922,6.0332,6.0781,6.125,6.1836,6.2012,6.207,6.2246,6.2285,6.2226,6.2012,6.166,6.1152,6.0508,6.0039,5.9629,5.916,5.8945,5.8711,5.8496,5.8437,5.8555,5.8769,5.8828,5.8945,5.918,5.918,5.918,5.918,5.918,5.918,5.918,5.918,5.918,5.918,5.832,5.7617,5.7148,5.6758,5.6582,5.6582,5.6582,5.6582,5.6582,5.6582,5.6582,5.6582,5.6582,5.6074,5.5312,5.5312,5.4785,5.4023,5.4023,5.4023,5.4004,5.3808,5.3281,5.2676,5.25,5.1973,5.1426,5.1426,5.1426,5.1426,5.1426,5.1426,5.1426,5.1426,5.1426,5.1717,5.2816,5.2665,5.3124,5.6144,5.7282,5.836,6.0434,6.1154,6.1791,6.3052,6.3776,6.4028,6.3776,6.3726,6.3601,6.335,6.3023,6.2822,6.2822,6.2822,6.2822,6.2822,6.2822,6.2822,6.2822,6.2822,6.2822,6.2822,6.2822,6.2822,6.2822,6.2822,6.2822,6.2822,6.2822,6.2822,6.2822,6.2822,6.2998,5.918,5.9473,5.9863,6.0215,6.0683,6.1152,6.1484,6.166,6.1719,6.1719,6.166,6.1543,6.1426,6.1133,6.0625,5.9805,5.957,5.9238,5.8476,5.8359,5.8242,5.791,5.7871,5.8027,5.8476,5.8535,5.8711,5.9121,5.918,5.918,5.918,5.918,5.918,5.918,5.918,5.918,5.918,5.832,5.7441,5.6582,5.6582,5.6582,5.6582,5.6582,5.6582,5.6582,5.6582,5.6582,5.6582,5.6582,5.6074,5.5312,5.543,5.4883,5.4043,5.416,5.4121,5.4023,5.4023,5.3457,5.2715,5.2715,5.2129,5.1426,5.1426,5.1426,5.1426,5.1426,5.1426,5.1426,5.1426,5.1426,5.1426,5.1426,5.1191,5.1412,5.3064,5.4971,5.6742,5.8189,5.8882,6.003,6.2436,6.334,6.3906,6.4396,6.4254,6.4002,6.3726,6.3324,6.2998,6.2847,6.2822,6.2822,6.2822,6.2822,6.2822,6.2822,6.2822,6.2898,6.3048,6.3048,6.3099,6.3249,6.3249,6.3174,6.3048,6.3048,6.3124,6.3249,6.3099,6.335,5.918,5.9473,5.9805,5.9824,6.0449,6.1094,6.1094,6.1426,6.1719,6.1719,6.1387,6.0976,6.0566,6.0488,6.0215,5.9355,5.8887,5.8418,5.7969,5.791,5.7871,5.7871,5.7871,5.8027,5.8476,5.8535,5.8711,5.9121,5.918,5.918,5.918,5.918,5.918,5.918,5.918,5.918,5.918,5.832,5.7441,5.6582,5.6582,5.6582,5.6582,5.6582,5.6582,5.6582,5.6582,5.6582,5.6582,5.6582,5.6074,5.5351,5.5742,5.5137,5.4082,5.4492,5.4394,5.4023,5.4023,5.3457,5.2715,5.2715,5.2129,5.1426,5.1426,5.1426,5.1426,5.1426,5.1426,5.1426,5.1426,5.1426,5.1426,5.1426,5.1406,5.1689,5.2753,5.4582,5.6011,5.6053,5.6435,5.7474,5.9944,6.1144,6.2365,6.4194,6.4881,6.4831,6.3827,6.3676,6.3425,6.2898,6.2822,6.2822,6.2822,6.2822,6.2822,6.2822,6.2822,6.3073,6.3626,6.3651,6.3877,6.4379,6.4379,6.4128,6.3651,6.3651,6.3902,6.4379,6.3877,6.3927,5.918,5.9297,5.9473,5.9746,6.0039,6.0332,6.0605,6.0781,6.0898,6.0898,6.0781,6.0547,6.0098,5.9805,5.9453,5.8887,5.8379,5.7969,5.75,5.7441,5.7344,5.707,5.7285,5.7617,5.8086,5.8359,5.8711,5.9121,5.918,5.918,5.918,5.918,5.918,5.918,5.918,5.9062,5.8769,5.8437,5.7851,5.6992,5.6992,5.6855,5.6582,5.6582,5.6582,5.6582,5.6582,5.6582,5.6582,5.6582,5.623,5.5703,5.5586,5.5098,5.4433,5.4316,5.416,5.4023,5.4023,5.3633,5.3086,5.2793,5.2324,5.1797,5.1523,5.1426,5.1426,5.1426,5.1426,5.1426,5.1426,5.1426,5.1426,5.1426,5.123,5.1091,5.1529,5.2113,5.2981,5.4198,5.4861,5.6003,5.8363,6.0627,6.2401,6.3109,6.4394,6.5157,6.4781,6.4128,6.3626,6.34,6.3375,6.3224,6.2873,6.3174,6.3375,6.3375,6.3375,6.3626,6.4178,6.4178,6.4279,6.4454,6.4806,6.4731,6.4178,6.4178,6.4279,6.4454,6.4279,6.4479,5.918,5.918,5.9238,5.9531,5.959,5.9707,6.0156,6.0215,6.0273,6.039,6.0332,6.0098,5.9687,5.9121,5.8652,5.8359,5.791,5.75,5.7051,5.6992,5.6953,5.6816,5.7051,5.7441,5.8027,5.8359,5.8711,5.9121,5.918,5.918,5.918,5.918,5.918,5.918,5.918,5.8945,5.8535,5.8535,5.8183,5.7422,5.7285,5.707,5.6797,5.664,5.6582,5.6582,5.6582,5.6582,5.6582,5.6582,5.6328,5.5898,5.5625,5.5176,5.4648,5.4355,5.416,5.4023,5.4023,5.3633,5.3086,5.2812,5.2324,5.1816,5.1523,5.1426,5.1426,5.1426,5.1426,5.1426,5.1426,5.1426,5.1426,5.1426,5.123,5.1016,5.1016,5.0801,5.0964,5.2186,5.2845,5.3977,5.6435,5.8569,6.0271,6.1106,6.2337,6.3321,6.3952,6.3397,6.3266,6.3894,6.3952,6.3802,6.34,6.3726,6.3952,6.3952,6.3952,6.4178,6.4731,6.4756,6.4831,6.5007,6.5383,6.5383,6.5032,6.4831,6.4831,6.5032,6.5032,6.5409,0.0,0.0,0.0,5.918,5.918,5.9297,5.9687,5.9765,5.9863,6.0312,6.0078,5.9648,5.9238,5.8437,5.7871,5.7871,5.748,5.7051,5.666,5.6601,5.6758,5.7187,5.7246,5.7598,5.8476,5.8535,5.8711,5.914,5.918,5.918,5.918,5.918,5.918,5.918,5.918,5.9004,5.8535,5.8535,5.832,5.7871,5.7441,5.7226,5.7187,5.6777,5.6582,5.6582,5.6582,5.6582,5.6582,5.6582,5.6328,5.5957,5.5918,5.541,5.4687,5.4668,5.4394,5.4023,5.4023,5.3457,5.2734,5.2715,5.2148,5.1445,5.1445,5.1426,5.1426,5.1426,5.1426,5.1426,5.1426,5.1426,5.1426,5.1426,5.1426,5.1426,5.1426,5.0801,5.0215,5.0215,5.0547,5.1547,5.3997,5.4821,5.594,5.8355,5.8722,5.9454,6.1292,6.1573,6.2278,6.4194,6.4479,6.4479,6.4454,6.4479,6.4479,6.4479,6.4479,6.4731,6.5283,6.5308,6.5559,6.6112,6.6112,6.6112,6.6112,6.5584,6.5584,6.6137,6.6162,6.6739,5.918,0.0,0.0,0.0,0.0,0.0,5.8867,5.8887,5.8926,5.9043,5.9238,5.9238,5.8769,5.8262,5.7871,5.7871,5.7246,5.6816,5.7012,5.7031,5.7207,5.7637,5.7969,5.8242,5.8535,5.8828,5.9062,5.918,5.918,5.918,5.918,5.918,5.918,5.918,5.918,5.9121,5.9004,5.9004,5.8769,5.8359,5.791,5.7519,5.7187,5.6777,5.6582,5.6582,5.6582,5.6582,5.6582,5.6582,5.6504,5.6348,5.5723,5.5332,5.5058,5.4433,5.4141,5.4023,5.4023,5.3652,5.3125,5.2812,5.2344,5.1836,5.1523,5.1426,5.1426,5.1426,5.1426,5.1426,5.1426,5.1426,5.1426,5.1426,5.1426,5.1426,5.1426,5.125,5.1094,5.1094,5.1172,5.1443,5.2175,5.3842,5.5283,5.6034,5.7617,5.8952,5.9522,6.0725,6.1788,6.2365,6.3987,6.4906,6.4505,6.4831,6.5057,6.5057,6.5057,6.5308,6.586,6.5886,6.5961,6.6112,6.6112,6.6112,6.6112,6.5961,6.6187,6.6739,6.7141,6.7493,5.918,5.918,5.918,5.918,0.0,0.0,5.8476,5.8379,5.8301,5.8476,5.8887,5.9004,5.8379,5.8027,5.7812,5.7617,5.7168,5.6992,5.7422,5.748,5.7656,5.8086,5.8359,5.8594,5.8769,5.9023,5.918,5.918,5.918,5.918,5.918,5.918,5.918,5.918,5.918,5.918,5.918,5.918,5.9062,5.8769,5.8359,5.791,5.7461,5.7051,5.6758,5.6582,5.6582,5.6582,5.6582,5.6582,5.6484,5.623,5.5371,5.5039,5.4961,5.4277,5.4023,5.4023,5.4023,5.3613,5.3047,5.2793,5.2305,5.1758,5.1504,5.1426,5.1426,5.1426,5.1426,5.1426,5.1426,5.1426,5.1426,5.1426,5.1426,5.1426,5.1426,5.1426,5.1426,5.1426,5.1426,5.1426,5.1426,5.2624,5.3542,5.3542,5.4758,5.6034,5.7153,5.8249,5.9249,6.0372,6.2633,6.3976,6.3657,6.4897,6.5634,6.5634,6.5634,6.5785,6.6086,6.6112,6.6237,6.6463,6.6237,6.6237,6.6488,6.6488,6.689,6.7668,6.7995,6.8271,5.9048,5.918,5.918,5.918,5.8496,0.0,5.8359,5.8125,5.791,5.8359,5.8769,5.8789,5.8027,5.7812,5.7676,5.7344,5.7285,5.7441,5.7871,5.793,5.8086,5.8535,5.8594,5.8769,5.9121,5.918,5.918,5.918,5.918,5.918,5.918,5.918,5.918,5.918,5.918,5.918,5.918,5.918,5.918,5.918,5.8769,5.832,5.791,5.7441,5.7012,5.666,5.6601,5.6582,5.6582,5.6523,5.6289,5.5859,5.5058,5.4726,5.4629,5.418,5.4023,5.4023,5.4023,5.3457,5.2715,5.2715,5.2129,5.1426,5.1426,5.1426,5.1426,5.1426,5.1426,5.1426,5.1426,5.1426,5.1426,5.1426,5.1426,5.1426,5.1426,5.1426,5.1426,5.1426,5.1426,5.1426,5.1426,5.1426,5.1426,5.1426,5.1426,5.2161,5.4379,5.4926,5.594,5.8171,6.0632,6.2137,6.2184,6.409,6.5496,6.5831,6.5831,6.6028,6.6287,6.6287,6.6538,6.7066,6.6564,6.6589,6.7166,6.7166,6.7668,6.8622,6.8698,6.8974,5.8469,5.918,5.918,5.918,5.8496,0.0,5.7969,5.7656,5.7461,5.791,5.8047,5.8086,5.791,5.7578,5.7422,5.7695,5.7734,5.791,5.8359,5.8418,5.8555,5.9004,5.9062,5.9062,5.918,5.918,5.918,5.918,5.918,5.918,5.918,5.918,5.918,5.918,5.918,5.918,5.918,5.918,5.918,5.918,5.8769,5.8476,5.8359,5.7578,5.7168,5.707,5.6738,5.6582,5.6562,5.6211,5.6015,5.5879,5.539,5.498,5.4629,5.418,5.4023,5.4023,5.4023,5.3457,5.2715,5.2715,5.2129,5.1426,5.1426,5.1426,5.1426,5.1426,5.1426,5.1426,5.1426,5.1426,5.1426,5.1426,5.1426,5.1426,5.1426,5.1426,5.1426,5.1426,5.1426,5.1426,5.1426,5.1426,5.1426,5.1426,5.1426,5.162,5.2085,5.3828,5.5283,5.5753,5.8057,5.9612,5.9997,6.041,6.1759,6.4158,6.4362,6.5307,6.738,6.7467,6.7518,6.7643,6.7543,6.7744,6.8296,6.8296,6.8422,6.8622,6.9074,6.9351,5.8712,5.918,5.918,5.918,5.8672,0.0,0.0,5.7695,5.7598,5.7812,5.7871,5.7793,5.7578,5.7187,5.7031,5.7461,5.7539,5.7851,5.8711,5.8828,5.8945,5.918,5.918,5.918,5.918,5.918,5.918,5.918,5.918,5.918,5.918,5.918,5.918,5.918,5.918,5.918,5.918,5.918,5.918,5.918,5.8945,5.8769,5.8535,5.8066,5.7734,5.7519,5.709,5.6894,5.6855,5.6426,5.6133,5.5879,5.5234,5.4863,5.4629,5.418,5.4023,5.4004,5.3769,5.3262,5.2676,5.2461,5.1953,5.1426,5.1426,5.1426,5.1426,5.1426,5.1426,5.1426,5.1426,5.1426,5.1426,5.1426,5.1426,5.1426,5.1426,5.1426,5.1426,5.1426,5.1426,5.1426,5.1426,5.1426,5.1426,5.1426,5.1426,5.1426,5.1426,5.2451,5.3357,5.3579,5.583,5.751,5.7893,5.9069,6.0375,6.1949,6.1949,6.2618,6.3924,6.515,6.6478,6.7794,6.8346,6.8622,6.8622,6.8899,6.9024,6.9049,6.93,6.9361,5.8844,5.918,5.918,5.918,5.8828,5.8418,0.0,0.0,0.0,5.7969,5.7851,5.7656,5.7383,5.6914,5.6758,5.7246,5.7344,5.7793,5.9004,5.9121,5.9062,5.918,5.918,5.918,5.918,5.918,5.918,5.918,5.918,5.918,5.918,5.918,5.918,5.918,5.918,5.918,5.918,5.918,5.918,5.918,5.918,5.9004,5.8652,5.8594,5.832,5.7969,5.7441,5.7207,5.7187,5.6758,5.6387,5.5976,5.5137,5.4746,5.4629,5.418,5.4023,5.3965,5.3516,5.3066,5.2637,5.2226,5.1777,5.1426,5.1426,5.1426,5.1426,5.1426,5.1426,5.1426,5.1426,5.1426,5.1426,5.1426,5.1426,5.1426,5.1426,5.1426,5.1426,5.1426,5.1426,5.1426,5.1426,5.1426,5.1426,5.1426,5.1426,5.1426,5.1426,5.1504,5.1699,5.2051,5.3928,5.5372,5.5751,5.7689,5.9029,5.9614,5.9798,6.0032,6.0507,6.2967,6.5561,6.8032,6.91,6.9325,6.8773,6.9451,6.9652,6.9361,6.9361,6.9361,5.7663,5.918,5.918,5.918,5.8828,5.8535,5.8476,0.0,5.7969,5.8359,0.0,5.7383,5.7734,0.0,0.0,5.7656,5.7793,5.8105,5.9062,5.8828,5.8769,5.9121,5.918,5.918,5.918,5.918,5.918,5.918,5.918,5.918,5.918,5.918,5.918,5.918,5.918,5.918,5.918,5.918,5.918,5.918,5.918,5.918,5.9121,5.8711,5.8535,5.8418,5.7578,5.7207,5.7187,5.6758,5.6562,5.6426,5.5566,5.5019,5.4629,5.418,5.4023,5.3965,5.3516,5.3066,5.2637,5.2226,5.1777,5.1426,5.1426,5.1426,5.1426,5.1426,5.1426,5.1426,5.1426,5.1426,5.1426,5.1426,5.1426,5.1426,5.1426,5.1426,5.1426,5.1426,5.1426,5.1426,5.1426,5.1426,5.1426,5.1426,5.1426,5.1426,5.1426,5.1777,5.2031,5.207,5.2699,5.3191,5.3744,5.3964,5.5283,5.8014,5.8514,5.9696,6.2048,6.4547,6.6943,6.9185,6.9853,6.9903,6.9351,7.038,7.0405,6.9361,6.9361,6.9361,5.802,5.7888,5.693,5.8712,5.7642,5.6591,5.8131,5.8379,5.8301,5.8476,0.0,0.0,0.0,0.0,0.0,0.0,5.748,5.7793,5.8652,5.8418,5.832,5.8769,5.8555,5.8496,5.8769,5.9023,5.918,5.918,5.918,5.918,5.918,5.918,5.918,5.918,5.918,5.918,5.918,5.918,5.918,5.918,5.918,5.918,5.918,5.9004,5.8887,5.8887,5.7969,5.7598,5.7539,5.6855,5.6582,5.6504,5.5644,5.5195,5.4961,5.4277,5.4023,5.3926,5.3223,5.2871,5.2598,5.1914,5.1582,5.1426,5.1426,5.1426,5.1426,5.1426,5.1426,5.1426,5.1426,5.1426,5.1426,5.1426,5.1426,5.1426,5.1426,5.1426,5.1426,5.1426,5.1426,5.1523,5.1758,5.1816,5.1816,5.1816,5.2012,5.2168,5.2168,5.2344,5.2539,5.2793,5.3223,5.3652,5.4082,5.4121,5.4809,5.6312,5.6374,5.7411,6.0053,6.2391,6.4882,6.7577,6.9372,7.0305,7.0405,7.0857,7.0857,7.0405,7.0405,7.0405,5.6835,5.6214,5.5306,5.8376,5.7419,5.6252,5.8213,5.8828,5.8828,5.8711,5.8203,0.0,0.0,0.0,5.707,5.75,0.0,5.7793,5.8418,5.8144,5.7969,5.8301,5.8086,5.7969,5.832,5.8652,5.8828,5.8828,5.8945,5.9004,5.9004,5.9121,5.918,5.918,5.918,5.918,5.918,5.918,5.918,5.918,5.918,5.918,5.918,5.918,5.918,5.9121,5.8262,5.7871,5.7793,5.6933,5.6504,5.6328,5.5605,5.5234,5.5039,5.4297,5.4023,5.3926,5.3164,5.2734,5.2422,5.168,5.1426,5.1426,5.1426,5.1426,5.1426,5.1426,5.1426,5.1426,5.1426,5.1426,5.1426,5.1426,5.1426,5.1426,5.1426,5.1523,5.1601,5.1601,5.1699,5.1875,5.2207,5.2148,5.2129,5.2246,5.2519,5.2715,5.2715,5.2812,5.3047,5.3496,5.3945,5.4375,5.4824,5.4844,5.5039,5.5449,5.5195,5.6202,5.8754,6.1064,6.3605,6.6559,6.9356,7.0832,7.1083,7.1384,7.146,7.1309,7.1158,7.1083,5.2947,5.4586,5.5306,5.8376,5.916,5.9048,5.918,5.9473,5.9648,5.9238,5.9121,5.9004,5.8594,5.8144,5.7969,5.8418,5.8476,0.0,0.0,5.8144,5.7871,5.7871,5.7871,5.7871,5.7871,5.791,5.791,5.791,5.8301,5.8535,5.8535,5.8945,5.918,5.918,5.918,5.918,5.918,5.918,5.918,5.918,5.918,5.918,5.918,5.918,5.918,5.9121,5.8262,5.7871,5.7793,5.6933,5.6328,5.5918,5.5469,5.5058,5.4648,5.4199,5.4023,5.3965,5.3496,5.2793,5.2031,5.1582,5.1426,5.1426,5.1426,5.1426,5.1426,5.1426,5.1426,5.1426,5.1426,5.1426,5.1426,5.1426,5.1426,5.1426,5.1426,5.1758,5.2051,5.2051,5.2383,5.2676,5.2695,5.2344,5.2226,5.2637,5.2695,5.2715,5.2715,5.3086,5.3516,5.3965,5.4394,5.4824,5.5254,5.5293,5.5469,5.5898,5.5898,5.6996,5.9592,6.2276,6.474,6.7058,7.02,7.161,7.1083,7.2163,7.2389,7.1861,7.1334,7.1083,5.0322,4.9806,4.9557,5.4814,5.4803,5.4523,5.8668,5.9922,6.0098,5.9687,5.916,5.8711,5.8535,5.8144,5.8027,5.8476,5.8535,5.8418,0.0,5.7461,5.7012,5.7012,5.7265,5.7441,5.7441,5.7695,5.7871,5.7871,5.8027,5.8203,5.8535,5.8652,5.8887,5.918,5.918,5.918,5.918,5.918,5.918,5.918,5.918,5.918,5.918,5.918,5.918,5.9121,5.8262,5.7871,5.7793,5.6933,5.6328,5.5898,5.5469,5.5058,5.4629,5.418,5.4023,5.3965,5.3516,5.2793,5.2051,5.1914,5.166,5.1426,5.1426,5.1426,5.1426,5.1426,5.1426,5.1426,5.1426,5.1426,5.1426,5.1426,5.1426,5.1504,5.1797,5.1973,5.2168,5.2441,5.2617,5.2812,5.3086,5.3027,5.2969,5.3125,5.3398,5.3574,5.3574,5.3965,5.4297,5.4453,5.5098,5.5566,5.5703,5.5996,5.5976,5.5547,5.5781,5.6222,5.6825,5.9298,6.2302,6.5584,6.8343,7.0902,7.3293,7.3669,7.3745,7.3544,7.2991,7.2539,4.7511,4.6747,4.6346,5.1701,5.2522,5.3195,5.7395,5.9551,6.0508,5.9922,5.9512,5.9121,5.8828,5.8535,5.8437,5.8711,5.8769,5.8555,0.0,5.7129,5.6582,5.6582,5.6816,5.6992,5.6992,5.7246,5.7402,5.7402,5.7539,5.7812,5.8262,5.8418,5.8711,5.918,5.918,5.918,5.918,5.918,5.918,5.918,5.918,5.918,5.918,5.918,5.918,5.9121,5.8262,5.7871,5.7793,5.6933,5.6328,5.5898,5.5469,5.5058,5.4629,5.418,5.4023,5.3965,5.3516,5.2891,5.2285,5.2129,5.1777,5.1465,5.1621,5.1562,5.1562,5.2187,5.1914,5.1582,5.2187,5.1894,5.1465,5.1621,5.166,5.1738,5.2031,5.2324,5.2617,5.2891,5.3066,5.3262,5.3555,5.3594,5.3594,5.3594,5.3848,5.4023,5.4023,5.4277,5.457,5.4883,5.5254,5.5547,5.5703,5.6094,5.6113,5.5566,5.5937,5.6113,5.5996,5.9491,6.2895,6.6144,6.9235,7.2225,7.5301,7.4699,7.4423,7.4397,7.4046,7.3569]}]]